<?xml version="1.0" encoding="UTF-8" standalone="no" ?>
<gpx xmlns="http://www.topografix.com/GPX/1/1" xmlns:xsi="http://www.w3.org/2001/XMLSchema-instance" xsi:schemaLocation="http://www.topografix.com/GPX/1/1 http://www.topografix.com/GPX/1/1/gpx.xsd" version="1.1" creator="VisuGPX - https://www.visugpx.com">
  <metadata>
    <name>MucoPompier-Brest-Guilers-StRenan-Gouesnou</name>
    <desc><![CDATA[Belle ballade dans les environs de Brest Guilers St Renan Gouesnou.]]></desc>
  </metadata>
  <trk>
    <name><![CDATA[Vtt mucoPompier]]></name>
    <trkseg>
      <trkpt lat="48.42364" lon="-4.47961">
        <ele>87</ele>
        <time>2018-05-08T06:23:36.000Z</time>
      </trkpt>
      <trkpt lat="48.42364" lon="-4.47961">
        <ele>87</ele>
        <time>2018-05-08T06:23:37.000Z</time>
      </trkpt>
      <trkpt lat="48.42369" lon="-4.4793">
        <ele>87.400001525879</ele>
        <time>2018-05-08T06:23:45.000Z</time>
      </trkpt>
      <trkpt lat="48.42381" lon="-4.47911">
        <ele>88.400001525879</ele>
        <time>2018-05-08T06:23:49.000Z</time>
      </trkpt>
      <trkpt lat="48.42398" lon="-4.47913">
        <ele>89.199996948242</ele>
        <time>2018-05-08T06:23:53.000Z</time>
      </trkpt>
      <trkpt lat="48.42428" lon="-4.47921">
        <ele>89.800003051758</ele>
        <time>2018-05-08T06:23:59.000Z</time>
      </trkpt>
      <trkpt lat="48.42433" lon="-4.47922">
        <ele>90</ele>
        <time>2018-05-08T06:24:00.000Z</time>
      </trkpt>
      <trkpt lat="48.42451" lon="-4.47943">
        <ele>89</ele>
        <time>2018-05-08T06:24:04.000Z</time>
      </trkpt>
      <trkpt lat="48.42453" lon="-4.47951">
        <ele>88.800003051758</ele>
        <time>2018-05-08T06:24:05.000Z</time>
      </trkpt>
      <trkpt lat="48.4246" lon="-4.48015">
        <ele>87.599998474121</ele>
        <time>2018-05-08T06:24:12.000Z</time>
      </trkpt>
      <trkpt lat="48.42455" lon="-4.48043">
        <ele>87</ele>
        <time>2018-05-08T06:24:16.000Z</time>
      </trkpt>
      <trkpt lat="48.42449" lon="-4.48059">
        <ele>87.199996948242</ele>
        <time>2018-05-08T06:24:20.000Z</time>
      </trkpt>
      <trkpt lat="48.42443" lon="-4.48075">
        <ele>87.400001525879</ele>
        <time>2018-05-08T06:24:22.000Z</time>
      </trkpt>
      <trkpt lat="48.4243" lon="-4.48118">
        <ele>88</ele>
        <time>2018-05-08T06:24:27.000Z</time>
      </trkpt>
      <trkpt lat="48.4242" lon="-4.48147">
        <ele>88.199996948242</ele>
        <time>2018-05-08T06:24:32.000Z</time>
      </trkpt>
      <trkpt lat="48.42416" lon="-4.48153">
        <ele>88.199996948242</ele>
        <time>2018-05-08T06:24:36.000Z</time>
      </trkpt>
      <trkpt lat="48.42416" lon="-4.4815">
        <ele>88.199996948242</ele>
        <time>2018-05-08T06:24:37.000Z</time>
      </trkpt>
      <trkpt lat="48.42427" lon="-4.48118">
        <ele>88.199996948242</ele>
        <time>2018-05-08T06:24:42.000Z</time>
      </trkpt>
      <trkpt lat="48.4244" lon="-4.48079">
        <ele>87.599998474121</ele>
        <time>2018-05-08T06:24:48.000Z</time>
      </trkpt>
      <trkpt lat="48.42442" lon="-4.48074">
        <ele>87.599998474121</ele>
        <time>2018-05-08T06:24:49.000Z</time>
      </trkpt>
      <trkpt lat="48.42444" lon="-4.48066">
        <ele>87.400001525879</ele>
        <time>2018-05-08T06:24:51.000Z</time>
      </trkpt>
      <trkpt lat="48.42455" lon="-4.48055">
        <ele>87</ele>
        <time>2018-05-08T06:24:58.000Z</time>
      </trkpt>
      <trkpt lat="48.42473" lon="-4.48061">
        <ele>86</ele>
        <time>2018-05-08T06:25:03.000Z</time>
      </trkpt>
      <trkpt lat="48.42501" lon="-4.48079">
        <ele>85</ele>
        <time>2018-05-08T06:25:09.000Z</time>
      </trkpt>
      <trkpt lat="48.42511" lon="-4.48086">
        <ele>84.800003051758</ele>
        <time>2018-05-08T06:25:11.000Z</time>
      </trkpt>
      <trkpt lat="48.42525" lon="-4.48108">
        <ele>84.800003051758</ele>
        <time>2018-05-08T06:25:15.000Z</time>
      </trkpt>
      <trkpt lat="48.42522" lon="-4.48145">
        <ele>84.800003051758</ele>
        <time>2018-05-08T06:25:19.000Z</time>
      </trkpt>
      <trkpt lat="48.4251" lon="-4.48202">
        <ele>85.199996948242</ele>
        <time>2018-05-08T06:25:25.000Z</time>
      </trkpt>
      <trkpt lat="48.425" lon="-4.48248">
        <ele>85.400001525879</ele>
        <time>2018-05-08T06:25:30.000Z</time>
      </trkpt>
      <trkpt lat="48.42478" lon="-4.48331">
        <ele>86.199996948242</ele>
        <time>2018-05-08T06:25:39.000Z</time>
      </trkpt>
      <trkpt lat="48.42467" lon="-4.48366">
        <ele>86.400001525879</ele>
        <time>2018-05-08T06:25:43.000Z</time>
      </trkpt>
      <trkpt lat="48.42458" lon="-4.48403">
        <ele>86.400001525879</ele>
        <time>2018-05-08T06:25:47.000Z</time>
      </trkpt>
      <trkpt lat="48.42437" lon="-4.4846">
        <ele>86.800003051758</ele>
        <time>2018-05-08T06:25:54.000Z</time>
      </trkpt>
      <trkpt lat="48.42426" lon="-4.4849">
        <ele>86.599998474121</ele>
        <time>2018-05-08T06:25:58.000Z</time>
      </trkpt>
      <trkpt lat="48.42415" lon="-4.48528">
        <ele>86</ele>
        <time>2018-05-08T06:26:03.000Z</time>
      </trkpt>
      <trkpt lat="48.42413" lon="-4.48582">
        <ele>85</ele>
        <time>2018-05-08T06:26:09.000Z</time>
      </trkpt>
      <trkpt lat="48.42408" lon="-4.48624">
        <ele>85</ele>
        <time>2018-05-08T06:26:13.000Z</time>
      </trkpt>
      <trkpt lat="48.42399" lon="-4.48713">
        <ele>84.599998474121</ele>
        <time>2018-05-08T06:26:21.000Z</time>
      </trkpt>
      <trkpt lat="48.42392" lon="-4.48793">
        <ele>85.599998474121</ele>
        <time>2018-05-08T06:26:28.000Z</time>
      </trkpt>
      <trkpt lat="48.42387" lon="-4.48856">
        <ele>83.199996948242</ele>
        <time>2018-05-08T06:26:33.000Z</time>
      </trkpt>
      <trkpt lat="48.42379" lon="-4.48937">
        <ele>80.199996948242</ele>
        <time>2018-05-08T06:26:39.000Z</time>
      </trkpt>
      <trkpt lat="48.4237" lon="-4.49008">
        <ele>78.800003051758</ele>
        <time>2018-05-08T06:26:44.000Z</time>
      </trkpt>
      <trkpt lat="48.42361" lon="-4.49073">
        <ele>77.800003051758</ele>
        <time>2018-05-08T06:26:49.000Z</time>
      </trkpt>
      <trkpt lat="48.4235" lon="-4.49169">
        <ele>77</ele>
        <time>2018-05-08T06:26:57.000Z</time>
      </trkpt>
      <trkpt lat="48.42344" lon="-4.49217">
        <ele>77.400001525879</ele>
        <time>2018-05-08T06:27:02.000Z</time>
      </trkpt>
      <trkpt lat="48.42343" lon="-4.49227">
        <ele>77.599998474121</ele>
        <time>2018-05-08T06:27:03.000Z</time>
      </trkpt>
      <trkpt lat="48.42338" lon="-4.49285">
        <ele>78.800003051758</ele>
        <time>2018-05-08T06:27:09.000Z</time>
      </trkpt>
      <trkpt lat="48.42331" lon="-4.49321">
        <ele>79.199996948242</ele>
        <time>2018-05-08T06:27:13.000Z</time>
      </trkpt>
      <trkpt lat="48.42337" lon="-4.49342">
        <ele>79.599998474121</ele>
        <time>2018-05-08T06:27:16.000Z</time>
      </trkpt>
      <trkpt lat="48.42349" lon="-4.49343">
        <ele>79.800003051758</ele>
        <time>2018-05-08T06:27:18.000Z</time>
      </trkpt>
      <trkpt lat="48.42397" lon="-4.49337">
        <ele>80.800003051758</ele>
        <time>2018-05-08T06:27:26.000Z</time>
      </trkpt>
      <trkpt lat="48.42418" lon="-4.49351">
        <ele>81.400001525879</ele>
        <time>2018-05-08T06:27:30.000Z</time>
      </trkpt>
      <trkpt lat="48.42445" lon="-4.4937">
        <ele>81.400001525879</ele>
        <time>2018-05-08T06:27:35.000Z</time>
      </trkpt>
      <trkpt lat="48.42474" lon="-4.49396">
        <ele>79</ele>
        <time>2018-05-08T06:27:40.000Z</time>
      </trkpt>
      <trkpt lat="48.4251" lon="-4.49431">
        <ele>77.599998474121</ele>
        <time>2018-05-08T06:27:45.000Z</time>
      </trkpt>
      <trkpt lat="48.42525" lon="-4.49448">
        <ele>76.599998474121</ele>
        <time>2018-05-08T06:27:47.000Z</time>
      </trkpt>
      <trkpt lat="48.4255" lon="-4.49479">
        <ele>73.599998474121</ele>
        <time>2018-05-08T06:27:51.000Z</time>
      </trkpt>
      <trkpt lat="48.42572" lon="-4.49496">
        <ele>71.599998474121</ele>
        <time>2018-05-08T06:27:54.000Z</time>
      </trkpt>
      <trkpt lat="48.42618" lon="-4.49522">
        <ele>68</ele>
        <time>2018-05-08T06:27:59.000Z</time>
      </trkpt>
      <trkpt lat="48.42641" lon="-4.49549">
        <ele>66.199996948242</ele>
        <time>2018-05-08T06:28:02.000Z</time>
      </trkpt>
      <trkpt lat="48.42652" lon="-4.49575">
        <ele>65</ele>
        <time>2018-05-08T06:28:06.000Z</time>
      </trkpt>
      <trkpt lat="48.42654" lon="-4.49598">
        <ele>64.400001525879</ele>
        <time>2018-05-08T06:28:09.000Z</time>
      </trkpt>
      <trkpt lat="48.42657" lon="-4.49625">
        <ele>64.199996948242</ele>
        <time>2018-05-08T06:28:13.000Z</time>
      </trkpt>
      <trkpt lat="48.42667" lon="-4.4966">
        <ele>64.599998474121</ele>
        <time>2018-05-08T06:28:18.000Z</time>
      </trkpt>
      <trkpt lat="48.42686" lon="-4.49693">
        <ele>64.800003051758</ele>
        <time>2018-05-08T06:28:22.000Z</time>
      </trkpt>
      <trkpt lat="48.42705" lon="-4.49723">
        <ele>63.400001525879</ele>
        <time>2018-05-08T06:28:25.000Z</time>
      </trkpt>
      <trkpt lat="48.42719" lon="-4.49742">
        <ele>62.200000762939</ele>
        <time>2018-05-08T06:28:29.000Z</time>
      </trkpt>
      <trkpt lat="48.42722" lon="-4.49748">
        <ele>62.200000762939</ele>
        <time>2018-05-08T06:28:33.000Z</time>
      </trkpt>
      <trkpt lat="48.42725" lon="-4.49756">
        <ele>62.200000762939</ele>
        <time>2018-05-08T06:28:37.000Z</time>
      </trkpt>
      <trkpt lat="48.42729" lon="-4.49766">
        <ele>62.200000762939</ele>
        <time>2018-05-08T06:28:39.000Z</time>
      </trkpt>
      <trkpt lat="48.42744" lon="-4.49804">
        <ele>61.599998474121</ele>
        <time>2018-05-08T06:28:45.000Z</time>
      </trkpt>
      <trkpt lat="48.42748" lon="-4.49847">
        <ele>59.799999237061</ele>
        <time>2018-05-08T06:28:49.000Z</time>
      </trkpt>
      <trkpt lat="48.42747" lon="-4.49857">
        <ele>59.400001525879</ele>
        <time>2018-05-08T06:28:50.000Z</time>
      </trkpt>
      <trkpt lat="48.42744" lon="-4.49877">
        <ele>59</ele>
        <time>2018-05-08T06:28:52.000Z</time>
      </trkpt>
      <trkpt lat="48.42738" lon="-4.49919">
        <ele>57.400001525879</ele>
        <time>2018-05-08T06:28:57.000Z</time>
      </trkpt>
      <trkpt lat="48.42738" lon="-4.49929">
        <ele>57</ele>
        <time>2018-05-08T06:28:58.000Z</time>
      </trkpt>
      <trkpt lat="48.42729" lon="-4.49971">
        <ele>56.200000762939</ele>
        <time>2018-05-08T06:29:04.000Z</time>
      </trkpt>
      <trkpt lat="48.42712" lon="-4.50016">
        <ele>56.599998474121</ele>
        <time>2018-05-08T06:29:10.000Z</time>
      </trkpt>
      <trkpt lat="48.42692" lon="-4.50073">
        <ele>56.599998474121</ele>
        <time>2018-05-08T06:29:17.000Z</time>
      </trkpt>
      <trkpt lat="48.42674" lon="-4.50128">
        <ele>56.200000762939</ele>
        <time>2018-05-08T06:29:23.000Z</time>
      </trkpt>
      <trkpt lat="48.42655" lon="-4.50166">
        <ele>56.799999237061</ele>
        <time>2018-05-08T06:29:28.000Z</time>
      </trkpt>
      <trkpt lat="48.42648" lon="-4.5018">
        <ele>56.799999237061</ele>
        <time>2018-05-08T06:29:30.000Z</time>
      </trkpt>
      <trkpt lat="48.42639" lon="-4.50216">
        <ele>56.799999237061</ele>
        <time>2018-05-08T06:29:35.000Z</time>
      </trkpt>
      <trkpt lat="48.42639" lon="-4.50229">
        <ele>56.799999237061</ele>
        <time>2018-05-08T06:29:37.000Z</time>
      </trkpt>
      <trkpt lat="48.4264" lon="-4.5024">
        <ele>56.599998474121</ele>
        <time>2018-05-08T06:29:39.000Z</time>
      </trkpt>
      <trkpt lat="48.42643" lon="-4.50249">
        <ele>56.400001525879</ele>
        <time>2018-05-08T06:29:43.000Z</time>
      </trkpt>
      <trkpt lat="48.42661" lon="-4.5026">
        <ele>55.799999237061</ele>
        <time>2018-05-08T06:29:49.000Z</time>
      </trkpt>
      <trkpt lat="48.42687" lon="-4.50268">
        <ele>54.799999237061</ele>
        <time>2018-05-08T06:29:53.000Z</time>
      </trkpt>
      <trkpt lat="48.42723" lon="-4.50267">
        <ele>53.599998474121</ele>
        <time>2018-05-08T06:29:57.000Z</time>
      </trkpt>
      <trkpt lat="48.42746" lon="-4.50273">
        <ele>52.799999237061</ele>
        <time>2018-05-08T06:29:59.000Z</time>
      </trkpt>
      <trkpt lat="48.42786" lon="-4.50308">
        <ele>51.400001525879</ele>
        <time>2018-05-08T06:30:04.000Z</time>
      </trkpt>
      <trkpt lat="48.42791" lon="-4.50315">
        <ele>51.200000762939</ele>
        <time>2018-05-08T06:30:05.000Z</time>
      </trkpt>
      <trkpt lat="48.42802" lon="-4.50327">
        <ele>50.799999237061</ele>
        <time>2018-05-08T06:30:07.000Z</time>
      </trkpt>
      <trkpt lat="48.42811" lon="-4.50358">
        <ele>49.400001525879</ele>
        <time>2018-05-08T06:30:11.000Z</time>
      </trkpt>
      <trkpt lat="48.42812" lon="-4.50365">
        <ele>49</ele>
        <time>2018-05-08T06:30:12.000Z</time>
      </trkpt>
      <trkpt lat="48.42814" lon="-4.50386">
        <ele>49</ele>
        <time>2018-05-08T06:30:15.000Z</time>
      </trkpt>
      <trkpt lat="48.42822" lon="-4.50424">
        <ele>49</ele>
        <time>2018-05-08T06:30:21.000Z</time>
      </trkpt>
      <trkpt lat="48.42833" lon="-4.50474">
        <ele>49</ele>
        <time>2018-05-08T06:30:27.000Z</time>
      </trkpt>
      <trkpt lat="48.42837" lon="-4.5049">
        <ele>48.599998474121</ele>
        <time>2018-05-08T06:30:29.000Z</time>
      </trkpt>
      <trkpt lat="48.42845" lon="-4.50526">
        <ele>48.200000762939</ele>
        <time>2018-05-08T06:30:34.000Z</time>
      </trkpt>
      <trkpt lat="48.42837" lon="-4.50542">
        <ele>48.200000762939</ele>
        <time>2018-05-08T06:30:37.000Z</time>
      </trkpt>
      <trkpt lat="48.42821" lon="-4.5055">
        <ele>48.599998474121</ele>
        <time>2018-05-08T06:30:40.000Z</time>
      </trkpt>
      <trkpt lat="48.428" lon="-4.5055">
        <ele>48.799999237061</ele>
        <time>2018-05-08T06:30:44.000Z</time>
      </trkpt>
      <trkpt lat="48.42778" lon="-4.50556">
        <ele>49.200000762939</ele>
        <time>2018-05-08T06:30:48.000Z</time>
      </trkpt>
      <trkpt lat="48.42769" lon="-4.50577">
        <ele>49.400001525879</ele>
        <time>2018-05-08T06:30:51.000Z</time>
      </trkpt>
      <trkpt lat="48.42769" lon="-4.50596">
        <ele>49.799999237061</ele>
        <time>2018-05-08T06:30:53.000Z</time>
      </trkpt>
      <trkpt lat="48.42772" lon="-4.50659">
        <ele>49.400001525879</ele>
        <time>2018-05-08T06:30:59.000Z</time>
      </trkpt>
      <trkpt lat="48.42774" lon="-4.507">
        <ele>48.799999237061</ele>
        <time>2018-05-08T06:31:03.000Z</time>
      </trkpt>
      <trkpt lat="48.42781" lon="-4.50751">
        <ele>48</ele>
        <time>2018-05-08T06:31:08.000Z</time>
      </trkpt>
      <trkpt lat="48.42773" lon="-4.50785">
        <ele>48.200000762939</ele>
        <time>2018-05-08T06:31:12.000Z</time>
      </trkpt>
      <trkpt lat="48.4276" lon="-4.50796">
        <ele>48.599998474121</ele>
        <time>2018-05-08T06:31:14.000Z</time>
      </trkpt>
      <trkpt lat="48.42742" lon="-4.50811">
        <ele>50</ele>
        <time>2018-05-08T06:31:17.000Z</time>
      </trkpt>
      <trkpt lat="48.42721" lon="-4.50824">
        <ele>52</ele>
        <time>2018-05-08T06:31:21.000Z</time>
      </trkpt>
      <trkpt lat="48.42696" lon="-4.50841">
        <ele>54.200000762939</ele>
        <time>2018-05-08T06:31:25.000Z</time>
      </trkpt>
      <trkpt lat="48.42665" lon="-4.50861">
        <ele>55.599998474121</ele>
        <time>2018-05-08T06:31:31.000Z</time>
      </trkpt>
      <trkpt lat="48.42646" lon="-4.50873">
        <ele>55.799999237061</ele>
        <time>2018-05-08T06:31:35.000Z</time>
      </trkpt>
      <trkpt lat="48.42637" lon="-4.50879">
        <ele>56</ele>
        <time>2018-05-08T06:31:37.000Z</time>
      </trkpt>
      <trkpt lat="48.42629" lon="-4.50886">
        <ele>56</ele>
        <time>2018-05-08T06:31:39.000Z</time>
      </trkpt>
      <trkpt lat="48.42608" lon="-4.50921">
        <ele>56.200000762939</ele>
        <time>2018-05-08T06:31:44.000Z</time>
      </trkpt>
      <trkpt lat="48.42591" lon="-4.50958">
        <ele>55.599998474121</ele>
        <time>2018-05-08T06:31:48.000Z</time>
      </trkpt>
      <trkpt lat="48.42568" lon="-4.51003">
        <ele>52.200000762939</ele>
        <time>2018-05-08T06:31:53.000Z</time>
      </trkpt>
      <trkpt lat="48.42538" lon="-4.51053">
        <ele>50.200000762939</ele>
        <time>2018-05-08T06:31:59.000Z</time>
      </trkpt>
      <trkpt lat="48.42531" lon="-4.51064">
        <ele>50.400001525879</ele>
        <time>2018-05-08T06:32:00.000Z</time>
      </trkpt>
      <trkpt lat="48.42509" lon="-4.51095">
        <ele>50.799999237061</ele>
        <time>2018-05-08T06:32:04.000Z</time>
      </trkpt>
      <trkpt lat="48.42499" lon="-4.51128">
        <ele>50.200000762939</ele>
        <time>2018-05-08T06:32:08.000Z</time>
      </trkpt>
      <trkpt lat="48.42509" lon="-4.51161">
        <ele>49</ele>
        <time>2018-05-08T06:32:12.000Z</time>
      </trkpt>
      <trkpt lat="48.42512" lon="-4.512">
        <ele>48</ele>
        <time>2018-05-08T06:32:17.000Z</time>
      </trkpt>
      <trkpt lat="48.425" lon="-4.51211">
        <ele>47.799999237061</ele>
        <time>2018-05-08T06:32:19.000Z</time>
      </trkpt>
      <trkpt lat="48.42477" lon="-4.5124">
        <ele>47.200000762939</ele>
        <time>2018-05-08T06:32:24.000Z</time>
      </trkpt>
      <trkpt lat="48.42458" lon="-4.51274">
        <ele>47</ele>
        <time>2018-05-08T06:32:30.000Z</time>
      </trkpt>
      <trkpt lat="48.42453" lon="-4.51287">
        <ele>47</ele>
        <time>2018-05-08T06:32:32.000Z</time>
      </trkpt>
      <trkpt lat="48.42448" lon="-4.51312">
        <ele>47.200000762939</ele>
        <time>2018-05-08T06:32:36.000Z</time>
      </trkpt>
      <trkpt lat="48.4244" lon="-4.51355">
        <ele>47.200000762939</ele>
        <time>2018-05-08T06:32:43.000Z</time>
      </trkpt>
      <trkpt lat="48.42433" lon="-4.51392">
        <ele>48</ele>
        <time>2018-05-08T06:32:49.000Z</time>
      </trkpt>
      <trkpt lat="48.42428" lon="-4.5142">
        <ele>48.599998474121</ele>
        <time>2018-05-08T06:32:53.000Z</time>
      </trkpt>
      <trkpt lat="48.42428" lon="-4.51451">
        <ele>49.799999237061</ele>
        <time>2018-05-08T06:32:58.000Z</time>
      </trkpt>
      <trkpt lat="48.42435" lon="-4.51489">
        <ele>49.799999237061</ele>
        <time>2018-05-08T06:33:03.000Z</time>
      </trkpt>
      <trkpt lat="48.42437" lon="-4.51497">
        <ele>49.799999237061</ele>
        <time>2018-05-08T06:33:04.000Z</time>
      </trkpt>
      <trkpt lat="48.42445" lon="-4.51532">
        <ele>49.799999237061</ele>
        <time>2018-05-08T06:33:07.000Z</time>
      </trkpt>
      <trkpt lat="48.42472" lon="-4.51573">
        <ele>51.400001525879</ele>
        <time>2018-05-08T06:33:11.000Z</time>
      </trkpt>
      <trkpt lat="48.42504" lon="-4.51616">
        <ele>50.799999237061</ele>
        <time>2018-05-08T06:33:15.000Z</time>
      </trkpt>
      <trkpt lat="48.42541" lon="-4.51667">
        <ele>52.200000762939</ele>
        <time>2018-05-08T06:33:20.000Z</time>
      </trkpt>
      <trkpt lat="48.42565" lon="-4.51695">
        <ele>51.200000762939</ele>
        <time>2018-05-08T06:33:24.000Z</time>
      </trkpt>
      <trkpt lat="48.42586" lon="-4.51716">
        <ele>51.400001525879</ele>
        <time>2018-05-08T06:33:28.000Z</time>
      </trkpt>
      <trkpt lat="48.42614" lon="-4.51727">
        <ele>52.799999237061</ele>
        <time>2018-05-08T06:33:33.000Z</time>
      </trkpt>
      <trkpt lat="48.4263" lon="-4.51722">
        <ele>54.599998474121</ele>
        <time>2018-05-08T06:33:36.000Z</time>
      </trkpt>
      <trkpt lat="48.42639" lon="-4.51732">
        <ele>55.799999237061</ele>
        <time>2018-05-08T06:33:39.000Z</time>
      </trkpt>
      <trkpt lat="48.42644" lon="-4.51749">
        <ele>56.799999237061</ele>
        <time>2018-05-08T06:33:43.000Z</time>
      </trkpt>
      <trkpt lat="48.42649" lon="-4.51751">
        <ele>57.400001525879</ele>
        <time>2018-05-08T06:33:45.000Z</time>
      </trkpt>
      <trkpt lat="48.42662" lon="-4.5175">
        <ele>59.200000762939</ele>
        <time>2018-05-08T06:33:51.000Z</time>
      </trkpt>
      <trkpt lat="48.42676" lon="-4.5174">
        <ele>61</ele>
        <time>2018-05-08T06:33:57.000Z</time>
      </trkpt>
      <trkpt lat="48.42694" lon="-4.51731">
        <ele>62.200000762939</ele>
        <time>2018-05-08T06:34:03.000Z</time>
      </trkpt>
      <trkpt lat="48.42714" lon="-4.51726">
        <ele>62.799999237061</ele>
        <time>2018-05-08T06:34:10.000Z</time>
      </trkpt>
      <trkpt lat="48.4273" lon="-4.51719">
        <ele>63.200000762939</ele>
        <time>2018-05-08T06:34:14.000Z</time>
      </trkpt>
      <trkpt lat="48.42751" lon="-4.51698">
        <ele>63.400001525879</ele>
        <time>2018-05-08T06:34:20.000Z</time>
      </trkpt>
      <trkpt lat="48.42758" lon="-4.51679">
        <ele>62.799999237061</ele>
        <time>2018-05-08T06:34:24.000Z</time>
      </trkpt>
      <trkpt lat="48.42759" lon="-4.51665">
        <ele>62</ele>
        <time>2018-05-08T06:34:26.000Z</time>
      </trkpt>
      <trkpt lat="48.42764" lon="-4.51642">
        <ele>61.200000762939</ele>
        <time>2018-05-08T06:34:30.000Z</time>
      </trkpt>
      <trkpt lat="48.42772" lon="-4.51639">
        <ele>61.400001525879</ele>
        <time>2018-05-08T06:34:33.000Z</time>
      </trkpt>
      <trkpt lat="48.42778" lon="-4.51644">
        <ele>61.799999237061</ele>
        <time>2018-05-08T06:34:35.000Z</time>
      </trkpt>
      <trkpt lat="48.42795" lon="-4.51652">
        <ele>63.200000762939</ele>
        <time>2018-05-08T06:34:40.000Z</time>
      </trkpt>
      <trkpt lat="48.42813" lon="-4.51652">
        <ele>64</ele>
        <time>2018-05-08T06:34:44.000Z</time>
      </trkpt>
      <trkpt lat="48.42817" lon="-4.51654">
        <ele>64.199996948242</ele>
        <time>2018-05-08T06:34:45.000Z</time>
      </trkpt>
      <trkpt lat="48.4282" lon="-4.51637">
        <ele>63.599998474121</ele>
        <time>2018-05-08T06:34:49.000Z</time>
      </trkpt>
      <trkpt lat="48.4282" lon="-4.51632">
        <ele>63.400001525879</ele>
        <time>2018-05-08T06:34:50.000Z</time>
      </trkpt>
      <trkpt lat="48.4282" lon="-4.5161">
        <ele>62.799999237061</ele>
        <time>2018-05-08T06:34:54.000Z</time>
      </trkpt>
      <trkpt lat="48.42832" lon="-4.51607">
        <ele>63.400001525879</ele>
        <time>2018-05-08T06:34:58.000Z</time>
      </trkpt>
      <trkpt lat="48.42836" lon="-4.51608">
        <ele>63.599998474121</ele>
        <time>2018-05-08T06:34:59.000Z</time>
      </trkpt>
      <trkpt lat="48.42842" lon="-4.51624">
        <ele>64</ele>
        <time>2018-05-08T06:35:03.000Z</time>
      </trkpt>
      <trkpt lat="48.42846" lon="-4.51627">
        <ele>64.400001525879</ele>
        <time>2018-05-08T06:35:04.000Z</time>
      </trkpt>
      <trkpt lat="48.42876" lon="-4.51634">
        <ele>66.800003051758</ele>
        <time>2018-05-08T06:35:11.000Z</time>
      </trkpt>
      <trkpt lat="48.42892" lon="-4.51626">
        <ele>67.599998474121</ele>
        <time>2018-05-08T06:35:16.000Z</time>
      </trkpt>
      <trkpt lat="48.42901" lon="-4.51613">
        <ele>67.800003051758</ele>
        <time>2018-05-08T06:35:20.000Z</time>
      </trkpt>
      <trkpt lat="48.42908" lon="-4.51614">
        <ele>68.199996948242</ele>
        <time>2018-05-08T06:35:22.000Z</time>
      </trkpt>
      <trkpt lat="48.42932" lon="-4.51628">
        <ele>70</ele>
        <time>2018-05-08T06:35:29.000Z</time>
      </trkpt>
      <trkpt lat="48.42957" lon="-4.51642">
        <ele>70.599998474121</ele>
        <time>2018-05-08T06:35:36.000Z</time>
      </trkpt>
      <trkpt lat="48.42978" lon="-4.5165">
        <ele>71</ele>
        <time>2018-05-08T06:35:42.000Z</time>
      </trkpt>
      <trkpt lat="48.43007" lon="-4.5165">
        <ele>72.199996948242</ele>
        <time>2018-05-08T06:35:49.000Z</time>
      </trkpt>
      <trkpt lat="48.43011" lon="-4.5165">
        <ele>72.199996948242</ele>
        <time>2018-05-08T06:35:50.000Z</time>
      </trkpt>
      <trkpt lat="48.43032" lon="-4.51642">
        <ele>72.400001525879</ele>
        <time>2018-05-08T06:35:55.000Z</time>
      </trkpt>
      <trkpt lat="48.43058" lon="-4.51637">
        <ele>72.199996948242</ele>
        <time>2018-05-08T06:36:00.000Z</time>
      </trkpt>
      <trkpt lat="48.43103" lon="-4.51635">
        <ele>72</ele>
        <time>2018-05-08T06:36:07.000Z</time>
      </trkpt>
      <trkpt lat="48.43159" lon="-4.5163">
        <ele>71.199996948242</ele>
        <time>2018-05-08T06:36:15.000Z</time>
      </trkpt>
      <trkpt lat="48.43206" lon="-4.51631">
        <ele>70.400001525879</ele>
        <time>2018-05-08T06:36:21.000Z</time>
      </trkpt>
      <trkpt lat="48.43237" lon="-4.51631">
        <ele>69.199996948242</ele>
        <time>2018-05-08T06:36:25.000Z</time>
      </trkpt>
      <trkpt lat="48.43264" lon="-4.51641">
        <ele>68.599998474121</ele>
        <time>2018-05-08T06:36:29.000Z</time>
      </trkpt>
      <trkpt lat="48.43266" lon="-4.5166">
        <ele>69</ele>
        <time>2018-05-08T06:36:32.000Z</time>
      </trkpt>
      <trkpt lat="48.4327" lon="-4.51666">
        <ele>69</ele>
        <time>2018-05-08T06:36:35.000Z</time>
      </trkpt>
      <trkpt lat="48.43274" lon="-4.5166">
        <ele>68.800003051758</ele>
        <time>2018-05-08T06:36:37.000Z</time>
      </trkpt>
      <trkpt lat="48.4328" lon="-4.51651">
        <ele>68.400001525879</ele>
        <time>2018-05-08T06:36:39.000Z</time>
      </trkpt>
      <trkpt lat="48.43295" lon="-4.51641">
        <ele>67.800003051758</ele>
        <time>2018-05-08T06:36:41.000Z</time>
      </trkpt>
      <trkpt lat="48.43328" lon="-4.51615">
        <ele>66.400001525879</ele>
        <time>2018-05-08T06:36:46.000Z</time>
      </trkpt>
      <trkpt lat="48.43332" lon="-4.51606">
        <ele>66</ele>
        <time>2018-05-08T06:36:47.000Z</time>
      </trkpt>
      <trkpt lat="48.4334" lon="-4.51589">
        <ele>64.800003051758</ele>
        <time>2018-05-08T06:36:49.000Z</time>
      </trkpt>
      <trkpt lat="48.43347" lon="-4.51574">
        <ele>64</ele>
        <time>2018-05-08T06:36:51.000Z</time>
      </trkpt>
      <trkpt lat="48.43358" lon="-4.51541">
        <ele>63</ele>
        <time>2018-05-08T06:36:55.000Z</time>
      </trkpt>
      <trkpt lat="48.43364" lon="-4.51526">
        <ele>63</ele>
        <time>2018-05-08T06:36:57.000Z</time>
      </trkpt>
      <trkpt lat="48.43373" lon="-4.51502">
        <ele>63.200000762939</ele>
        <time>2018-05-08T06:37:00.000Z</time>
      </trkpt>
      <trkpt lat="48.4338" lon="-4.51475">
        <ele>63.599998474121</ele>
        <time>2018-05-08T06:37:03.000Z</time>
      </trkpt>
      <trkpt lat="48.43394" lon="-4.51444">
        <ele>64.400001525879</ele>
        <time>2018-05-08T06:37:07.000Z</time>
      </trkpt>
      <trkpt lat="48.43411" lon="-4.51424">
        <ele>65.599998474121</ele>
        <time>2018-05-08T06:37:11.000Z</time>
      </trkpt>
      <trkpt lat="48.43437" lon="-4.51413">
        <ele>67.199996948242</ele>
        <time>2018-05-08T06:37:17.000Z</time>
      </trkpt>
      <trkpt lat="48.43463" lon="-4.5141">
        <ele>68.400001525879</ele>
        <time>2018-05-08T06:37:24.000Z</time>
      </trkpt>
      <trkpt lat="48.43476" lon="-4.51412">
        <ele>69.199996948242</ele>
        <time>2018-05-08T06:37:28.000Z</time>
      </trkpt>
      <trkpt lat="48.43494" lon="-4.5142">
        <ele>70.400001525879</ele>
        <time>2018-05-08T06:37:33.000Z</time>
      </trkpt>
      <trkpt lat="48.43518" lon="-4.5142">
        <ele>72</ele>
        <time>2018-05-08T06:37:39.000Z</time>
      </trkpt>
      <trkpt lat="48.43543" lon="-4.51419">
        <ele>73</ele>
        <time>2018-05-08T06:37:46.000Z</time>
      </trkpt>
      <trkpt lat="48.43576" lon="-4.51418">
        <ele>74.400001525879</ele>
        <time>2018-05-08T06:37:55.000Z</time>
      </trkpt>
      <trkpt lat="48.43597" lon="-4.51417">
        <ele>75.400001525879</ele>
        <time>2018-05-08T06:38:00.000Z</time>
      </trkpt>
      <trkpt lat="48.43624" lon="-4.51422">
        <ele>76.199996948242</ele>
        <time>2018-05-08T06:38:06.000Z</time>
      </trkpt>
      <trkpt lat="48.43629" lon="-4.51423">
        <ele>76.400001525879</ele>
        <time>2018-05-08T06:38:07.000Z</time>
      </trkpt>
      <trkpt lat="48.43673" lon="-4.51436">
        <ele>76.800003051758</ele>
        <time>2018-05-08T06:38:15.000Z</time>
      </trkpt>
      <trkpt lat="48.43719" lon="-4.51451">
        <ele>75.599998474121</ele>
        <time>2018-05-08T06:38:23.000Z</time>
      </trkpt>
      <trkpt lat="48.43747" lon="-4.51459">
        <ele>74.599998474121</ele>
        <time>2018-05-08T06:38:28.000Z</time>
      </trkpt>
      <trkpt lat="48.43758" lon="-4.51472">
        <ele>74.599998474121</ele>
        <time>2018-05-08T06:38:32.000Z</time>
      </trkpt>
      <trkpt lat="48.43754" lon="-4.51485">
        <ele>75</ele>
        <time>2018-05-08T06:38:35.000Z</time>
      </trkpt>
      <trkpt lat="48.43749" lon="-4.51492">
        <ele>75.199996948242</ele>
        <time>2018-05-08T06:38:37.000Z</time>
      </trkpt>
      <trkpt lat="48.43732" lon="-4.51519">
        <ele>76</ele>
        <time>2018-05-08T06:38:42.000Z</time>
      </trkpt>
      <trkpt lat="48.43717" lon="-4.51538">
        <ele>76.800003051758</ele>
        <time>2018-05-08T06:38:45.000Z</time>
      </trkpt>
      <trkpt lat="48.43702" lon="-4.51562">
        <ele>77.800003051758</ele>
        <time>2018-05-08T06:38:50.000Z</time>
      </trkpt>
      <trkpt lat="48.43696" lon="-4.51571">
        <ele>78.199996948242</ele>
        <time>2018-05-08T06:38:52.000Z</time>
      </trkpt>
      <trkpt lat="48.43682" lon="-4.51602">
        <ele>79.400001525879</ele>
        <time>2018-05-08T06:38:58.000Z</time>
      </trkpt>
      <trkpt lat="48.43671" lon="-4.51629">
        <ele>80.199996948242</ele>
        <time>2018-05-08T06:39:02.000Z</time>
      </trkpt>
      <trkpt lat="48.43659" lon="-4.51659">
        <ele>80.599998474121</ele>
        <time>2018-05-08T06:39:06.000Z</time>
      </trkpt>
      <trkpt lat="48.43642" lon="-4.5171">
        <ele>81</ele>
        <time>2018-05-08T06:39:12.000Z</time>
      </trkpt>
      <trkpt lat="48.43637" lon="-4.51734">
        <ele>81</ele>
        <time>2018-05-08T06:39:15.000Z</time>
      </trkpt>
      <trkpt lat="48.43628" lon="-4.5176">
        <ele>81</ele>
        <time>2018-05-08T06:39:19.000Z</time>
      </trkpt>
      <trkpt lat="48.43624" lon="-4.51773">
        <ele>80.800003051758</ele>
        <time>2018-05-08T06:39:21.000Z</time>
      </trkpt>
      <trkpt lat="48.4362" lon="-4.51789">
        <ele>80.599998474121</ele>
        <time>2018-05-08T06:39:23.000Z</time>
      </trkpt>
      <trkpt lat="48.4361" lon="-4.51837">
        <ele>79.599998474121</ele>
        <time>2018-05-08T06:39:28.000Z</time>
      </trkpt>
      <trkpt lat="48.43613" lon="-4.51862">
        <ele>79.199996948242</ele>
        <time>2018-05-08T06:39:32.000Z</time>
      </trkpt>
      <trkpt lat="48.43628" lon="-4.51886">
        <ele>79.199996948242</ele>
        <time>2018-05-08T06:39:38.000Z</time>
      </trkpt>
      <trkpt lat="48.43632" lon="-4.51896">
        <ele>79</ele>
        <time>2018-05-08T06:39:40.000Z</time>
      </trkpt>
      <trkpt lat="48.43631" lon="-4.51921">
        <ele>78.400001525879</ele>
        <time>2018-05-08T06:39:45.000Z</time>
      </trkpt>
      <trkpt lat="48.43627" lon="-4.51927">
        <ele>78.199996948242</ele>
        <time>2018-05-08T06:39:46.000Z</time>
      </trkpt>
      <trkpt lat="48.43607" lon="-4.51975">
        <ele>76.400001525879</ele>
        <time>2018-05-08T06:39:51.000Z</time>
      </trkpt>
      <trkpt lat="48.43601" lon="-4.52014">
        <ele>75.400001525879</ele>
        <time>2018-05-08T06:39:54.000Z</time>
      </trkpt>
      <trkpt lat="48.43586" lon="-4.52061">
        <ele>76.199996948242</ele>
        <time>2018-05-08T06:39:59.000Z</time>
      </trkpt>
      <trkpt lat="48.43582" lon="-4.52093">
        <ele>77.400001525879</ele>
        <time>2018-05-08T06:40:03.000Z</time>
      </trkpt>
      <trkpt lat="48.43589" lon="-4.52134">
        <ele>78.599998474121</ele>
        <time>2018-05-08T06:40:09.000Z</time>
      </trkpt>
      <trkpt lat="48.43595" lon="-4.52168">
        <ele>78.800003051758</ele>
        <time>2018-05-08T06:40:15.000Z</time>
      </trkpt>
      <trkpt lat="48.43591" lon="-4.5219">
        <ele>79.199996948242</ele>
        <time>2018-05-08T06:40:19.000Z</time>
      </trkpt>
      <trkpt lat="48.43577" lon="-4.52194">
        <ele>80</ele>
        <time>2018-05-08T06:40:22.000Z</time>
      </trkpt>
      <trkpt lat="48.43567" lon="-4.52193">
        <ele>80.400001525879</ele>
        <time>2018-05-08T06:40:24.000Z</time>
      </trkpt>
      <trkpt lat="48.43555" lon="-4.52193">
        <ele>81</ele>
        <time>2018-05-08T06:40:26.000Z</time>
      </trkpt>
      <trkpt lat="48.43533" lon="-4.52203">
        <ele>82.199996948242</ele>
        <time>2018-05-08T06:40:30.000Z</time>
      </trkpt>
      <trkpt lat="48.4352" lon="-4.52216">
        <ele>82.599998474121</ele>
        <time>2018-05-08T06:40:33.000Z</time>
      </trkpt>
      <trkpt lat="48.43505" lon="-4.52231">
        <ele>82.599998474121</ele>
        <time>2018-05-08T06:40:36.000Z</time>
      </trkpt>
      <trkpt lat="48.43483" lon="-4.52256">
        <ele>82</ele>
        <time>2018-05-08T06:40:41.000Z</time>
      </trkpt>
      <trkpt lat="48.43453" lon="-4.52288">
        <ele>81.199996948242</ele>
        <time>2018-05-08T06:40:48.000Z</time>
      </trkpt>
      <trkpt lat="48.43444" lon="-4.52295">
        <ele>81.199996948242</ele>
        <time>2018-05-08T06:40:50.000Z</time>
      </trkpt>
      <trkpt lat="48.43414" lon="-4.52309">
        <ele>80.400001525879</ele>
        <time>2018-05-08T06:40:55.000Z</time>
      </trkpt>
      <trkpt lat="48.4337" lon="-4.52316">
        <ele>79.199996948242</ele>
        <time>2018-05-08T06:41:00.000Z</time>
      </trkpt>
      <trkpt lat="48.43334" lon="-4.5233">
        <ele>78.599998474121</ele>
        <time>2018-05-08T06:41:04.000Z</time>
      </trkpt>
      <trkpt lat="48.433" lon="-4.52354">
        <ele>78.800003051758</ele>
        <time>2018-05-08T06:41:08.000Z</time>
      </trkpt>
      <trkpt lat="48.4328" lon="-4.52372">
        <ele>78.800003051758</ele>
        <time>2018-05-08T06:41:11.000Z</time>
      </trkpt>
      <trkpt lat="48.43261" lon="-4.52392">
        <ele>78.599998474121</ele>
        <time>2018-05-08T06:41:15.000Z</time>
      </trkpt>
      <trkpt lat="48.43226" lon="-4.5241">
        <ele>79.800003051758</ele>
        <time>2018-05-08T06:41:22.000Z</time>
      </trkpt>
      <trkpt lat="48.432" lon="-4.52432">
        <ele>80.599998474121</ele>
        <time>2018-05-08T06:41:27.000Z</time>
      </trkpt>
      <trkpt lat="48.43181" lon="-4.52462">
        <ele>80.599998474121</ele>
        <time>2018-05-08T06:41:32.000Z</time>
      </trkpt>
      <trkpt lat="48.43165" lon="-4.52465">
        <ele>80</ele>
        <time>2018-05-08T06:41:35.000Z</time>
      </trkpt>
      <trkpt lat="48.43131" lon="-4.52478">
        <ele>78.800003051758</ele>
        <time>2018-05-08T06:41:41.000Z</time>
      </trkpt>
      <trkpt lat="48.43107" lon="-4.52492">
        <ele>77.599998474121</ele>
        <time>2018-05-08T06:41:45.000Z</time>
      </trkpt>
      <trkpt lat="48.43085" lon="-4.52517">
        <ele>76.199996948242</ele>
        <time>2018-05-08T06:41:49.000Z</time>
      </trkpt>
      <trkpt lat="48.4307" lon="-4.52542">
        <ele>75.400001525879</ele>
        <time>2018-05-08T06:41:52.000Z</time>
      </trkpt>
      <trkpt lat="48.43043" lon="-4.526">
        <ele>75.400001525879</ele>
        <time>2018-05-08T06:41:58.000Z</time>
      </trkpt>
      <trkpt lat="48.43032" lon="-4.52628">
        <ele>75.400001525879</ele>
        <time>2018-05-08T06:42:01.000Z</time>
      </trkpt>
      <trkpt lat="48.43021" lon="-4.5268">
        <ele>76.599998474121</ele>
        <time>2018-05-08T06:42:07.000Z</time>
      </trkpt>
      <trkpt lat="48.4301" lon="-4.52715">
        <ele>77.599998474121</ele>
        <time>2018-05-08T06:42:12.000Z</time>
      </trkpt>
      <trkpt lat="48.43" lon="-4.52748">
        <ele>78.800003051758</ele>
        <time>2018-05-08T06:42:18.000Z</time>
      </trkpt>
      <trkpt lat="48.42988" lon="-4.52781">
        <ele>80</ele>
        <time>2018-05-08T06:42:24.000Z</time>
      </trkpt>
      <trkpt lat="48.42965" lon="-4.5283">
        <ele>80</ele>
        <time>2018-05-08T06:42:32.000Z</time>
      </trkpt>
      <trkpt lat="48.4294" lon="-4.52881">
        <ele>80.199996948242</ele>
        <time>2018-05-08T06:42:39.000Z</time>
      </trkpt>
      <trkpt lat="48.42922" lon="-4.52913">
        <ele>79.400001525879</ele>
        <time>2018-05-08T06:42:43.000Z</time>
      </trkpt>
      <trkpt lat="48.42905" lon="-4.52944">
        <ele>78.400001525879</ele>
        <time>2018-05-08T06:42:47.000Z</time>
      </trkpt>
      <trkpt lat="48.42895" lon="-4.52977">
        <ele>79.599998474121</ele>
        <time>2018-05-08T06:42:51.000Z</time>
      </trkpt>
      <trkpt lat="48.42886" lon="-4.53002">
        <ele>80.599998474121</ele>
        <time>2018-05-08T06:42:54.000Z</time>
      </trkpt>
      <trkpt lat="48.42875" lon="-4.53024">
        <ele>80.800003051758</ele>
        <time>2018-05-08T06:42:57.000Z</time>
      </trkpt>
      <trkpt lat="48.42847" lon="-4.53059">
        <ele>81.800003051758</ele>
        <time>2018-05-08T06:43:04.000Z</time>
      </trkpt>
      <trkpt lat="48.42843" lon="-4.53063">
        <ele>81.800003051758</ele>
        <time>2018-05-08T06:43:05.000Z</time>
      </trkpt>
      <trkpt lat="48.42825" lon="-4.53089">
        <ele>82.199996948242</ele>
        <time>2018-05-08T06:43:11.000Z</time>
      </trkpt>
      <trkpt lat="48.42823" lon="-4.53091">
        <ele>82.199996948242</ele>
        <time>2018-05-08T06:43:16.000Z</time>
      </trkpt>
      <trkpt lat="48.42811" lon="-4.53082">
        <ele>81.400001525879</ele>
        <time>2018-05-08T06:43:21.000Z</time>
      </trkpt>
      <trkpt lat="48.42787" lon="-4.53073">
        <ele>79.599998474121</ele>
        <time>2018-05-08T06:43:25.000Z</time>
      </trkpt>
      <trkpt lat="48.42763" lon="-4.53087">
        <ele>79</ele>
        <time>2018-05-08T06:43:29.000Z</time>
      </trkpt>
      <trkpt lat="48.42737" lon="-4.53111">
        <ele>79</ele>
        <time>2018-05-08T06:43:34.000Z</time>
      </trkpt>
      <trkpt lat="48.42726" lon="-4.5312">
        <ele>78.599998474121</ele>
        <time>2018-05-08T06:43:36.000Z</time>
      </trkpt>
      <trkpt lat="48.42704" lon="-4.53144">
        <ele>77.400001525879</ele>
        <time>2018-05-08T06:43:40.000Z</time>
      </trkpt>
      <trkpt lat="48.42662" lon="-4.53203">
        <ele>75.800003051758</ele>
        <time>2018-05-08T06:43:48.000Z</time>
      </trkpt>
      <trkpt lat="48.42622" lon="-4.53253">
        <ele>75.199996948242</ele>
        <time>2018-05-08T06:43:55.000Z</time>
      </trkpt>
      <trkpt lat="48.42585" lon="-4.53309">
        <ele>74.800003051758</ele>
        <time>2018-05-08T06:44:02.000Z</time>
      </trkpt>
      <trkpt lat="48.42566" lon="-4.53355">
        <ele>74.599998474121</ele>
        <time>2018-05-08T06:44:07.000Z</time>
      </trkpt>
      <trkpt lat="48.42556" lon="-4.53391">
        <ele>72</ele>
        <time>2018-05-08T06:44:11.000Z</time>
      </trkpt>
      <trkpt lat="48.42554" lon="-4.53398">
        <ele>71</ele>
        <time>2018-05-08T06:44:12.000Z</time>
      </trkpt>
      <trkpt lat="48.42534" lon="-4.5341">
        <ele>69</ele>
        <time>2018-05-08T06:44:16.000Z</time>
      </trkpt>
      <trkpt lat="48.42529" lon="-4.53408">
        <ele>69</ele>
        <time>2018-05-08T06:44:17.000Z</time>
      </trkpt>
      <trkpt lat="48.42513" lon="-4.534">
        <ele>69.199996948242</ele>
        <time>2018-05-08T06:44:21.000Z</time>
      </trkpt>
      <trkpt lat="48.42501" lon="-4.53405">
        <ele>67.199996948242</ele>
        <time>2018-05-08T06:44:26.000Z</time>
      </trkpt>
      <trkpt lat="48.4249" lon="-4.53406">
        <ele>65.800003051758</ele>
        <time>2018-05-08T06:44:30.000Z</time>
      </trkpt>
      <trkpt lat="48.4248" lon="-4.53404">
        <ele>64.800003051758</ele>
        <time>2018-05-08T06:44:32.000Z</time>
      </trkpt>
      <trkpt lat="48.42448" lon="-4.53397">
        <ele>63.599998474121</ele>
        <time>2018-05-08T06:44:36.000Z</time>
      </trkpt>
      <trkpt lat="48.4241" lon="-4.5339">
        <ele>62.200000762939</ele>
        <time>2018-05-08T06:44:41.000Z</time>
      </trkpt>
      <trkpt lat="48.42388" lon="-4.53388">
        <ele>60.400001525879</ele>
        <time>2018-05-08T06:44:44.000Z</time>
      </trkpt>
      <trkpt lat="48.42377" lon="-4.53389">
        <ele>59.200000762939</ele>
        <time>2018-05-08T06:44:48.000Z</time>
      </trkpt>
      <trkpt lat="48.42368" lon="-4.53389">
        <ele>58.200000762939</ele>
        <time>2018-05-08T06:44:53.000Z</time>
      </trkpt>
      <trkpt lat="48.42358" lon="-4.53386">
        <ele>57.599998474121</ele>
        <time>2018-05-08T06:45:00.000Z</time>
      </trkpt>
      <trkpt lat="48.42354" lon="-4.53386">
        <ele>57.200000762939</ele>
        <time>2018-05-08T06:45:06.000Z</time>
      </trkpt>
      <trkpt lat="48.42337" lon="-4.53388">
        <ele>55.400001525879</ele>
        <time>2018-05-08T06:45:14.000Z</time>
      </trkpt>
      <trkpt lat="48.42332" lon="-4.53389">
        <ele>55</ele>
        <time>2018-05-08T06:45:15.000Z</time>
      </trkpt>
      <trkpt lat="48.42314" lon="-4.53392">
        <ele>52.599998474121</ele>
        <time>2018-05-08T06:45:20.000Z</time>
      </trkpt>
      <trkpt lat="48.42304" lon="-4.53394">
        <ele>50.799999237061</ele>
        <time>2018-05-08T06:45:23.000Z</time>
      </trkpt>
      <trkpt lat="48.42302" lon="-4.53402">
        <ele>50.200000762939</ele>
        <time>2018-05-08T06:45:27.000Z</time>
      </trkpt>
      <trkpt lat="48.42305" lon="-4.53409">
        <ele>50.200000762939</ele>
        <time>2018-05-08T06:45:30.000Z</time>
      </trkpt>
      <trkpt lat="48.42315" lon="-4.53418">
        <ele>50</ele>
        <time>2018-05-08T06:45:35.000Z</time>
      </trkpt>
      <trkpt lat="48.42318" lon="-4.5342">
        <ele>50</ele>
        <time>2018-05-08T06:45:37.000Z</time>
      </trkpt>
      <trkpt lat="48.4232" lon="-4.53422">
        <ele>50</ele>
        <time>2018-05-08T06:45:39.000Z</time>
      </trkpt>
      <trkpt lat="48.42323" lon="-4.53427">
        <ele>49.599998474121</ele>
        <time>2018-05-08T06:45:43.000Z</time>
      </trkpt>
      <trkpt lat="48.42316" lon="-4.53426">
        <ele>49.200000762939</ele>
        <time>2018-05-08T06:45:48.000Z</time>
      </trkpt>
      <trkpt lat="48.42311" lon="-4.5343">
        <ele>48.200000762939</ele>
        <time>2018-05-08T06:45:51.000Z</time>
      </trkpt>
      <trkpt lat="48.42299" lon="-4.53441">
        <ele>46</ele>
        <time>2018-05-08T06:45:57.000Z</time>
      </trkpt>
      <trkpt lat="48.42302" lon="-4.53447">
        <ele>45.400001525879</ele>
        <time>2018-05-08T06:45:59.000Z</time>
      </trkpt>
      <trkpt lat="48.42313" lon="-4.53455">
        <ele>46.200000762939</ele>
        <time>2018-05-08T06:46:05.000Z</time>
      </trkpt>
      <trkpt lat="48.42318" lon="-4.53454">
        <ele>46.599998474121</ele>
        <time>2018-05-08T06:46:13.000Z</time>
      </trkpt>
      <trkpt lat="48.42321" lon="-4.53454">
        <ele>46.799999237061</ele>
        <time>2018-05-08T06:46:16.000Z</time>
      </trkpt>
      <trkpt lat="48.42329" lon="-4.5345">
        <ele>47.400001525879</ele>
        <time>2018-05-08T06:46:22.000Z</time>
      </trkpt>
      <trkpt lat="48.42331" lon="-4.53449">
        <ele>47.599998474121</ele>
        <time>2018-05-08T06:46:23.000Z</time>
      </trkpt>
      <trkpt lat="48.42339" lon="-4.53447">
        <ele>48.599998474121</ele>
        <time>2018-05-08T06:46:29.000Z</time>
      </trkpt>
      <trkpt lat="48.42341" lon="-4.53446">
        <ele>49</ele>
        <time>2018-05-08T06:46:30.000Z</time>
      </trkpt>
      <trkpt lat="48.42346" lon="-4.53438">
        <ele>50.200000762939</ele>
        <time>2018-05-08T06:46:35.000Z</time>
      </trkpt>
      <trkpt lat="48.42348" lon="-4.53436">
        <ele>50.599998474121</ele>
        <time>2018-05-08T06:46:37.000Z</time>
      </trkpt>
      <trkpt lat="48.42353" lon="-4.53433">
        <ele>51.400001525879</ele>
        <time>2018-05-08T06:46:41.000Z</time>
      </trkpt>
      <trkpt lat="48.42361" lon="-4.53434">
        <ele>52.200000762939</ele>
        <time>2018-05-08T06:46:47.000Z</time>
      </trkpt>
      <trkpt lat="48.42362" lon="-4.53433">
        <ele>52.400001525879</ele>
        <time>2018-05-08T06:46:48.000Z</time>
      </trkpt>
      <trkpt lat="48.42374" lon="-4.53436">
        <ele>52.799999237061</ele>
        <time>2018-05-08T06:46:55.000Z</time>
      </trkpt>
      <trkpt lat="48.42378" lon="-4.5344">
        <ele>52.400001525879</ele>
        <time>2018-05-08T06:46:57.000Z</time>
      </trkpt>
      <trkpt lat="48.42397" lon="-4.5345">
        <ele>52</ele>
        <time>2018-05-08T06:47:02.000Z</time>
      </trkpt>
      <trkpt lat="48.42415" lon="-4.53456">
        <ele>52.599998474121</ele>
        <time>2018-05-08T06:47:05.000Z</time>
      </trkpt>
      <trkpt lat="48.42428" lon="-4.53459">
        <ele>53</ele>
        <time>2018-05-08T06:47:07.000Z</time>
      </trkpt>
      <trkpt lat="48.42444" lon="-4.53466">
        <ele>53.400001525879</ele>
        <time>2018-05-08T06:47:10.000Z</time>
      </trkpt>
      <trkpt lat="48.42455" lon="-4.53474">
        <ele>53.599998474121</ele>
        <time>2018-05-08T06:47:13.000Z</time>
      </trkpt>
      <trkpt lat="48.42469" lon="-4.53481">
        <ele>54.400001525879</ele>
        <time>2018-05-08T06:47:18.000Z</time>
      </trkpt>
      <trkpt lat="48.42479" lon="-4.53484">
        <ele>55.200000762939</ele>
        <time>2018-05-08T06:47:24.000Z</time>
      </trkpt>
      <trkpt lat="48.42488" lon="-4.53488">
        <ele>55.400001525879</ele>
        <time>2018-05-08T06:47:31.000Z</time>
      </trkpt>
      <trkpt lat="48.42492" lon="-4.53491">
        <ele>55.200000762939</ele>
        <time>2018-05-08T06:47:36.000Z</time>
      </trkpt>
      <trkpt lat="48.42497" lon="-4.53495">
        <ele>55</ele>
        <time>2018-05-08T06:47:40.000Z</time>
      </trkpt>
      <trkpt lat="48.42499" lon="-4.53499">
        <ele>54.599998474121</ele>
        <time>2018-05-08T06:47:42.000Z</time>
      </trkpt>
      <trkpt lat="48.42505" lon="-4.53525">
        <ele>50.599998474121</ele>
        <time>2018-05-08T06:47:47.000Z</time>
      </trkpt>
      <trkpt lat="48.42518" lon="-4.5357">
        <ele>47.400001525879</ele>
        <time>2018-05-08T06:47:53.000Z</time>
      </trkpt>
      <trkpt lat="48.42532" lon="-4.53619">
        <ele>45.200000762939</ele>
        <time>2018-05-08T06:47:59.000Z</time>
      </trkpt>
      <trkpt lat="48.4254" lon="-4.53642">
        <ele>47.400001525879</ele>
        <time>2018-05-08T06:48:02.000Z</time>
      </trkpt>
      <trkpt lat="48.42545" lon="-4.53659">
        <ele>49</ele>
        <time>2018-05-08T06:48:04.000Z</time>
      </trkpt>
      <trkpt lat="48.42552" lon="-4.53687">
        <ele>48.200000762939</ele>
        <time>2018-05-08T06:48:08.000Z</time>
      </trkpt>
      <trkpt lat="48.42556" lon="-4.53716">
        <ele>48</ele>
        <time>2018-05-08T06:48:12.000Z</time>
      </trkpt>
      <trkpt lat="48.42552" lon="-4.53736">
        <ele>49.200000762939</ele>
        <time>2018-05-08T06:48:16.000Z</time>
      </trkpt>
      <trkpt lat="48.42539" lon="-4.53733">
        <ele>49</ele>
        <time>2018-05-08T06:48:19.000Z</time>
      </trkpt>
      <trkpt lat="48.42527" lon="-4.53717">
        <ele>48</ele>
        <time>2018-05-08T06:48:22.000Z</time>
      </trkpt>
      <trkpt lat="48.42497" lon="-4.5367">
        <ele>48.200000762939</ele>
        <time>2018-05-08T06:48:29.000Z</time>
      </trkpt>
      <trkpt lat="48.42473" lon="-4.53638">
        <ele>48.799999237061</ele>
        <time>2018-05-08T06:48:34.000Z</time>
      </trkpt>
      <trkpt lat="48.4245" lon="-4.53598">
        <ele>49.799999237061</ele>
        <time>2018-05-08T06:48:40.000Z</time>
      </trkpt>
      <trkpt lat="48.42445" lon="-4.5359">
        <ele>48.799999237061</ele>
        <time>2018-05-08T06:48:41.000Z</time>
      </trkpt>
      <trkpt lat="48.4243" lon="-4.53551">
        <ele>44.599998474121</ele>
        <time>2018-05-08T06:48:46.000Z</time>
      </trkpt>
      <trkpt lat="48.42412" lon="-4.53528">
        <ele>44.200000762939</ele>
        <time>2018-05-08T06:48:50.000Z</time>
      </trkpt>
      <trkpt lat="48.42368" lon="-4.53504">
        <ele>47.599998474121</ele>
        <time>2018-05-08T06:48:57.000Z</time>
      </trkpt>
      <trkpt lat="48.42348" lon="-4.53497">
        <ele>46.799999237061</ele>
        <time>2018-05-08T06:49:00.000Z</time>
      </trkpt>
      <trkpt lat="48.42306" lon="-4.53495">
        <ele>47.400001525879</ele>
        <time>2018-05-08T06:49:05.000Z</time>
      </trkpt>
      <trkpt lat="48.42269" lon="-4.53495">
        <ele>44.400001525879</ele>
        <time>2018-05-08T06:49:09.000Z</time>
      </trkpt>
      <trkpt lat="48.42246" lon="-4.53478">
        <ele>43</ele>
        <time>2018-05-08T06:49:12.000Z</time>
      </trkpt>
      <trkpt lat="48.42225" lon="-4.53451">
        <ele>41</ele>
        <time>2018-05-08T06:49:15.000Z</time>
      </trkpt>
      <trkpt lat="48.42197" lon="-4.5343">
        <ele>41.200000762939</ele>
        <time>2018-05-08T06:49:19.000Z</time>
      </trkpt>
      <trkpt lat="48.42186" lon="-4.53421">
        <ele>40</ele>
        <time>2018-05-08T06:49:21.000Z</time>
      </trkpt>
      <trkpt lat="48.42176" lon="-4.53415">
        <ele>39.200000762939</ele>
        <time>2018-05-08T06:49:23.000Z</time>
      </trkpt>
      <trkpt lat="48.4216" lon="-4.53421">
        <ele>38.599998474121</ele>
        <time>2018-05-08T06:49:27.000Z</time>
      </trkpt>
      <trkpt lat="48.42157" lon="-4.53424">
        <ele>38.400001525879</ele>
        <time>2018-05-08T06:49:28.000Z</time>
      </trkpt>
      <trkpt lat="48.42153" lon="-4.53431">
        <ele>38.400001525879</ele>
        <time>2018-05-08T06:49:30.000Z</time>
      </trkpt>
      <trkpt lat="48.42149" lon="-4.5344">
        <ele>38.400001525879</ele>
        <time>2018-05-08T06:49:32.000Z</time>
      </trkpt>
      <trkpt lat="48.42138" lon="-4.5346">
        <ele>38.799999237061</ele>
        <time>2018-05-08T06:49:38.000Z</time>
      </trkpt>
      <trkpt lat="48.42131" lon="-4.53485">
        <ele>40.799999237061</ele>
        <time>2018-05-08T06:49:44.000Z</time>
      </trkpt>
      <trkpt lat="48.42122" lon="-4.53512">
        <ele>43</ele>
        <time>2018-05-08T06:49:51.000Z</time>
      </trkpt>
      <trkpt lat="48.42121" lon="-4.53515">
        <ele>43.200000762939</ele>
        <time>2018-05-08T06:49:52.000Z</time>
      </trkpt>
      <trkpt lat="48.42118" lon="-4.53538">
        <ele>44.400001525879</ele>
        <time>2018-05-08T06:49:58.000Z</time>
      </trkpt>
      <trkpt lat="48.42116" lon="-4.53557">
        <ele>45</ele>
        <time>2018-05-08T06:50:02.000Z</time>
      </trkpt>
      <trkpt lat="48.42112" lon="-4.5358">
        <ele>45.799999237061</ele>
        <time>2018-05-08T06:50:07.000Z</time>
      </trkpt>
      <trkpt lat="48.42108" lon="-4.53597">
        <ele>46.400001525879</ele>
        <time>2018-05-08T06:50:12.000Z</time>
      </trkpt>
      <trkpt lat="48.42105" lon="-4.53614">
        <ele>47</ele>
        <time>2018-05-08T06:50:17.000Z</time>
      </trkpt>
      <trkpt lat="48.42102" lon="-4.53634">
        <ele>47.599998474121</ele>
        <time>2018-05-08T06:50:23.000Z</time>
      </trkpt>
      <trkpt lat="48.42099" lon="-4.5365">
        <ele>48.200000762939</ele>
        <time>2018-05-08T06:50:28.000Z</time>
      </trkpt>
      <trkpt lat="48.421" lon="-4.53671">
        <ele>49</ele>
        <time>2018-05-08T06:50:35.000Z</time>
      </trkpt>
      <trkpt lat="48.42101" lon="-4.53684">
        <ele>49.400001525879</ele>
        <time>2018-05-08T06:50:39.000Z</time>
      </trkpt>
      <trkpt lat="48.42099" lon="-4.53707">
        <ele>50.400001525879</ele>
        <time>2018-05-08T06:50:47.000Z</time>
      </trkpt>
      <trkpt lat="48.42099" lon="-4.53724">
        <ele>51.400001525879</ele>
        <time>2018-05-08T06:50:53.000Z</time>
      </trkpt>
      <trkpt lat="48.42097" lon="-4.53748">
        <ele>53</ele>
        <time>2018-05-08T06:51:00.000Z</time>
      </trkpt>
      <trkpt lat="48.42095" lon="-4.53755">
        <ele>53.599998474121</ele>
        <time>2018-05-08T06:51:03.000Z</time>
      </trkpt>
      <trkpt lat="48.42092" lon="-4.53773">
        <ele>54.799999237061</ele>
        <time>2018-05-08T06:51:09.000Z</time>
      </trkpt>
      <trkpt lat="48.42084" lon="-4.5379">
        <ele>56.599998474121</ele>
        <time>2018-05-08T06:51:16.000Z</time>
      </trkpt>
      <trkpt lat="48.42076" lon="-4.53812">
        <ele>58.799999237061</ele>
        <time>2018-05-08T06:51:23.000Z</time>
      </trkpt>
      <trkpt lat="48.42071" lon="-4.53829">
        <ele>60.599998474121</ele>
        <time>2018-05-08T06:51:30.000Z</time>
      </trkpt>
      <trkpt lat="48.42062" lon="-4.53854">
        <ele>63</ele>
        <time>2018-05-08T06:51:37.000Z</time>
      </trkpt>
      <trkpt lat="48.4205" lon="-4.53883">
        <ele>66.599998474121</ele>
        <time>2018-05-08T06:51:44.000Z</time>
      </trkpt>
      <trkpt lat="48.42042" lon="-4.53901">
        <ele>69</ele>
        <time>2018-05-08T06:51:50.000Z</time>
      </trkpt>
      <trkpt lat="48.42041" lon="-4.53905">
        <ele>69.400001525879</ele>
        <time>2018-05-08T06:51:51.000Z</time>
      </trkpt>
      <trkpt lat="48.42036" lon="-4.53921">
        <ele>71.400001525879</ele>
        <time>2018-05-08T06:51:57.000Z</time>
      </trkpt>
      <trkpt lat="48.42038" lon="-4.53933">
        <ele>72.199996948242</ele>
        <time>2018-05-08T06:52:02.000Z</time>
      </trkpt>
      <trkpt lat="48.42037" lon="-4.53936">
        <ele>72.599998474121</ele>
        <time>2018-05-08T06:52:04.000Z</time>
      </trkpt>
      <trkpt lat="48.42041" lon="-4.53953">
        <ele>73</ele>
        <time>2018-05-08T06:52:10.000Z</time>
      </trkpt>
      <trkpt lat="48.42043" lon="-4.53965">
        <ele>72.599998474121</ele>
        <time>2018-05-08T06:52:15.000Z</time>
      </trkpt>
      <trkpt lat="48.42044" lon="-4.53972">
        <ele>72.599998474121</ele>
        <time>2018-05-08T06:52:18.000Z</time>
      </trkpt>
      <trkpt lat="48.4205" lon="-4.53981">
        <ele>71.800003051758</ele>
        <time>2018-05-08T06:52:23.000Z</time>
      </trkpt>
      <trkpt lat="48.42056" lon="-4.5399">
        <ele>71.199996948242</ele>
        <time>2018-05-08T06:52:30.000Z</time>
      </trkpt>
      <trkpt lat="48.42064" lon="-4.53998">
        <ele>71.199996948242</ele>
        <time>2018-05-08T06:52:36.000Z</time>
      </trkpt>
      <trkpt lat="48.42066" lon="-4.54">
        <ele>71.400001525879</ele>
        <time>2018-05-08T06:52:38.000Z</time>
      </trkpt>
      <trkpt lat="48.42069" lon="-4.54002">
        <ele>71.400001525879</ele>
        <time>2018-05-08T06:52:41.000Z</time>
      </trkpt>
      <trkpt lat="48.42073" lon="-4.54004">
        <ele>71.400001525879</ele>
        <time>2018-05-08T06:52:46.000Z</time>
      </trkpt>
      <trkpt lat="48.42082" lon="-4.54013">
        <ele>71.800003051758</ele>
        <time>2018-05-08T06:52:53.000Z</time>
      </trkpt>
      <trkpt lat="48.42084" lon="-4.54016">
        <ele>72</ele>
        <time>2018-05-08T06:52:54.000Z</time>
      </trkpt>
      <trkpt lat="48.42094" lon="-4.54042">
        <ele>73.400001525879</ele>
        <time>2018-05-08T06:53:01.000Z</time>
      </trkpt>
      <trkpt lat="48.42105" lon="-4.54062">
        <ele>74.599998474121</ele>
        <time>2018-05-08T06:53:07.000Z</time>
      </trkpt>
      <trkpt lat="48.42117" lon="-4.54088">
        <ele>75.800003051758</ele>
        <time>2018-05-08T06:53:14.000Z</time>
      </trkpt>
      <trkpt lat="48.42131" lon="-4.54132">
        <ele>76.199996948242</ele>
        <time>2018-05-08T06:53:23.000Z</time>
      </trkpt>
      <trkpt lat="48.42133" lon="-4.54165">
        <ele>77.199996948242</ele>
        <time>2018-05-08T06:53:29.000Z</time>
      </trkpt>
      <trkpt lat="48.42128" lon="-4.54203">
        <ele>78.800003051758</ele>
        <time>2018-05-08T06:53:36.000Z</time>
      </trkpt>
      <trkpt lat="48.42134" lon="-4.54209">
        <ele>78.599998474121</ele>
        <time>2018-05-08T06:53:40.000Z</time>
      </trkpt>
      <trkpt lat="48.42137" lon="-4.54208">
        <ele>78.400001525879</ele>
        <time>2018-05-08T06:53:41.000Z</time>
      </trkpt>
      <trkpt lat="48.42158" lon="-4.54191">
        <ele>76.400001525879</ele>
        <time>2018-05-08T06:53:46.000Z</time>
      </trkpt>
      <trkpt lat="48.42174" lon="-4.5418">
        <ele>74.800003051758</ele>
        <time>2018-05-08T06:53:49.000Z</time>
      </trkpt>
      <trkpt lat="48.42197" lon="-4.54177">
        <ele>73.199996948242</ele>
        <time>2018-05-08T06:53:53.000Z</time>
      </trkpt>
      <trkpt lat="48.422" lon="-4.5418">
        <ele>73.199996948242</ele>
        <time>2018-05-08T06:53:54.000Z</time>
      </trkpt>
      <trkpt lat="48.42215" lon="-4.54198">
        <ele>72.599998474121</ele>
        <time>2018-05-08T06:53:58.000Z</time>
      </trkpt>
      <trkpt lat="48.42246" lon="-4.54239">
        <ele>73</ele>
        <time>2018-05-08T06:54:06.000Z</time>
      </trkpt>
      <trkpt lat="48.42259" lon="-4.54256">
        <ele>73.400001525879</ele>
        <time>2018-05-08T06:54:09.000Z</time>
      </trkpt>
      <trkpt lat="48.42277" lon="-4.5428">
        <ele>74</ele>
        <time>2018-05-08T06:54:14.000Z</time>
      </trkpt>
      <trkpt lat="48.4229" lon="-4.54291">
        <ele>73.599998474121</ele>
        <time>2018-05-08T06:54:17.000Z</time>
      </trkpt>
      <trkpt lat="48.42314" lon="-4.54299">
        <ele>72.400001525879</ele>
        <time>2018-05-08T06:54:20.000Z</time>
      </trkpt>
      <trkpt lat="48.42327" lon="-4.543">
        <ele>71.400001525879</ele>
        <time>2018-05-08T06:54:22.000Z</time>
      </trkpt>
      <trkpt lat="48.42342" lon="-4.54301">
        <ele>70.400001525879</ele>
        <time>2018-05-08T06:54:24.000Z</time>
      </trkpt>
      <trkpt lat="48.4235" lon="-4.54299">
        <ele>69.800003051758</ele>
        <time>2018-05-08T06:54:27.000Z</time>
      </trkpt>
      <trkpt lat="48.4235" lon="-4.54299">
        <ele>69.800003051758</ele>
        <time>2018-05-08T06:54:28.000Z</time>
      </trkpt>
      <trkpt lat="48.42356" lon="-4.54327">
        <ele>71.599998474121</ele>
        <time>2018-05-08T06:54:46.000Z</time>
      </trkpt>
      <trkpt lat="48.42353" lon="-4.54321">
        <ele>71.199996948242</ele>
        <time>2018-05-08T06:54:51.000Z</time>
      </trkpt>
      <trkpt lat="48.42353" lon="-4.543">
        <ele>70</ele>
        <time>2018-05-08T06:54:55.000Z</time>
      </trkpt>
      <trkpt lat="48.42355" lon="-4.5428">
        <ele>68.800003051758</ele>
        <time>2018-05-08T06:54:59.000Z</time>
      </trkpt>
      <trkpt lat="48.42355" lon="-4.54268">
        <ele>68.599998474121</ele>
        <time>2018-05-08T06:55:02.000Z</time>
      </trkpt>
      <trkpt lat="48.42351" lon="-4.54251">
        <ele>67.800003051758</ele>
        <time>2018-05-08T06:55:07.000Z</time>
      </trkpt>
      <trkpt lat="48.42353" lon="-4.54253">
        <ele>68</ele>
        <time>2018-05-08T06:55:14.000Z</time>
      </trkpt>
      <trkpt lat="48.42354" lon="-4.54268">
        <ele>68.400001525879</ele>
        <time>2018-05-08T06:55:19.000Z</time>
      </trkpt>
      <trkpt lat="48.42353" lon="-4.54286">
        <ele>69.199996948242</ele>
        <time>2018-05-08T06:55:24.000Z</time>
      </trkpt>
      <trkpt lat="48.42353" lon="-4.54286">
        <ele>69.199996948242</ele>
        <time>2018-05-08T06:55:24.000Z</time>
      </trkpt>
      <trkpt lat="48.42352" lon="-4.5429">
        <ele>69.400001525879</ele>
        <time>2018-05-08T06:55:25.000Z</time>
      </trkpt>
      <trkpt lat="48.42351" lon="-4.54312">
        <ele>70.599998474121</ele>
        <time>2018-05-08T06:55:30.000Z</time>
      </trkpt>
      <trkpt lat="48.42355" lon="-4.54331">
        <ele>71.800003051758</ele>
        <time>2018-05-08T06:55:35.000Z</time>
      </trkpt>
      <trkpt lat="48.42362" lon="-4.54349">
        <ele>73</ele>
        <time>2018-05-08T06:55:41.000Z</time>
      </trkpt>
      <trkpt lat="48.42363" lon="-4.54359">
        <ele>73</ele>
        <time>2018-05-08T06:55:44.000Z</time>
      </trkpt>
      <trkpt lat="48.42352" lon="-4.54375">
        <ele>74</ele>
        <time>2018-05-08T06:55:50.000Z</time>
      </trkpt>
      <trkpt lat="48.42338" lon="-4.54386">
        <ele>75.400001525879</ele>
        <time>2018-05-08T06:55:57.000Z</time>
      </trkpt>
      <trkpt lat="48.42321" lon="-4.54396">
        <ele>77</ele>
        <time>2018-05-08T06:56:05.000Z</time>
      </trkpt>
      <trkpt lat="48.42298" lon="-4.54401">
        <ele>78.800003051758</ele>
        <time>2018-05-08T06:56:15.000Z</time>
      </trkpt>
      <trkpt lat="48.4228" lon="-4.54405">
        <ele>80.400001525879</ele>
        <time>2018-05-08T06:56:23.000Z</time>
      </trkpt>
      <trkpt lat="48.42261" lon="-4.54408">
        <ele>81.599998474121</ele>
        <time>2018-05-08T06:56:31.000Z</time>
      </trkpt>
      <trkpt lat="48.42241" lon="-4.54409">
        <ele>82</ele>
        <time>2018-05-08T06:56:38.000Z</time>
      </trkpt>
      <trkpt lat="48.42217" lon="-4.54408">
        <ele>82.800003051758</ele>
        <time>2018-05-08T06:56:45.000Z</time>
      </trkpt>
      <trkpt lat="48.42189" lon="-4.544">
        <ele>84</ele>
        <time>2018-05-08T06:56:52.000Z</time>
      </trkpt>
      <trkpt lat="48.42181" lon="-4.54401">
        <ele>84.400001525879</ele>
        <time>2018-05-08T06:56:54.000Z</time>
      </trkpt>
      <trkpt lat="48.42177" lon="-4.54419">
        <ele>84.800003051758</ele>
        <time>2018-05-08T06:56:58.000Z</time>
      </trkpt>
      <trkpt lat="48.42181" lon="-4.54429">
        <ele>84.800003051758</ele>
        <time>2018-05-08T06:57:00.000Z</time>
      </trkpt>
      <trkpt lat="48.4219" lon="-4.54469">
        <ele>85.199996948242</ele>
        <time>2018-05-08T06:57:07.000Z</time>
      </trkpt>
      <trkpt lat="48.42191" lon="-4.54481">
        <ele>85.599998474121</ele>
        <time>2018-05-08T06:57:09.000Z</time>
      </trkpt>
      <trkpt lat="48.42195" lon="-4.54507">
        <ele>86</ele>
        <time>2018-05-08T06:57:13.000Z</time>
      </trkpt>
      <trkpt lat="48.42198" lon="-4.54534">
        <ele>86.400001525879</ele>
        <time>2018-05-08T06:57:17.000Z</time>
      </trkpt>
      <trkpt lat="48.42199" lon="-4.54548">
        <ele>86.800003051758</ele>
        <time>2018-05-08T06:57:19.000Z</time>
      </trkpt>
      <trkpt lat="48.42201" lon="-4.54567">
        <ele>87.199996948242</ele>
        <time>2018-05-08T06:57:22.000Z</time>
      </trkpt>
      <trkpt lat="48.42208" lon="-4.54608">
        <ele>87.800003051758</ele>
        <time>2018-05-08T06:57:28.000Z</time>
      </trkpt>
      <trkpt lat="48.42209" lon="-4.54622">
        <ele>88</ele>
        <time>2018-05-08T06:57:30.000Z</time>
      </trkpt>
      <trkpt lat="48.42223" lon="-4.54663">
        <ele>87.400001525879</ele>
        <time>2018-05-08T06:57:36.000Z</time>
      </trkpt>
      <trkpt lat="48.42243" lon="-4.54679">
        <ele>86.400001525879</ele>
        <time>2018-05-08T06:57:40.000Z</time>
      </trkpt>
      <trkpt lat="48.42257" lon="-4.54684">
        <ele>85.599998474121</ele>
        <time>2018-05-08T06:57:43.000Z</time>
      </trkpt>
      <trkpt lat="48.4228" lon="-4.54695">
        <ele>84.400001525879</ele>
        <time>2018-05-08T06:57:48.000Z</time>
      </trkpt>
      <trkpt lat="48.42301" lon="-4.5471">
        <ele>84</ele>
        <time>2018-05-08T06:57:52.000Z</time>
      </trkpt>
      <trkpt lat="48.4231" lon="-4.54719">
        <ele>84</ele>
        <time>2018-05-08T06:57:54.000Z</time>
      </trkpt>
      <trkpt lat="48.42329" lon="-4.54742">
        <ele>84.199996948242</ele>
        <time>2018-05-08T06:57:58.000Z</time>
      </trkpt>
      <trkpt lat="48.42345" lon="-4.54763">
        <ele>84.400001525879</ele>
        <time>2018-05-08T06:58:02.000Z</time>
      </trkpt>
      <trkpt lat="48.42361" lon="-4.54773">
        <ele>84.599998474121</ele>
        <time>2018-05-08T06:58:07.000Z</time>
      </trkpt>
      <trkpt lat="48.42362" lon="-4.54776">
        <ele>84.800003051758</ele>
        <time>2018-05-08T06:58:08.000Z</time>
      </trkpt>
      <trkpt lat="48.42369" lon="-4.54804">
        <ele>85.400001525879</ele>
        <time>2018-05-08T06:58:14.000Z</time>
      </trkpt>
      <trkpt lat="48.42374" lon="-4.54828">
        <ele>86</ele>
        <time>2018-05-08T06:58:19.000Z</time>
      </trkpt>
      <trkpt lat="48.42376" lon="-4.54846">
        <ele>86.599998474121</ele>
        <time>2018-05-08T06:58:23.000Z</time>
      </trkpt>
      <trkpt lat="48.42378" lon="-4.54859">
        <ele>87.400001525879</ele>
        <time>2018-05-08T06:58:26.000Z</time>
      </trkpt>
      <trkpt lat="48.42387" lon="-4.54866">
        <ele>87.800003051758</ele>
        <time>2018-05-08T06:58:30.000Z</time>
      </trkpt>
      <trkpt lat="48.42412" lon="-4.54859">
        <ele>88.199996948242</ele>
        <time>2018-05-08T06:58:36.000Z</time>
      </trkpt>
      <trkpt lat="48.42425" lon="-4.54858">
        <ele>88.400001525879</ele>
        <time>2018-05-08T06:58:39.000Z</time>
      </trkpt>
      <trkpt lat="48.42436" lon="-4.54878">
        <ele>89.199996948242</ele>
        <time>2018-05-08T06:58:43.000Z</time>
      </trkpt>
      <trkpt lat="48.42436" lon="-4.54883">
        <ele>89.400001525879</ele>
        <time>2018-05-08T06:58:44.000Z</time>
      </trkpt>
      <trkpt lat="48.4244" lon="-4.54921">
        <ele>90.400001525879</ele>
        <time>2018-05-08T06:58:51.000Z</time>
      </trkpt>
      <trkpt lat="48.42444" lon="-4.5495">
        <ele>91.199996948242</ele>
        <time>2018-05-08T06:58:57.000Z</time>
      </trkpt>
      <trkpt lat="48.42445" lon="-4.54973">
        <ele>92.400001525879</ele>
        <time>2018-05-08T06:59:01.000Z</time>
      </trkpt>
      <trkpt lat="48.42449" lon="-4.54999">
        <ele>93.800003051758</ele>
        <time>2018-05-08T06:59:06.000Z</time>
      </trkpt>
      <trkpt lat="48.4245" lon="-4.55029">
        <ele>94.800003051758</ele>
        <time>2018-05-08T06:59:10.000Z</time>
      </trkpt>
      <trkpt lat="48.42452" lon="-4.55062">
        <ele>95.199996948242</ele>
        <time>2018-05-08T06:59:15.000Z</time>
      </trkpt>
      <trkpt lat="48.42455" lon="-4.55077">
        <ele>95.199996948242</ele>
        <time>2018-05-08T06:59:18.000Z</time>
      </trkpt>
      <trkpt lat="48.42465" lon="-4.55078">
        <ele>95.199996948242</ele>
        <time>2018-05-08T06:59:21.000Z</time>
      </trkpt>
      <trkpt lat="48.42502" lon="-4.55079">
        <ele>94.400001525879</ele>
        <time>2018-05-08T06:59:29.000Z</time>
      </trkpt>
      <trkpt lat="48.42518" lon="-4.55067">
        <ele>94</ele>
        <time>2018-05-08T06:59:33.000Z</time>
      </trkpt>
      <trkpt lat="48.42524" lon="-4.55055">
        <ele>93.800003051758</ele>
        <time>2018-05-08T06:59:35.000Z</time>
      </trkpt>
      <trkpt lat="48.42528" lon="-4.55025">
        <ele>93.599998474121</ele>
        <time>2018-05-08T06:59:39.000Z</time>
      </trkpt>
      <trkpt lat="48.42532" lon="-4.54949">
        <ele>92.599998474121</ele>
        <time>2018-05-08T06:59:49.000Z</time>
      </trkpt>
      <trkpt lat="48.42536" lon="-4.54891">
        <ele>91</ele>
        <time>2018-05-08T06:59:56.000Z</time>
      </trkpt>
      <trkpt lat="48.42538" lon="-4.54845">
        <ele>90</ele>
        <time>2018-05-08T07:00:01.000Z</time>
      </trkpt>
      <trkpt lat="48.42535" lon="-4.5481">
        <ele>89</ele>
        <time>2018-05-08T07:00:05.000Z</time>
      </trkpt>
      <trkpt lat="48.42544" lon="-4.54805">
        <ele>89.199996948242</ele>
        <time>2018-05-08T07:00:07.000Z</time>
      </trkpt>
      <trkpt lat="48.42554" lon="-4.54812">
        <ele>89.599998474121</ele>
        <time>2018-05-08T07:00:09.000Z</time>
      </trkpt>
      <trkpt lat="48.42561" lon="-4.54814">
        <ele>89.800003051758</ele>
        <time>2018-05-08T07:00:10.000Z</time>
      </trkpt>
      <trkpt lat="48.4261" lon="-4.54821">
        <ele>90.400001525879</ele>
        <time>2018-05-08T07:00:17.000Z</time>
      </trkpt>
      <trkpt lat="48.42642" lon="-4.54821">
        <ele>90</ele>
        <time>2018-05-08T07:00:22.000Z</time>
      </trkpt>
      <trkpt lat="48.42666" lon="-4.54821">
        <ele>89.599998474121</ele>
        <time>2018-05-08T07:00:26.000Z</time>
      </trkpt>
      <trkpt lat="48.42715" lon="-4.54826">
        <ele>88</ele>
        <time>2018-05-08T07:00:34.000Z</time>
      </trkpt>
      <trkpt lat="48.42763" lon="-4.54829">
        <ele>86.199996948242</ele>
        <time>2018-05-08T07:00:41.000Z</time>
      </trkpt>
      <trkpt lat="48.42804" lon="-4.54832">
        <ele>85.599998474121</ele>
        <time>2018-05-08T07:00:47.000Z</time>
      </trkpt>
      <trkpt lat="48.42818" lon="-4.5481">
        <ele>85</ele>
        <time>2018-05-08T07:00:51.000Z</time>
      </trkpt>
      <trkpt lat="48.42818" lon="-4.548">
        <ele>84.800003051758</ele>
        <time>2018-05-08T07:00:52.000Z</time>
      </trkpt>
      <trkpt lat="48.42822" lon="-4.54736">
        <ele>82.599998474121</ele>
        <time>2018-05-08T07:00:58.000Z</time>
      </trkpt>
      <trkpt lat="48.42826" lon="-4.54665">
        <ele>79.800003051758</ele>
        <time>2018-05-08T07:01:03.000Z</time>
      </trkpt>
      <trkpt lat="48.42835" lon="-4.54576">
        <ele>76.400001525879</ele>
        <time>2018-05-08T07:01:09.000Z</time>
      </trkpt>
      <trkpt lat="48.42848" lon="-4.54484">
        <ele>72.599998474121</ele>
        <time>2018-05-08T07:01:15.000Z</time>
      </trkpt>
      <trkpt lat="48.42867" lon="-4.54432">
        <ele>71.199996948242</ele>
        <time>2018-05-08T07:01:19.000Z</time>
      </trkpt>
      <trkpt lat="48.42889" lon="-4.54407">
        <ele>71.400001525879</ele>
        <time>2018-05-08T07:01:22.000Z</time>
      </trkpt>
      <trkpt lat="48.42911" lon="-4.54399">
        <ele>72</ele>
        <time>2018-05-08T07:01:25.000Z</time>
      </trkpt>
      <trkpt lat="48.42919" lon="-4.54402">
        <ele>72.400001525879</ele>
        <time>2018-05-08T07:01:26.000Z</time>
      </trkpt>
      <trkpt lat="48.42955" lon="-4.54421">
        <ele>73.599998474121</ele>
        <time>2018-05-08T07:01:31.000Z</time>
      </trkpt>
      <trkpt lat="48.42986" lon="-4.54426">
        <ele>72.599998474121</ele>
        <time>2018-05-08T07:01:35.000Z</time>
      </trkpt>
      <trkpt lat="48.43008" lon="-4.54398">
        <ele>72.599998474121</ele>
        <time>2018-05-08T07:01:38.000Z</time>
      </trkpt>
      <trkpt lat="48.43013" lon="-4.54387">
        <ele>72.599998474121</ele>
        <time>2018-05-08T07:01:39.000Z</time>
      </trkpt>
      <trkpt lat="48.43042" lon="-4.54337">
        <ele>71.400001525879</ele>
        <time>2018-05-08T07:01:44.000Z</time>
      </trkpt>
      <trkpt lat="48.43056" lon="-4.54298">
        <ele>70.800003051758</ele>
        <time>2018-05-08T07:01:47.000Z</time>
      </trkpt>
      <trkpt lat="48.43075" lon="-4.54244">
        <ele>68.199996948242</ele>
        <time>2018-05-08T07:01:51.000Z</time>
      </trkpt>
      <trkpt lat="48.43094" lon="-4.54215">
        <ele>65.800003051758</ele>
        <time>2018-05-08T07:01:54.000Z</time>
      </trkpt>
      <trkpt lat="48.43111" lon="-4.54196">
        <ele>65</ele>
        <time>2018-05-08T07:01:57.000Z</time>
      </trkpt>
      <trkpt lat="48.43122" lon="-4.54168">
        <ele>66.199996948242</ele>
        <time>2018-05-08T07:02:01.000Z</time>
      </trkpt>
      <trkpt lat="48.43138" lon="-4.54161">
        <ele>66.800003051758</ele>
        <time>2018-05-08T07:02:06.000Z</time>
      </trkpt>
      <trkpt lat="48.4315" lon="-4.54175">
        <ele>65.599998474121</ele>
        <time>2018-05-08T07:02:10.000Z</time>
      </trkpt>
      <trkpt lat="48.43156" lon="-4.54185">
        <ele>64.800003051758</ele>
        <time>2018-05-08T07:02:13.000Z</time>
      </trkpt>
      <trkpt lat="48.4317" lon="-4.54196">
        <ele>63.599998474121</ele>
        <time>2018-05-08T07:02:18.000Z</time>
      </trkpt>
      <trkpt lat="48.43183" lon="-4.54209">
        <ele>63.200000762939</ele>
        <time>2018-05-08T07:02:24.000Z</time>
      </trkpt>
      <trkpt lat="48.43193" lon="-4.54217">
        <ele>64.400001525879</ele>
        <time>2018-05-08T07:02:30.000Z</time>
      </trkpt>
      <trkpt lat="48.43196" lon="-4.5422">
        <ele>64.599998474121</ele>
        <time>2018-05-08T07:02:32.000Z</time>
      </trkpt>
      <trkpt lat="48.43204" lon="-4.54225">
        <ele>65.599998474121</ele>
        <time>2018-05-08T07:02:37.000Z</time>
      </trkpt>
      <trkpt lat="48.43205" lon="-4.54226">
        <ele>65.800003051758</ele>
        <time>2018-05-08T07:02:38.000Z</time>
      </trkpt>
      <trkpt lat="48.43215" lon="-4.54232">
        <ele>67</ele>
        <time>2018-05-08T07:02:45.000Z</time>
      </trkpt>
      <trkpt lat="48.43227" lon="-4.5424">
        <ele>68.400001525879</ele>
        <time>2018-05-08T07:02:52.000Z</time>
      </trkpt>
      <trkpt lat="48.43232" lon="-4.54245">
        <ele>68.400001525879</ele>
        <time>2018-05-08T07:02:56.000Z</time>
      </trkpt>
      <trkpt lat="48.43242" lon="-4.54252">
        <ele>68.599998474121</ele>
        <time>2018-05-08T07:03:02.000Z</time>
      </trkpt>
      <trkpt lat="48.43258" lon="-4.54261">
        <ele>69</ele>
        <time>2018-05-08T07:03:09.000Z</time>
      </trkpt>
      <trkpt lat="48.43266" lon="-4.54266">
        <ele>69.199996948242</ele>
        <time>2018-05-08T07:03:14.000Z</time>
      </trkpt>
      <trkpt lat="48.4328" lon="-4.54276">
        <ele>69.599998474121</ele>
        <time>2018-05-08T07:03:21.000Z</time>
      </trkpt>
      <trkpt lat="48.43288" lon="-4.54277">
        <ele>70.199996948242</ele>
        <time>2018-05-08T07:03:24.000Z</time>
      </trkpt>
      <trkpt lat="48.43301" lon="-4.54274">
        <ele>71.400001525879</ele>
        <time>2018-05-08T07:03:33.000Z</time>
      </trkpt>
      <trkpt lat="48.4331" lon="-4.54271">
        <ele>72.199996948242</ele>
        <time>2018-05-08T07:03:38.000Z</time>
      </trkpt>
      <trkpt lat="48.43317" lon="-4.5427">
        <ele>72.800003051758</ele>
        <time>2018-05-08T07:03:42.000Z</time>
      </trkpt>
      <trkpt lat="48.43332" lon="-4.54268">
        <ele>74.199996948242</ele>
        <time>2018-05-08T07:03:50.000Z</time>
      </trkpt>
      <trkpt lat="48.43334" lon="-4.54268">
        <ele>74.400001525879</ele>
        <time>2018-05-08T07:03:51.000Z</time>
      </trkpt>
      <trkpt lat="48.43348" lon="-4.54271">
        <ele>75.400001525879</ele>
        <time>2018-05-08T07:03:57.000Z</time>
      </trkpt>
      <trkpt lat="48.43357" lon="-4.54276">
        <ele>75.599998474121</ele>
        <time>2018-05-08T07:04:01.000Z</time>
      </trkpt>
      <trkpt lat="48.43372" lon="-4.54289">
        <ele>76.800003051758</ele>
        <time>2018-05-08T07:04:07.000Z</time>
      </trkpt>
      <trkpt lat="48.43392" lon="-4.54305">
        <ele>78</ele>
        <time>2018-05-08T07:04:13.000Z</time>
      </trkpt>
      <trkpt lat="48.43404" lon="-4.54319">
        <ele>78.599998474121</ele>
        <time>2018-05-08T07:04:18.000Z</time>
      </trkpt>
      <trkpt lat="48.43414" lon="-4.54327">
        <ele>80</ele>
        <time>2018-05-08T07:04:22.000Z</time>
      </trkpt>
      <trkpt lat="48.43419" lon="-4.54332">
        <ele>80.800003051758</ele>
        <time>2018-05-08T07:04:24.000Z</time>
      </trkpt>
      <trkpt lat="48.43431" lon="-4.54371">
        <ele>82.599998474121</ele>
        <time>2018-05-08T07:04:30.000Z</time>
      </trkpt>
      <trkpt lat="48.43447" lon="-4.5441">
        <ele>81.400001525879</ele>
        <time>2018-05-08T07:04:35.000Z</time>
      </trkpt>
      <trkpt lat="48.4345" lon="-4.54418">
        <ele>81</ele>
        <time>2018-05-08T07:04:36.000Z</time>
      </trkpt>
      <trkpt lat="48.43476" lon="-4.5446">
        <ele>81</ele>
        <time>2018-05-08T07:04:42.000Z</time>
      </trkpt>
      <trkpt lat="48.43496" lon="-4.54499">
        <ele>81</ele>
        <time>2018-05-08T07:04:48.000Z</time>
      </trkpt>
      <trkpt lat="48.43526" lon="-4.54544">
        <ele>82</ele>
        <time>2018-05-08T07:04:55.000Z</time>
      </trkpt>
      <trkpt lat="48.43553" lon="-4.54574">
        <ele>81.400001525879</ele>
        <time>2018-05-08T07:05:00.000Z</time>
      </trkpt>
      <trkpt lat="48.43558" lon="-4.54581">
        <ele>81.400001525879</ele>
        <time>2018-05-08T07:05:01.000Z</time>
      </trkpt>
      <trkpt lat="48.43606" lon="-4.54624">
        <ele>82.199996948242</ele>
        <time>2018-05-08T07:05:09.000Z</time>
      </trkpt>
      <trkpt lat="48.43646" lon="-4.54656">
        <ele>83</ele>
        <time>2018-05-08T07:05:16.000Z</time>
      </trkpt>
      <trkpt lat="48.43683" lon="-4.54688">
        <ele>81.400001525879</ele>
        <time>2018-05-08T07:05:23.000Z</time>
      </trkpt>
      <trkpt lat="48.43708" lon="-4.54714">
        <ele>81.400001525879</ele>
        <time>2018-05-08T07:05:29.000Z</time>
      </trkpt>
      <trkpt lat="48.43723" lon="-4.54734">
        <ele>82.199996948242</ele>
        <time>2018-05-08T07:05:33.000Z</time>
      </trkpt>
      <trkpt lat="48.43737" lon="-4.54766">
        <ele>82.400001525879</ele>
        <time>2018-05-08T07:05:39.000Z</time>
      </trkpt>
      <trkpt lat="48.43747" lon="-4.54791">
        <ele>82.800003051758</ele>
        <time>2018-05-08T07:05:43.000Z</time>
      </trkpt>
      <trkpt lat="48.43756" lon="-4.54824">
        <ele>83.400001525879</ele>
        <time>2018-05-08T07:05:48.000Z</time>
      </trkpt>
      <trkpt lat="48.43767" lon="-4.54887">
        <ele>84</ele>
        <time>2018-05-08T07:05:57.000Z</time>
      </trkpt>
      <trkpt lat="48.43774" lon="-4.5493">
        <ele>83.800003051758</ele>
        <time>2018-05-08T07:06:03.000Z</time>
      </trkpt>
      <trkpt lat="48.43777" lon="-4.5495">
        <ele>83.800003051758</ele>
        <time>2018-05-08T07:06:06.000Z</time>
      </trkpt>
      <trkpt lat="48.43777" lon="-4.54978">
        <ele>84</ele>
        <time>2018-05-08T07:06:10.000Z</time>
      </trkpt>
      <trkpt lat="48.43777" lon="-4.54993">
        <ele>84.199996948242</ele>
        <time>2018-05-08T07:06:12.000Z</time>
      </trkpt>
      <trkpt lat="48.43767" lon="-4.5507">
        <ele>85.800003051758</ele>
        <time>2018-05-08T07:06:22.000Z</time>
      </trkpt>
      <trkpt lat="48.43755" lon="-4.5514">
        <ele>87.199996948242</ele>
        <time>2018-05-08T07:06:31.000Z</time>
      </trkpt>
      <trkpt lat="48.43744" lon="-4.55205">
        <ele>87.400001525879</ele>
        <time>2018-05-08T07:06:39.000Z</time>
      </trkpt>
      <trkpt lat="48.43731" lon="-4.55278">
        <ele>87.400001525879</ele>
        <time>2018-05-08T07:06:47.000Z</time>
      </trkpt>
      <trkpt lat="48.43718" lon="-4.55358">
        <ele>87.199996948242</ele>
        <time>2018-05-08T07:06:55.000Z</time>
      </trkpt>
      <trkpt lat="48.43703" lon="-4.55424">
        <ele>88.199996948242</ele>
        <time>2018-05-08T07:07:02.000Z</time>
      </trkpt>
      <trkpt lat="48.43682" lon="-4.55508">
        <ele>88.400001525879</ele>
        <time>2018-05-08T07:07:11.000Z</time>
      </trkpt>
      <trkpt lat="48.43662" lon="-4.55561">
        <ele>88</ele>
        <time>2018-05-08T07:07:17.000Z</time>
      </trkpt>
      <trkpt lat="48.43627" lon="-4.55636">
        <ele>88.400001525879</ele>
        <time>2018-05-08T07:07:26.000Z</time>
      </trkpt>
      <trkpt lat="48.43596" lon="-4.557">
        <ele>89.800003051758</ele>
        <time>2018-05-08T07:07:34.000Z</time>
      </trkpt>
      <trkpt lat="48.4358" lon="-4.55729">
        <ele>89.599998474121</ele>
        <time>2018-05-08T07:07:38.000Z</time>
      </trkpt>
      <trkpt lat="48.43546" lon="-4.55784">
        <ele>88.800003051758</ele>
        <time>2018-05-08T07:07:45.000Z</time>
      </trkpt>
      <trkpt lat="48.43528" lon="-4.55813">
        <ele>89.400001525879</ele>
        <time>2018-05-08T07:07:49.000Z</time>
      </trkpt>
      <trkpt lat="48.43525" lon="-4.5581">
        <ele>89.199996948242</ele>
        <time>2018-05-08T07:07:52.000Z</time>
      </trkpt>
      <trkpt lat="48.43531" lon="-4.55803">
        <ele>89</ele>
        <time>2018-05-08T07:07:55.000Z</time>
      </trkpt>
      <trkpt lat="48.43556" lon="-4.55803">
        <ele>89.599998474121</ele>
        <time>2018-05-08T07:08:00.000Z</time>
      </trkpt>
      <trkpt lat="48.4358" lon="-4.55822">
        <ele>90.199996948242</ele>
        <time>2018-05-08T07:08:05.000Z</time>
      </trkpt>
      <trkpt lat="48.43602" lon="-4.55838">
        <ele>90</ele>
        <time>2018-05-08T07:08:10.000Z</time>
      </trkpt>
      <trkpt lat="48.43613" lon="-4.55848">
        <ele>90</ele>
        <time>2018-05-08T07:08:13.000Z</time>
      </trkpt>
      <trkpt lat="48.43616" lon="-4.55844">
        <ele>90</ele>
        <time>2018-05-08T07:08:17.000Z</time>
      </trkpt>
      <trkpt lat="48.43611" lon="-4.55843">
        <ele>90</ele>
        <time>2018-05-08T07:08:19.000Z</time>
      </trkpt>
      <trkpt lat="48.4358" lon="-4.55823">
        <ele>90.199996948242</ele>
        <time>2018-05-08T07:08:27.000Z</time>
      </trkpt>
      <trkpt lat="48.43569" lon="-4.55816">
        <ele>90.400001525879</ele>
        <time>2018-05-08T07:08:31.000Z</time>
      </trkpt>
      <trkpt lat="48.43566" lon="-4.55814">
        <ele>90.199996948242</ele>
        <time>2018-05-08T07:08:35.000Z</time>
      </trkpt>
      <trkpt lat="48.43559" lon="-4.55811">
        <ele>90</ele>
        <time>2018-05-08T07:08:54.000Z</time>
      </trkpt>
      <trkpt lat="48.43562" lon="-4.55811">
        <ele>90</ele>
        <time>2018-05-08T07:08:57.000Z</time>
      </trkpt>
      <trkpt lat="48.43564" lon="-4.5581">
        <ele>90</ele>
        <time>2018-05-08T07:08:59.000Z</time>
      </trkpt>
      <trkpt lat="48.43564" lon="-4.5581">
        <ele>90</ele>
        <time>2018-05-08T07:09:02.000Z</time>
      </trkpt>
      <trkpt lat="48.4356" lon="-4.55827">
        <ele>90.400001525879</ele>
        <time>2018-05-08T07:09:48.000Z</time>
      </trkpt>
      <trkpt lat="48.43554" lon="-4.55875">
        <ele>90.599998474121</ele>
        <time>2018-05-08T07:09:54.000Z</time>
      </trkpt>
      <trkpt lat="48.4355" lon="-4.55904">
        <ele>91</ele>
        <time>2018-05-08T07:09:57.000Z</time>
      </trkpt>
      <trkpt lat="48.43552" lon="-4.55978">
        <ele>91.199996948242</ele>
        <time>2018-05-08T07:10:05.000Z</time>
      </trkpt>
      <trkpt lat="48.43551" lon="-4.56027">
        <ele>91</ele>
        <time>2018-05-08T07:10:11.000Z</time>
      </trkpt>
      <trkpt lat="48.43551" lon="-4.56034">
        <ele>91</ele>
        <time>2018-05-08T07:10:12.000Z</time>
      </trkpt>
      <trkpt lat="48.43545" lon="-4.56065">
        <ele>91</ele>
        <time>2018-05-08T07:10:16.000Z</time>
      </trkpt>
      <trkpt lat="48.43539" lon="-4.56099">
        <ele>91</ele>
        <time>2018-05-08T07:10:20.000Z</time>
      </trkpt>
      <trkpt lat="48.43534" lon="-4.56166">
        <ele>91.800003051758</ele>
        <time>2018-05-08T07:10:27.000Z</time>
      </trkpt>
      <trkpt lat="48.43534" lon="-4.56175">
        <ele>92</ele>
        <time>2018-05-08T07:10:28.000Z</time>
      </trkpt>
      <trkpt lat="48.43538" lon="-4.56219">
        <ele>92.400001525879</ele>
        <time>2018-05-08T07:10:33.000Z</time>
      </trkpt>
      <trkpt lat="48.43547" lon="-4.56255">
        <ele>93</ele>
        <time>2018-05-08T07:10:37.000Z</time>
      </trkpt>
      <trkpt lat="48.43556" lon="-4.56298">
        <ele>93.400001525879</ele>
        <time>2018-05-08T07:10:42.000Z</time>
      </trkpt>
      <trkpt lat="48.4355" lon="-4.5637">
        <ele>93.400001525879</ele>
        <time>2018-05-08T07:10:50.000Z</time>
      </trkpt>
      <trkpt lat="48.43546" lon="-4.56425">
        <ele>92.599998474121</ele>
        <time>2018-05-08T07:10:56.000Z</time>
      </trkpt>
      <trkpt lat="48.43543" lon="-4.56464">
        <ele>91.800003051758</ele>
        <time>2018-05-08T07:11:00.000Z</time>
      </trkpt>
      <trkpt lat="48.43543" lon="-4.56507">
        <ele>91.400001525879</ele>
        <time>2018-05-08T07:11:05.000Z</time>
      </trkpt>
      <trkpt lat="48.43553" lon="-4.56543">
        <ele>91.400001525879</ele>
        <time>2018-05-08T07:11:10.000Z</time>
      </trkpt>
      <trkpt lat="48.43556" lon="-4.56568">
        <ele>91.400001525879</ele>
        <time>2018-05-08T07:11:13.000Z</time>
      </trkpt>
      <trkpt lat="48.43562" lon="-4.56631">
        <ele>91.800003051758</ele>
        <time>2018-05-08T07:11:20.000Z</time>
      </trkpt>
      <trkpt lat="48.43568" lon="-4.56699">
        <ele>92.599998474121</ele>
        <time>2018-05-08T07:11:27.000Z</time>
      </trkpt>
      <trkpt lat="48.43569" lon="-4.56709">
        <ele>92.599998474121</ele>
        <time>2018-05-08T07:11:28.000Z</time>
      </trkpt>
      <trkpt lat="48.43574" lon="-4.56755">
        <ele>92.599998474121</ele>
        <time>2018-05-08T07:11:33.000Z</time>
      </trkpt>
      <trkpt lat="48.43568" lon="-4.56781">
        <ele>92.599998474121</ele>
        <time>2018-05-08T07:11:37.000Z</time>
      </trkpt>
      <trkpt lat="48.43552" lon="-4.56792">
        <ele>92.400001525879</ele>
        <time>2018-05-08T07:11:40.000Z</time>
      </trkpt>
      <trkpt lat="48.43524" lon="-4.56813">
        <ele>91.800003051758</ele>
        <time>2018-05-08T07:11:45.000Z</time>
      </trkpt>
      <trkpt lat="48.43515" lon="-4.56835">
        <ele>91.400001525879</ele>
        <time>2018-05-08T07:11:48.000Z</time>
      </trkpt>
      <trkpt lat="48.43506" lon="-4.56892">
        <ele>90.400001525879</ele>
        <time>2018-05-08T07:11:54.000Z</time>
      </trkpt>
      <trkpt lat="48.43506" lon="-4.56901">
        <ele>90.199996948242</ele>
        <time>2018-05-08T07:11:55.000Z</time>
      </trkpt>
      <trkpt lat="48.43508" lon="-4.5692">
        <ele>89.800003051758</ele>
        <time>2018-05-08T07:11:57.000Z</time>
      </trkpt>
      <trkpt lat="48.4352" lon="-4.56977">
        <ele>89</ele>
        <time>2018-05-08T07:12:03.000Z</time>
      </trkpt>
      <trkpt lat="48.43529" lon="-4.5704">
        <ele>89.199996948242</ele>
        <time>2018-05-08T07:12:10.000Z</time>
      </trkpt>
      <trkpt lat="48.43537" lon="-4.57092">
        <ele>89.199996948242</ele>
        <time>2018-05-08T07:12:16.000Z</time>
      </trkpt>
      <trkpt lat="48.43539" lon="-4.57145">
        <ele>89.800003051758</ele>
        <time>2018-05-08T07:12:22.000Z</time>
      </trkpt>
      <trkpt lat="48.43539" lon="-4.57193">
        <ele>89.800003051758</ele>
        <time>2018-05-08T07:12:27.000Z</time>
      </trkpt>
      <trkpt lat="48.43531" lon="-4.57214">
        <ele>89.400001525879</ele>
        <time>2018-05-08T07:12:31.000Z</time>
      </trkpt>
      <trkpt lat="48.43526" lon="-4.57213">
        <ele>89.199996948242</ele>
        <time>2018-05-08T07:12:32.000Z</time>
      </trkpt>
      <trkpt lat="48.43488" lon="-4.572">
        <ele>88.400001525879</ele>
        <time>2018-05-08T07:12:38.000Z</time>
      </trkpt>
      <trkpt lat="48.43472" lon="-4.57195">
        <ele>88</ele>
        <time>2018-05-08T07:12:40.000Z</time>
      </trkpt>
      <trkpt lat="48.43447" lon="-4.57165">
        <ele>87.599998474121</ele>
        <time>2018-05-08T07:12:44.000Z</time>
      </trkpt>
      <trkpt lat="48.43436" lon="-4.57135">
        <ele>87.800003051758</ele>
        <time>2018-05-08T07:12:47.000Z</time>
      </trkpt>
      <trkpt lat="48.43429" lon="-4.57116">
        <ele>88</ele>
        <time>2018-05-08T07:12:49.000Z</time>
      </trkpt>
      <trkpt lat="48.43417" lon="-4.57069">
        <ele>88.599998474121</ele>
        <time>2018-05-08T07:12:54.000Z</time>
      </trkpt>
      <trkpt lat="48.43408" lon="-4.57015">
        <ele>88.400001525879</ele>
        <time>2018-05-08T07:13:00.000Z</time>
      </trkpt>
      <trkpt lat="48.43395" lon="-4.56957">
        <ele>88.800003051758</ele>
        <time>2018-05-08T07:13:07.000Z</time>
      </trkpt>
      <trkpt lat="48.4339" lon="-4.56935">
        <ele>89.199996948242</ele>
        <time>2018-05-08T07:13:10.000Z</time>
      </trkpt>
      <trkpt lat="48.43374" lon="-4.56923">
        <ele>89.400001525879</ele>
        <time>2018-05-08T07:13:14.000Z</time>
      </trkpt>
      <trkpt lat="48.4337" lon="-4.56928">
        <ele>89.199996948242</ele>
        <time>2018-05-08T07:13:15.000Z</time>
      </trkpt>
      <trkpt lat="48.43338" lon="-4.56953">
        <ele>89</ele>
        <time>2018-05-08T07:13:21.000Z</time>
      </trkpt>
      <trkpt lat="48.43326" lon="-4.56957">
        <ele>88.800003051758</ele>
        <time>2018-05-08T07:13:23.000Z</time>
      </trkpt>
      <trkpt lat="48.43284" lon="-4.5697">
        <ele>88.400001525879</ele>
        <time>2018-05-08T07:13:29.000Z</time>
      </trkpt>
      <trkpt lat="48.4321" lon="-4.56983">
        <ele>87.599998474121</ele>
        <time>2018-05-08T07:13:38.000Z</time>
      </trkpt>
      <trkpt lat="48.43202" lon="-4.56984">
        <ele>87.400001525879</ele>
        <time>2018-05-08T07:13:39.000Z</time>
      </trkpt>
      <trkpt lat="48.4318" lon="-4.56994">
        <ele>87</ele>
        <time>2018-05-08T07:13:42.000Z</time>
      </trkpt>
      <trkpt lat="48.43152" lon="-4.56992">
        <ele>87.400001525879</ele>
        <time>2018-05-08T07:13:46.000Z</time>
      </trkpt>
      <trkpt lat="48.43131" lon="-4.56989">
        <ele>87.400001525879</ele>
        <time>2018-05-08T07:13:49.000Z</time>
      </trkpt>
      <trkpt lat="48.43071" lon="-4.56996">
        <ele>87</ele>
        <time>2018-05-08T07:13:58.000Z</time>
      </trkpt>
      <trkpt lat="48.43014" lon="-4.57001">
        <ele>87</ele>
        <time>2018-05-08T07:14:07.000Z</time>
      </trkpt>
      <trkpt lat="48.42995" lon="-4.57004">
        <ele>87</ele>
        <time>2018-05-08T07:14:10.000Z</time>
      </trkpt>
      <trkpt lat="48.42962" lon="-4.56994">
        <ele>86.800003051758</ele>
        <time>2018-05-08T07:14:15.000Z</time>
      </trkpt>
      <trkpt lat="48.42956" lon="-4.56989">
        <ele>86.400001525879</ele>
        <time>2018-05-08T07:14:16.000Z</time>
      </trkpt>
      <trkpt lat="48.42923" lon="-4.56962">
        <ele>85.400001525879</ele>
        <time>2018-05-08T07:14:21.000Z</time>
      </trkpt>
      <trkpt lat="48.42891" lon="-4.56956">
        <ele>85.199996948242</ele>
        <time>2018-05-08T07:14:25.000Z</time>
      </trkpt>
      <trkpt lat="48.42868" lon="-4.56969">
        <ele>85.599998474121</ele>
        <time>2018-05-08T07:14:28.000Z</time>
      </trkpt>
      <trkpt lat="48.4284" lon="-4.56983">
        <ele>86</ele>
        <time>2018-05-08T07:14:32.000Z</time>
      </trkpt>
      <trkpt lat="48.42806" lon="-4.57004">
        <ele>85.800003051758</ele>
        <time>2018-05-08T07:14:37.000Z</time>
      </trkpt>
      <trkpt lat="48.4276" lon="-4.57043">
        <ele>86</ele>
        <time>2018-05-08T07:14:45.000Z</time>
      </trkpt>
      <trkpt lat="48.42714" lon="-4.57079">
        <ele>85.400001525879</ele>
        <time>2018-05-08T07:14:53.000Z</time>
      </trkpt>
      <trkpt lat="48.42675" lon="-4.5709">
        <ele>84.800003051758</ele>
        <time>2018-05-08T07:14:59.000Z</time>
      </trkpt>
      <trkpt lat="48.42653" lon="-4.57111">
        <ele>85.199996948242</ele>
        <time>2018-05-08T07:15:03.000Z</time>
      </trkpt>
      <trkpt lat="48.4265" lon="-4.57119">
        <ele>85.400001525879</ele>
        <time>2018-05-08T07:15:04.000Z</time>
      </trkpt>
      <trkpt lat="48.42643" lon="-4.57137">
        <ele>85.400001525879</ele>
        <time>2018-05-08T07:15:06.000Z</time>
      </trkpt>
      <trkpt lat="48.42618" lon="-4.5717">
        <ele>85.800003051758</ele>
        <time>2018-05-08T07:15:11.000Z</time>
      </trkpt>
      <trkpt lat="48.42591" lon="-4.5718">
        <ele>86</ele>
        <time>2018-05-08T07:15:15.000Z</time>
      </trkpt>
      <trkpt lat="48.42575" lon="-4.57159">
        <ele>85.800003051758</ele>
        <time>2018-05-08T07:15:18.000Z</time>
      </trkpt>
      <trkpt lat="48.4257" lon="-4.57149">
        <ele>85.599998474121</ele>
        <time>2018-05-08T07:15:19.000Z</time>
      </trkpt>
      <trkpt lat="48.42562" lon="-4.57128">
        <ele>85.599998474121</ele>
        <time>2018-05-08T07:15:21.000Z</time>
      </trkpt>
      <trkpt lat="48.42549" lon="-4.57066">
        <ele>84.800003051758</ele>
        <time>2018-05-08T07:15:26.000Z</time>
      </trkpt>
      <trkpt lat="48.42537" lon="-4.57053">
        <ele>84.400001525879</ele>
        <time>2018-05-08T07:15:28.000Z</time>
      </trkpt>
      <trkpt lat="48.42528" lon="-4.57067">
        <ele>84.599998474121</ele>
        <time>2018-05-08T07:15:30.000Z</time>
      </trkpt>
      <trkpt lat="48.42525" lon="-4.57076">
        <ele>84.599998474121</ele>
        <time>2018-05-08T07:15:31.000Z</time>
      </trkpt>
      <trkpt lat="48.42514" lon="-4.57108">
        <ele>84.800003051758</ele>
        <time>2018-05-08T07:15:34.000Z</time>
      </trkpt>
      <trkpt lat="48.42491" lon="-4.57165">
        <ele>84.400001525879</ele>
        <time>2018-05-08T07:15:40.000Z</time>
      </trkpt>
      <trkpt lat="48.42474" lon="-4.5721">
        <ele>83.800003051758</ele>
        <time>2018-05-08T07:15:45.000Z</time>
      </trkpt>
      <trkpt lat="48.42465" lon="-4.57239">
        <ele>82.800003051758</ele>
        <time>2018-05-08T07:15:48.000Z</time>
      </trkpt>
      <trkpt lat="48.42461" lon="-4.57265">
        <ele>82.199996948242</ele>
        <time>2018-05-08T07:15:51.000Z</time>
      </trkpt>
      <trkpt lat="48.4245" lon="-4.57307">
        <ele>80.800003051758</ele>
        <time>2018-05-08T07:15:56.000Z</time>
      </trkpt>
      <trkpt lat="48.42438" lon="-4.57371">
        <ele>79.199996948242</ele>
        <time>2018-05-08T07:16:02.000Z</time>
      </trkpt>
      <trkpt lat="48.42437" lon="-4.57381">
        <ele>79</ele>
        <time>2018-05-08T07:16:03.000Z</time>
      </trkpt>
      <trkpt lat="48.42434" lon="-4.57401">
        <ele>78.599998474121</ele>
        <time>2018-05-08T07:16:05.000Z</time>
      </trkpt>
      <trkpt lat="48.42419" lon="-4.57482">
        <ele>77</ele>
        <time>2018-05-08T07:16:13.000Z</time>
      </trkpt>
      <trkpt lat="48.4241" lon="-4.57533">
        <ele>75</ele>
        <time>2018-05-08T07:16:18.000Z</time>
      </trkpt>
      <trkpt lat="48.424" lon="-4.57608">
        <ele>73.400001525879</ele>
        <time>2018-05-08T07:16:25.000Z</time>
      </trkpt>
      <trkpt lat="48.42391" lon="-4.57694">
        <ele>71</ele>
        <time>2018-05-08T07:16:33.000Z</time>
      </trkpt>
      <trkpt lat="48.42385" lon="-4.57756">
        <ele>68.800003051758</ele>
        <time>2018-05-08T07:16:38.000Z</time>
      </trkpt>
      <trkpt lat="48.42385" lon="-4.57825">
        <ele>67.599998474121</ele>
        <time>2018-05-08T07:16:44.000Z</time>
      </trkpt>
      <trkpt lat="48.42387" lon="-4.57888">
        <ele>66.199996948242</ele>
        <time>2018-05-08T07:16:50.000Z</time>
      </trkpt>
      <trkpt lat="48.42388" lon="-4.57974">
        <ele>65</ele>
        <time>2018-05-08T07:16:58.000Z</time>
      </trkpt>
      <trkpt lat="48.42389" lon="-4.57985">
        <ele>64.800003051758</ele>
        <time>2018-05-08T07:16:59.000Z</time>
      </trkpt>
      <trkpt lat="48.42384" lon="-4.58056">
        <ele>63.799999237061</ele>
        <time>2018-05-08T07:17:06.000Z</time>
      </trkpt>
      <trkpt lat="48.42369" lon="-4.58134">
        <ele>60.400001525879</ele>
        <time>2018-05-08T07:17:14.000Z</time>
      </trkpt>
      <trkpt lat="48.42352" lon="-4.58192">
        <ele>59.200000762939</ele>
        <time>2018-05-08T07:17:20.000Z</time>
      </trkpt>
      <trkpt lat="48.4233" lon="-4.58244">
        <ele>58.200000762939</ele>
        <time>2018-05-08T07:17:26.000Z</time>
      </trkpt>
      <trkpt lat="48.42296" lon="-4.58319">
        <ele>57.400001525879</ele>
        <time>2018-05-08T07:17:35.000Z</time>
      </trkpt>
      <trkpt lat="48.42284" lon="-4.58345">
        <ele>57.400001525879</ele>
        <time>2018-05-08T07:17:38.000Z</time>
      </trkpt>
      <trkpt lat="48.42272" lon="-4.58369">
        <ele>57.400001525879</ele>
        <time>2018-05-08T07:17:41.000Z</time>
      </trkpt>
      <trkpt lat="48.42253" lon="-4.58418">
        <ele>56.200000762939</ele>
        <time>2018-05-08T07:17:47.000Z</time>
      </trkpt>
      <trkpt lat="48.42248" lon="-4.58437">
        <ele>55.799999237061</ele>
        <time>2018-05-08T07:17:49.000Z</time>
      </trkpt>
      <trkpt lat="48.42235" lon="-4.58505">
        <ele>54</ele>
        <time>2018-05-08T07:17:55.000Z</time>
      </trkpt>
      <trkpt lat="48.42227" lon="-4.58579">
        <ele>52.799999237061</ele>
        <time>2018-05-08T07:18:01.000Z</time>
      </trkpt>
      <trkpt lat="48.42225" lon="-4.58604">
        <ele>52.599998474121</ele>
        <time>2018-05-08T07:18:03.000Z</time>
      </trkpt>
      <trkpt lat="48.42225" lon="-4.58625">
        <ele>52.400001525879</ele>
        <time>2018-05-08T07:18:05.000Z</time>
      </trkpt>
      <trkpt lat="48.42229" lon="-4.58657">
        <ele>52</ele>
        <time>2018-05-08T07:18:08.000Z</time>
      </trkpt>
      <trkpt lat="48.42236" lon="-4.58701">
        <ele>51.200000762939</ele>
        <time>2018-05-08T07:18:12.000Z</time>
      </trkpt>
      <trkpt lat="48.42242" lon="-4.58723">
        <ele>51.400001525879</ele>
        <time>2018-05-08T07:18:14.000Z</time>
      </trkpt>
      <trkpt lat="48.42262" lon="-4.58783">
        <ele>52.799999237061</ele>
        <time>2018-05-08T07:18:20.000Z</time>
      </trkpt>
      <trkpt lat="48.42284" lon="-4.5884">
        <ele>52.400001525879</ele>
        <time>2018-05-08T07:18:26.000Z</time>
      </trkpt>
      <trkpt lat="48.42288" lon="-4.58849">
        <ele>52.200000762939</ele>
        <time>2018-05-08T07:18:27.000Z</time>
      </trkpt>
      <trkpt lat="48.4231" lon="-4.58906">
        <ele>50.599998474121</ele>
        <time>2018-05-08T07:18:33.000Z</time>
      </trkpt>
      <trkpt lat="48.42335" lon="-4.58967">
        <ele>50.200000762939</ele>
        <time>2018-05-08T07:18:39.000Z</time>
      </trkpt>
      <trkpt lat="48.42347" lon="-4.59037">
        <ele>50.799999237061</ele>
        <time>2018-05-08T07:18:45.000Z</time>
      </trkpt>
      <trkpt lat="48.42354" lon="-4.59079">
        <ele>50.200000762939</ele>
        <time>2018-05-08T07:18:49.000Z</time>
      </trkpt>
      <trkpt lat="48.42364" lon="-4.59139">
        <ele>49.200000762939</ele>
        <time>2018-05-08T07:18:55.000Z</time>
      </trkpt>
      <trkpt lat="48.4237" lon="-4.59188">
        <ele>48.400001525879</ele>
        <time>2018-05-08T07:19:00.000Z</time>
      </trkpt>
      <trkpt lat="48.42373" lon="-4.59208">
        <ele>48.400001525879</ele>
        <time>2018-05-08T07:19:02.000Z</time>
      </trkpt>
      <trkpt lat="48.42385" lon="-4.59278">
        <ele>48.200000762939</ele>
        <time>2018-05-08T07:19:09.000Z</time>
      </trkpt>
      <trkpt lat="48.42387" lon="-4.59297">
        <ele>48.400001525879</ele>
        <time>2018-05-08T07:19:11.000Z</time>
      </trkpt>
      <trkpt lat="48.42386" lon="-4.59318">
        <ele>48.200000762939</ele>
        <time>2018-05-08T07:19:15.000Z</time>
      </trkpt>
      <trkpt lat="48.42388" lon="-4.59331">
        <ele>48.200000762939</ele>
        <time>2018-05-08T07:19:17.000Z</time>
      </trkpt>
      <trkpt lat="48.42393" lon="-4.59345">
        <ele>47.599998474121</ele>
        <time>2018-05-08T07:19:19.000Z</time>
      </trkpt>
      <trkpt lat="48.42399" lon="-4.59369">
        <ele>46.599998474121</ele>
        <time>2018-05-08T07:19:22.000Z</time>
      </trkpt>
      <trkpt lat="48.42405" lon="-4.59384">
        <ele>46.200000762939</ele>
        <time>2018-05-08T07:19:24.000Z</time>
      </trkpt>
      <trkpt lat="48.42419" lon="-4.59416">
        <ele>45.599998474121</ele>
        <time>2018-05-08T07:19:28.000Z</time>
      </trkpt>
      <trkpt lat="48.42429" lon="-4.59448">
        <ele>45</ele>
        <time>2018-05-08T07:19:32.000Z</time>
      </trkpt>
      <trkpt lat="48.42435" lon="-4.59472">
        <ele>44.799999237061</ele>
        <time>2018-05-08T07:19:35.000Z</time>
      </trkpt>
      <trkpt lat="48.42453" lon="-4.59528">
        <ele>44.200000762939</ele>
        <time>2018-05-08T07:19:41.000Z</time>
      </trkpt>
      <trkpt lat="48.4247" lon="-4.59587">
        <ele>42.799999237061</ele>
        <time>2018-05-08T07:19:47.000Z</time>
      </trkpt>
      <trkpt lat="48.42486" lon="-4.59634">
        <ele>42.200000762939</ele>
        <time>2018-05-08T07:19:52.000Z</time>
      </trkpt>
      <trkpt lat="48.42512" lon="-4.59705">
        <ele>41.799999237061</ele>
        <time>2018-05-08T07:19:59.000Z</time>
      </trkpt>
      <trkpt lat="48.42531" lon="-4.5976">
        <ele>39.200000762939</ele>
        <time>2018-05-08T07:20:05.000Z</time>
      </trkpt>
      <trkpt lat="48.42551" lon="-4.5985">
        <ele>34.599998474121</ele>
        <time>2018-05-08T07:20:14.000Z</time>
      </trkpt>
      <trkpt lat="48.42568" lon="-4.59937">
        <ele>33.799999237061</ele>
        <time>2018-05-08T07:20:22.000Z</time>
      </trkpt>
      <trkpt lat="48.42581" lon="-4.6">
        <ele>34</ele>
        <time>2018-05-08T07:20:28.000Z</time>
      </trkpt>
      <trkpt lat="48.42597" lon="-4.60083">
        <ele>35</ele>
        <time>2018-05-08T07:20:36.000Z</time>
      </trkpt>
      <trkpt lat="48.42599" lon="-4.60092">
        <ele>35</ele>
        <time>2018-05-08T07:20:37.000Z</time>
      </trkpt>
      <trkpt lat="48.4261" lon="-4.60151">
        <ele>34.400001525879</ele>
        <time>2018-05-08T07:20:43.000Z</time>
      </trkpt>
      <trkpt lat="48.42621" lon="-4.6021">
        <ele>33.799999237061</ele>
        <time>2018-05-08T07:20:49.000Z</time>
      </trkpt>
      <trkpt lat="48.4263" lon="-4.60277">
        <ele>35.599998474121</ele>
        <time>2018-05-08T07:20:56.000Z</time>
      </trkpt>
      <trkpt lat="48.42638" lon="-4.60317">
        <ele>35.599998474121</ele>
        <time>2018-05-08T07:21:01.000Z</time>
      </trkpt>
      <trkpt lat="48.42645" lon="-4.60323">
        <ele>35.400001525879</ele>
        <time>2018-05-08T07:21:05.000Z</time>
      </trkpt>
      <trkpt lat="48.4265" lon="-4.60316">
        <ele>35.400001525879</ele>
        <time>2018-05-08T07:21:07.000Z</time>
      </trkpt>
      <trkpt lat="48.42663" lon="-4.60275">
        <ele>35.200000762939</ele>
        <time>2018-05-08T07:21:13.000Z</time>
      </trkpt>
      <trkpt lat="48.42687" lon="-4.60218">
        <ele>34.799999237061</ele>
        <time>2018-05-08T07:21:20.000Z</time>
      </trkpt>
      <trkpt lat="48.42717" lon="-4.60147">
        <ele>34.799999237061</ele>
        <time>2018-05-08T07:21:28.000Z</time>
      </trkpt>
      <trkpt lat="48.42752" lon="-4.60069">
        <ele>35.400001525879</ele>
        <time>2018-05-08T07:21:37.000Z</time>
      </trkpt>
      <trkpt lat="48.42776" lon="-4.60006">
        <ele>36.200000762939</ele>
        <time>2018-05-08T07:21:44.000Z</time>
      </trkpt>
      <trkpt lat="48.42779" lon="-4.59996">
        <ele>36.200000762939</ele>
        <time>2018-05-08T07:21:45.000Z</time>
      </trkpt>
      <trkpt lat="48.42781" lon="-4.59981">
        <ele>36.200000762939</ele>
        <time>2018-05-08T07:21:47.000Z</time>
      </trkpt>
      <trkpt lat="48.42788" lon="-4.59979">
        <ele>36.200000762939</ele>
        <time>2018-05-08T07:21:51.000Z</time>
      </trkpt>
      <trkpt lat="48.42789" lon="-4.59994">
        <ele>36.200000762939</ele>
        <time>2018-05-08T07:21:54.000Z</time>
      </trkpt>
      <trkpt lat="48.42794" lon="-4.59996">
        <ele>36.400001525879</ele>
        <time>2018-05-08T07:21:56.000Z</time>
      </trkpt>
      <trkpt lat="48.42799" lon="-4.5998">
        <ele>36.400001525879</ele>
        <time>2018-05-08T07:21:59.000Z</time>
      </trkpt>
      <trkpt lat="48.428" lon="-4.59973">
        <ele>36.400001525879</ele>
        <time>2018-05-08T07:22:00.000Z</time>
      </trkpt>
      <trkpt lat="48.42804" lon="-4.5994">
        <ele>36.599998474121</ele>
        <time>2018-05-08T07:22:04.000Z</time>
      </trkpt>
      <trkpt lat="48.42817" lon="-4.59911">
        <ele>37.200000762939</ele>
        <time>2018-05-08T07:22:08.000Z</time>
      </trkpt>
      <trkpt lat="48.42835" lon="-4.59906">
        <ele>37.400001525879</ele>
        <time>2018-05-08T07:22:11.000Z</time>
      </trkpt>
      <trkpt lat="48.42852" lon="-4.5992">
        <ele>37.400001525879</ele>
        <time>2018-05-08T07:22:14.000Z</time>
      </trkpt>
      <trkpt lat="48.42858" lon="-4.59938">
        <ele>37.400001525879</ele>
        <time>2018-05-08T07:22:16.000Z</time>
      </trkpt>
      <trkpt lat="48.42874" lon="-4.59979">
        <ele>36.599998474121</ele>
        <time>2018-05-08T07:22:21.000Z</time>
      </trkpt>
      <trkpt lat="48.42894" lon="-4.60007">
        <ele>36.599998474121</ele>
        <time>2018-05-08T07:22:26.000Z</time>
      </trkpt>
      <trkpt lat="48.42912" lon="-4.60026">
        <ele>37.200000762939</ele>
        <time>2018-05-08T07:22:31.000Z</time>
      </trkpt>
      <trkpt lat="48.42922" lon="-4.60022">
        <ele>37.599998474121</ele>
        <time>2018-05-08T07:22:33.000Z</time>
      </trkpt>
      <trkpt lat="48.42948" lon="-4.60018">
        <ele>38.799999237061</ele>
        <time>2018-05-08T07:22:38.000Z</time>
      </trkpt>
      <trkpt lat="48.4296" lon="-4.60021">
        <ele>38.599998474121</ele>
        <time>2018-05-08T07:22:40.000Z</time>
      </trkpt>
      <trkpt lat="48.42982" lon="-4.60024">
        <ele>38.599998474121</ele>
        <time>2018-05-08T07:22:44.000Z</time>
      </trkpt>
      <trkpt lat="48.43038" lon="-4.60028">
        <ele>39</ele>
        <time>2018-05-08T07:22:54.000Z</time>
      </trkpt>
      <trkpt lat="48.43044" lon="-4.60027">
        <ele>39.200000762939</ele>
        <time>2018-05-08T07:22:55.000Z</time>
      </trkpt>
      <trkpt lat="48.43071" lon="-4.6002">
        <ele>40.599998474121</ele>
        <time>2018-05-08T07:23:00.000Z</time>
      </trkpt>
      <trkpt lat="48.43092" lon="-4.60015">
        <ele>41.400001525879</ele>
        <time>2018-05-08T07:23:04.000Z</time>
      </trkpt>
      <trkpt lat="48.43107" lon="-4.60008">
        <ele>42.200000762939</ele>
        <time>2018-05-08T07:23:07.000Z</time>
      </trkpt>
      <trkpt lat="48.43141" lon="-4.59996">
        <ele>43.400001525879</ele>
        <time>2018-05-08T07:23:14.000Z</time>
      </trkpt>
      <trkpt lat="48.43149" lon="-4.59991">
        <ele>43.799999237061</ele>
        <time>2018-05-08T07:23:16.000Z</time>
      </trkpt>
      <trkpt lat="48.43149" lon="-4.59991">
        <ele>43.799999237061</ele>
        <time>2018-05-08T07:23:16.000Z</time>
      </trkpt>
      <trkpt lat="48.43174" lon="-4.59973">
        <ele>45.200000762939</ele>
        <time>2018-05-08T07:23:22.000Z</time>
      </trkpt>
      <trkpt lat="48.43209" lon="-4.59951">
        <ele>47</ele>
        <time>2018-05-08T07:23:30.000Z</time>
      </trkpt>
      <trkpt lat="48.43214" lon="-4.59949">
        <ele>47.200000762939</ele>
        <time>2018-05-08T07:23:31.000Z</time>
      </trkpt>
      <trkpt lat="48.43236" lon="-4.59948">
        <ele>48</ele>
        <time>2018-05-08T07:23:36.000Z</time>
      </trkpt>
      <trkpt lat="48.43254" lon="-4.59963">
        <ele>48.400001525879</ele>
        <time>2018-05-08T07:23:43.000Z</time>
      </trkpt>
      <trkpt lat="48.43257" lon="-4.59965">
        <ele>48.400001525879</ele>
        <time>2018-05-08T07:23:44.000Z</time>
      </trkpt>
      <trkpt lat="48.43278" lon="-4.59982">
        <ele>48.799999237061</ele>
        <time>2018-05-08T07:23:51.000Z</time>
      </trkpt>
      <trkpt lat="48.43297" lon="-4.59992">
        <ele>49.599998474121</ele>
        <time>2018-05-08T07:23:57.000Z</time>
      </trkpt>
      <trkpt lat="48.43319" lon="-4.60002">
        <ele>50.599998474121</ele>
        <time>2018-05-08T07:24:04.000Z</time>
      </trkpt>
      <trkpt lat="48.43335" lon="-4.60009">
        <ele>51.400001525879</ele>
        <time>2018-05-08T07:24:09.000Z</time>
      </trkpt>
      <trkpt lat="48.4335" lon="-4.60015">
        <ele>52.200000762939</ele>
        <time>2018-05-08T07:24:14.000Z</time>
      </trkpt>
      <trkpt lat="48.43371" lon="-4.60019">
        <ele>53.200000762939</ele>
        <time>2018-05-08T07:24:21.000Z</time>
      </trkpt>
      <trkpt lat="48.43386" lon="-4.60021">
        <ele>53.599998474121</ele>
        <time>2018-05-08T07:24:26.000Z</time>
      </trkpt>
      <trkpt lat="48.4341" lon="-4.60023">
        <ele>54.400001525879</ele>
        <time>2018-05-08T07:24:33.000Z</time>
      </trkpt>
      <trkpt lat="48.43429" lon="-4.60024">
        <ele>55.200000762939</ele>
        <time>2018-05-08T07:24:39.000Z</time>
      </trkpt>
      <trkpt lat="48.43461" lon="-4.60027">
        <ele>56.799999237061</ele>
        <time>2018-05-08T07:24:48.000Z</time>
      </trkpt>
      <trkpt lat="48.43486" lon="-4.60032">
        <ele>58.200000762939</ele>
        <time>2018-05-08T07:24:55.000Z</time>
      </trkpt>
      <trkpt lat="48.43511" lon="-4.60035">
        <ele>59.599998474121</ele>
        <time>2018-05-08T07:25:02.000Z</time>
      </trkpt>
      <trkpt lat="48.43539" lon="-4.60036">
        <ele>61.200000762939</ele>
        <time>2018-05-08T07:25:11.000Z</time>
      </trkpt>
      <trkpt lat="48.43566" lon="-4.6004">
        <ele>62.400001525879</ele>
        <time>2018-05-08T07:25:19.000Z</time>
      </trkpt>
      <trkpt lat="48.43587" lon="-4.60043">
        <ele>63.400001525879</ele>
        <time>2018-05-08T07:25:25.000Z</time>
      </trkpt>
      <trkpt lat="48.43617" lon="-4.60045">
        <ele>65</ele>
        <time>2018-05-08T07:25:33.000Z</time>
      </trkpt>
      <trkpt lat="48.43645" lon="-4.60047">
        <ele>66.599998474121</ele>
        <time>2018-05-08T07:25:41.000Z</time>
      </trkpt>
      <trkpt lat="48.43675" lon="-4.60055">
        <ele>68.400001525879</ele>
        <time>2018-05-08T07:25:49.000Z</time>
      </trkpt>
      <trkpt lat="48.43697" lon="-4.60056">
        <ele>69.599998474121</ele>
        <time>2018-05-08T07:25:55.000Z</time>
      </trkpt>
      <trkpt lat="48.43716" lon="-4.60057">
        <ele>70.800003051758</ele>
        <time>2018-05-08T07:26:01.000Z</time>
      </trkpt>
      <trkpt lat="48.43728" lon="-4.60053">
        <ele>71.599998474121</ele>
        <time>2018-05-08T07:26:05.000Z</time>
      </trkpt>
      <trkpt lat="48.43747" lon="-4.60057">
        <ele>72.599998474121</ele>
        <time>2018-05-08T07:26:10.000Z</time>
      </trkpt>
      <trkpt lat="48.43768" lon="-4.60065">
        <ele>73</ele>
        <time>2018-05-08T07:26:16.000Z</time>
      </trkpt>
      <trkpt lat="48.43782" lon="-4.60057">
        <ele>73.800003051758</ele>
        <time>2018-05-08T07:26:20.000Z</time>
      </trkpt>
      <trkpt lat="48.43797" lon="-4.6004">
        <ele>75</ele>
        <time>2018-05-08T07:26:25.000Z</time>
      </trkpt>
      <trkpt lat="48.43797" lon="-4.60018">
        <ele>75.800003051758</ele>
        <time>2018-05-08T07:26:30.000Z</time>
      </trkpt>
      <trkpt lat="48.43795" lon="-4.59999">
        <ele>76.199996948242</ele>
        <time>2018-05-08T07:26:34.000Z</time>
      </trkpt>
      <trkpt lat="48.43801" lon="-4.59981">
        <ele>76.800003051758</ele>
        <time>2018-05-08T07:26:39.000Z</time>
      </trkpt>
      <trkpt lat="48.4381" lon="-4.59963">
        <ele>77.599998474121</ele>
        <time>2018-05-08T07:26:44.000Z</time>
      </trkpt>
      <trkpt lat="48.43822" lon="-4.59966">
        <ele>78.199996948242</ele>
        <time>2018-05-08T07:26:48.000Z</time>
      </trkpt>
      <trkpt lat="48.43842" lon="-4.59989">
        <ele>78.400001525879</ele>
        <time>2018-05-08T07:26:55.000Z</time>
      </trkpt>
      <trkpt lat="48.43862" lon="-4.60012">
        <ele>77.800003051758</ele>
        <time>2018-05-08T07:27:01.000Z</time>
      </trkpt>
      <trkpt lat="48.43873" lon="-4.60024">
        <ele>77.400001525879</ele>
        <time>2018-05-08T07:27:04.000Z</time>
      </trkpt>
      <trkpt lat="48.43907" lon="-4.60035">
        <ele>77</ele>
        <time>2018-05-08T07:27:12.000Z</time>
      </trkpt>
      <trkpt lat="48.43953" lon="-4.60054">
        <ele>77.599998474121</ele>
        <time>2018-05-08T07:27:23.000Z</time>
      </trkpt>
      <trkpt lat="48.43976" lon="-4.60063">
        <ele>78.199996948242</ele>
        <time>2018-05-08T07:27:29.000Z</time>
      </trkpt>
      <trkpt lat="48.44004" lon="-4.60066">
        <ele>79.400001525879</ele>
        <time>2018-05-08T07:27:36.000Z</time>
      </trkpt>
      <trkpt lat="48.44029" lon="-4.60069">
        <ele>80.199996948242</ele>
        <time>2018-05-08T07:27:42.000Z</time>
      </trkpt>
      <trkpt lat="48.44055" lon="-4.60073">
        <ele>80.400001525879</ele>
        <time>2018-05-08T07:27:48.000Z</time>
      </trkpt>
      <trkpt lat="48.4406" lon="-4.60073">
        <ele>80.599998474121</ele>
        <time>2018-05-08T07:27:49.000Z</time>
      </trkpt>
      <trkpt lat="48.441" lon="-4.60081">
        <ele>81</ele>
        <time>2018-05-08T07:27:58.000Z</time>
      </trkpt>
      <trkpt lat="48.44123" lon="-4.60083">
        <ele>80.800003051758</ele>
        <time>2018-05-08T07:28:03.000Z</time>
      </trkpt>
      <trkpt lat="48.44142" lon="-4.60071">
        <ele>80.400001525879</ele>
        <time>2018-05-08T07:28:08.000Z</time>
      </trkpt>
      <trkpt lat="48.44144" lon="-4.60065">
        <ele>80.400001525879</ele>
        <time>2018-05-08T07:28:09.000Z</time>
      </trkpt>
      <trkpt lat="48.44149" lon="-4.60054">
        <ele>80.400001525879</ele>
        <time>2018-05-08T07:28:11.000Z</time>
      </trkpt>
      <trkpt lat="48.44153" lon="-4.6003">
        <ele>80.400001525879</ele>
        <time>2018-05-08T07:28:15.000Z</time>
      </trkpt>
      <trkpt lat="48.44154" lon="-4.60025">
        <ele>80.400001525879</ele>
        <time>2018-05-08T07:28:16.000Z</time>
      </trkpt>
      <trkpt lat="48.44154" lon="-4.60008">
        <ele>80.599998474121</ele>
        <time>2018-05-08T07:28:19.000Z</time>
      </trkpt>
      <trkpt lat="48.44156" lon="-4.59971">
        <ele>81</ele>
        <time>2018-05-08T07:28:25.000Z</time>
      </trkpt>
      <trkpt lat="48.44157" lon="-4.5993">
        <ele>81</ele>
        <time>2018-05-08T07:28:31.000Z</time>
      </trkpt>
      <trkpt lat="48.44159" lon="-4.59896">
        <ele>80.599998474121</ele>
        <time>2018-05-08T07:28:36.000Z</time>
      </trkpt>
      <trkpt lat="48.4416" lon="-4.59852">
        <ele>79.800003051758</ele>
        <time>2018-05-08T07:28:42.000Z</time>
      </trkpt>
      <trkpt lat="48.4416" lon="-4.59821">
        <ele>79.199996948242</ele>
        <time>2018-05-08T07:28:46.000Z</time>
      </trkpt>
      <trkpt lat="48.44161" lon="-4.59792">
        <ele>78.599998474121</ele>
        <time>2018-05-08T07:28:50.000Z</time>
      </trkpt>
      <trkpt lat="48.44162" lon="-4.59733">
        <ele>78.400001525879</ele>
        <time>2018-05-08T07:28:58.000Z</time>
      </trkpt>
      <trkpt lat="48.44162" lon="-4.59717">
        <ele>78.400001525879</ele>
        <time>2018-05-08T07:29:00.000Z</time>
      </trkpt>
      <trkpt lat="48.44154" lon="-4.5968">
        <ele>78</ele>
        <time>2018-05-08T07:29:05.000Z</time>
      </trkpt>
      <trkpt lat="48.44143" lon="-4.59642">
        <ele>77.800003051758</ele>
        <time>2018-05-08T07:29:10.000Z</time>
      </trkpt>
      <trkpt lat="48.44133" lon="-4.59594">
        <ele>77.400001525879</ele>
        <time>2018-05-08T07:29:16.000Z</time>
      </trkpt>
      <trkpt lat="48.4413" lon="-4.59569">
        <ele>77.199996948242</ele>
        <time>2018-05-08T07:29:19.000Z</time>
      </trkpt>
      <trkpt lat="48.44129" lon="-4.59531">
        <ele>77.400001525879</ele>
        <time>2018-05-08T07:29:24.000Z</time>
      </trkpt>
      <trkpt lat="48.44117" lon="-4.59505">
        <ele>78.199996948242</ele>
        <time>2018-05-08T07:29:29.000Z</time>
      </trkpt>
      <trkpt lat="48.44106" lon="-4.59497">
        <ele>78.400001525879</ele>
        <time>2018-05-08T07:29:32.000Z</time>
      </trkpt>
      <trkpt lat="48.44095" lon="-4.59488">
        <ele>78.800003051758</ele>
        <time>2018-05-08T07:29:35.000Z</time>
      </trkpt>
      <trkpt lat="48.44089" lon="-4.59483">
        <ele>79</ele>
        <time>2018-05-08T07:29:37.000Z</time>
      </trkpt>
      <trkpt lat="48.44082" lon="-4.59465">
        <ele>79.400001525879</ele>
        <time>2018-05-08T07:29:41.000Z</time>
      </trkpt>
      <trkpt lat="48.44081" lon="-4.59454">
        <ele>79.599998474121</ele>
        <time>2018-05-08T07:29:43.000Z</time>
      </trkpt>
      <trkpt lat="48.44072" lon="-4.59437">
        <ele>80.400001525879</ele>
        <time>2018-05-08T07:29:47.000Z</time>
      </trkpt>
      <trkpt lat="48.4407" lon="-4.59434">
        <ele>80.599998474121</ele>
        <time>2018-05-08T07:29:48.000Z</time>
      </trkpt>
      <trkpt lat="48.44052" lon="-4.59419">
        <ele>81.800003051758</ele>
        <time>2018-05-08T07:29:54.000Z</time>
      </trkpt>
      <trkpt lat="48.44033" lon="-4.59414">
        <ele>82.400001525879</ele>
        <time>2018-05-08T07:30:00.000Z</time>
      </trkpt>
      <trkpt lat="48.44015" lon="-4.59408">
        <ele>83</ele>
        <time>2018-05-08T07:30:05.000Z</time>
      </trkpt>
      <trkpt lat="48.43992" lon="-4.59402">
        <ele>83.199996948242</ele>
        <time>2018-05-08T07:30:11.000Z</time>
      </trkpt>
      <trkpt lat="48.43981" lon="-4.59392">
        <ele>83.199996948242</ele>
        <time>2018-05-08T07:30:14.000Z</time>
      </trkpt>
      <trkpt lat="48.4397" lon="-4.59385">
        <ele>83</ele>
        <time>2018-05-08T07:30:17.000Z</time>
      </trkpt>
      <trkpt lat="48.43948" lon="-4.59372">
        <ele>82.400001525879</ele>
        <time>2018-05-08T07:30:22.000Z</time>
      </trkpt>
      <trkpt lat="48.43927" lon="-4.59363">
        <ele>81.599998474121</ele>
        <time>2018-05-08T07:30:27.000Z</time>
      </trkpt>
      <trkpt lat="48.43902" lon="-4.59353">
        <ele>80.199996948242</ele>
        <time>2018-05-08T07:30:32.000Z</time>
      </trkpt>
      <trkpt lat="48.43877" lon="-4.59338">
        <ele>78.800003051758</ele>
        <time>2018-05-08T07:30:37.000Z</time>
      </trkpt>
      <trkpt lat="48.43846" lon="-4.59322">
        <ele>77</ele>
        <time>2018-05-08T07:30:42.000Z</time>
      </trkpt>
      <trkpt lat="48.43839" lon="-4.59318">
        <ele>76.800003051758</ele>
        <time>2018-05-08T07:30:43.000Z</time>
      </trkpt>
      <trkpt lat="48.43817" lon="-4.59301">
        <ele>76.800003051758</ele>
        <time>2018-05-08T07:30:47.000Z</time>
      </trkpt>
      <trkpt lat="48.43812" lon="-4.59297">
        <ele>76.800003051758</ele>
        <time>2018-05-08T07:30:48.000Z</time>
      </trkpt>
      <trkpt lat="48.43794" lon="-4.59275">
        <ele>77.199996948242</ele>
        <time>2018-05-08T07:30:52.000Z</time>
      </trkpt>
      <trkpt lat="48.43768" lon="-4.59233">
        <ele>77.599998474121</ele>
        <time>2018-05-08T07:30:59.000Z</time>
      </trkpt>
      <trkpt lat="48.43755" lon="-4.5921">
        <ele>78</ele>
        <time>2018-05-08T07:31:03.000Z</time>
      </trkpt>
      <trkpt lat="48.43748" lon="-4.59198">
        <ele>78.400001525879</ele>
        <time>2018-05-08T07:31:05.000Z</time>
      </trkpt>
      <trkpt lat="48.43715" lon="-4.59165">
        <ele>79.800003051758</ele>
        <time>2018-05-08T07:31:13.000Z</time>
      </trkpt>
      <trkpt lat="48.43704" lon="-4.59151">
        <ele>80.199996948242</ele>
        <time>2018-05-08T07:31:16.000Z</time>
      </trkpt>
      <trkpt lat="48.43675" lon="-4.59095">
        <ele>80.800003051758</ele>
        <time>2018-05-08T07:31:26.000Z</time>
      </trkpt>
      <trkpt lat="48.43669" lon="-4.59084">
        <ele>80.599998474121</ele>
        <time>2018-05-08T07:31:28.000Z</time>
      </trkpt>
      <trkpt lat="48.4366" lon="-4.59062">
        <ele>80.400001525879</ele>
        <time>2018-05-08T07:31:32.000Z</time>
      </trkpt>
      <trkpt lat="48.43652" lon="-4.5904">
        <ele>80.599998474121</ele>
        <time>2018-05-08T07:31:36.000Z</time>
      </trkpt>
      <trkpt lat="48.43641" lon="-4.58996">
        <ele>81.400001525879</ele>
        <time>2018-05-08T07:31:43.000Z</time>
      </trkpt>
      <trkpt lat="48.43639" lon="-4.58989">
        <ele>81.599998474121</ele>
        <time>2018-05-08T07:31:44.000Z</time>
      </trkpt>
      <trkpt lat="48.43625" lon="-4.58942">
        <ele>81.800003051758</ele>
        <time>2018-05-08T07:31:51.000Z</time>
      </trkpt>
      <trkpt lat="48.43614" lon="-4.58896">
        <ele>81.599998474121</ele>
        <time>2018-05-08T07:31:58.000Z</time>
      </trkpt>
      <trkpt lat="48.43612" lon="-4.58889">
        <ele>81.400001525879</ele>
        <time>2018-05-08T07:31:59.000Z</time>
      </trkpt>
      <trkpt lat="48.43589" lon="-4.58832">
        <ele>81</ele>
        <time>2018-05-08T07:32:08.000Z</time>
      </trkpt>
      <trkpt lat="48.43566" lon="-4.58776">
        <ele>80.400001525879</ele>
        <time>2018-05-08T07:32:16.000Z</time>
      </trkpt>
      <trkpt lat="48.43546" lon="-4.58729">
        <ele>80.400001525879</ele>
        <time>2018-05-08T07:32:23.000Z</time>
      </trkpt>
      <trkpt lat="48.43532" lon="-4.58698">
        <ele>81.199996948242</ele>
        <time>2018-05-08T07:32:28.000Z</time>
      </trkpt>
      <trkpt lat="48.43517" lon="-4.58662">
        <ele>81.400001525879</ele>
        <time>2018-05-08T07:32:34.000Z</time>
      </trkpt>
      <trkpt lat="48.43516" lon="-4.58638">
        <ele>81.800003051758</ele>
        <time>2018-05-08T07:32:38.000Z</time>
      </trkpt>
      <trkpt lat="48.43525" lon="-4.58624">
        <ele>82</ele>
        <time>2018-05-08T07:32:41.000Z</time>
      </trkpt>
      <trkpt lat="48.43549" lon="-4.58593">
        <ele>82.800003051758</ele>
        <time>2018-05-08T07:32:48.000Z</time>
      </trkpt>
      <trkpt lat="48.43566" lon="-4.58574">
        <ele>83.199996948242</ele>
        <time>2018-05-08T07:32:53.000Z</time>
      </trkpt>
      <trkpt lat="48.43572" lon="-4.58569">
        <ele>83.199996948242</ele>
        <time>2018-05-08T07:32:55.000Z</time>
      </trkpt>
      <trkpt lat="48.43589" lon="-4.58563">
        <ele>83.599998474121</ele>
        <time>2018-05-08T07:33:00.000Z</time>
      </trkpt>
      <trkpt lat="48.43595" lon="-4.58558">
        <ele>83.599998474121</ele>
        <time>2018-05-08T07:33:02.000Z</time>
      </trkpt>
      <trkpt lat="48.43612" lon="-4.58544">
        <ele>84.199996948242</ele>
        <time>2018-05-08T07:33:07.000Z</time>
      </trkpt>
      <trkpt lat="48.43625" lon="-4.5853">
        <ele>84.599998474121</ele>
        <time>2018-05-08T07:33:12.000Z</time>
      </trkpt>
      <trkpt lat="48.43642" lon="-4.58513">
        <ele>85</ele>
        <time>2018-05-08T07:33:18.000Z</time>
      </trkpt>
      <trkpt lat="48.43655" lon="-4.58501">
        <ele>85.400001525879</ele>
        <time>2018-05-08T07:33:22.000Z</time>
      </trkpt>
      <trkpt lat="48.43675" lon="-4.58493">
        <ele>85.800003051758</ele>
        <time>2018-05-08T07:33:26.000Z</time>
      </trkpt>
      <trkpt lat="48.43693" lon="-4.58494">
        <ele>86</ele>
        <time>2018-05-08T07:33:30.000Z</time>
      </trkpt>
      <trkpt lat="48.4371" lon="-4.58503">
        <ele>86</ele>
        <time>2018-05-08T07:33:34.000Z</time>
      </trkpt>
      <trkpt lat="48.43716" lon="-4.58511">
        <ele>86</ele>
        <time>2018-05-08T07:33:36.000Z</time>
      </trkpt>
      <trkpt lat="48.43732" lon="-4.58533">
        <ele>86</ele>
        <time>2018-05-08T07:33:41.000Z</time>
      </trkpt>
      <trkpt lat="48.43749" lon="-4.58552">
        <ele>85.800003051758</ele>
        <time>2018-05-08T07:33:47.000Z</time>
      </trkpt>
      <trkpt lat="48.43772" lon="-4.58574">
        <ele>86</ele>
        <time>2018-05-08T07:33:53.000Z</time>
      </trkpt>
      <trkpt lat="48.43776" lon="-4.58578">
        <ele>86.199996948242</ele>
        <time>2018-05-08T07:33:54.000Z</time>
      </trkpt>
      <trkpt lat="48.43789" lon="-4.58591">
        <ele>86.199996948242</ele>
        <time>2018-05-08T07:33:57.000Z</time>
      </trkpt>
      <trkpt lat="48.4381" lon="-4.586">
        <ele>86.199996948242</ele>
        <time>2018-05-08T07:34:01.000Z</time>
      </trkpt>
      <trkpt lat="48.43816" lon="-4.586">
        <ele>86.199996948242</ele>
        <time>2018-05-08T07:34:02.000Z</time>
      </trkpt>
      <trkpt lat="48.43828" lon="-4.58598">
        <ele>86.199996948242</ele>
        <time>2018-05-08T07:34:04.000Z</time>
      </trkpt>
      <trkpt lat="48.43852" lon="-4.5859">
        <ele>86.199996948242</ele>
        <time>2018-05-08T07:34:09.000Z</time>
      </trkpt>
      <trkpt lat="48.43855" lon="-4.58585">
        <ele>86.199996948242</ele>
        <time>2018-05-08T07:34:10.000Z</time>
      </trkpt>
      <trkpt lat="48.43866" lon="-4.5856">
        <ele>86</ele>
        <time>2018-05-08T07:34:15.000Z</time>
      </trkpt>
      <trkpt lat="48.4387" lon="-4.58536">
        <ele>86.199996948242</ele>
        <time>2018-05-08T07:34:19.000Z</time>
      </trkpt>
      <trkpt lat="48.4387" lon="-4.58502">
        <ele>86.400001525879</ele>
        <time>2018-05-08T07:34:24.000Z</time>
      </trkpt>
      <trkpt lat="48.43874" lon="-4.58464">
        <ele>86.400001525879</ele>
        <time>2018-05-08T07:34:30.000Z</time>
      </trkpt>
      <trkpt lat="48.43881" lon="-4.58436">
        <ele>86</ele>
        <time>2018-05-08T07:34:35.000Z</time>
      </trkpt>
      <trkpt lat="48.43894" lon="-4.58415">
        <ele>85.400001525879</ele>
        <time>2018-05-08T07:34:39.000Z</time>
      </trkpt>
      <trkpt lat="48.43903" lon="-4.58395">
        <ele>85</ele>
        <time>2018-05-08T07:34:42.000Z</time>
      </trkpt>
      <trkpt lat="48.43909" lon="-4.58378">
        <ele>84.599998474121</ele>
        <time>2018-05-08T07:34:45.000Z</time>
      </trkpt>
      <trkpt lat="48.43914" lon="-4.58354">
        <ele>84.199996948242</ele>
        <time>2018-05-08T07:34:49.000Z</time>
      </trkpt>
      <trkpt lat="48.43912" lon="-4.58331">
        <ele>84</ele>
        <time>2018-05-08T07:34:52.000Z</time>
      </trkpt>
      <trkpt lat="48.43909" lon="-4.58316">
        <ele>84</ele>
        <time>2018-05-08T07:34:54.000Z</time>
      </trkpt>
      <trkpt lat="48.43905" lon="-4.58291">
        <ele>83.800003051758</ele>
        <time>2018-05-08T07:34:57.000Z</time>
      </trkpt>
      <trkpt lat="48.43895" lon="-4.58238">
        <ele>84.400001525879</ele>
        <time>2018-05-08T07:35:02.000Z</time>
      </trkpt>
      <trkpt lat="48.43884" lon="-4.58205">
        <ele>84.599998474121</ele>
        <time>2018-05-08T07:35:05.000Z</time>
      </trkpt>
      <trkpt lat="48.43876" lon="-4.58165">
        <ele>85.199996948242</ele>
        <time>2018-05-08T07:35:10.000Z</time>
      </trkpt>
      <trkpt lat="48.43881" lon="-4.58152">
        <ele>85.400001525879</ele>
        <time>2018-05-08T07:35:12.000Z</time>
      </trkpt>
      <trkpt lat="48.43887" lon="-4.58136">
        <ele>85.599998474121</ele>
        <time>2018-05-08T07:35:14.000Z</time>
      </trkpt>
      <trkpt lat="48.43892" lon="-4.58117">
        <ele>86</ele>
        <time>2018-05-08T07:35:16.000Z</time>
      </trkpt>
      <trkpt lat="48.43895" lon="-4.58079">
        <ele>86.800003051758</ele>
        <time>2018-05-08T07:35:20.000Z</time>
      </trkpt>
      <trkpt lat="48.43894" lon="-4.58006">
        <ele>87.599998474121</ele>
        <time>2018-05-08T07:35:28.000Z</time>
      </trkpt>
      <trkpt lat="48.43896" lon="-4.57965">
        <ele>87</ele>
        <time>2018-05-08T07:35:33.000Z</time>
      </trkpt>
      <trkpt lat="48.43909" lon="-4.57949">
        <ele>86.599998474121</ele>
        <time>2018-05-08T07:35:37.000Z</time>
      </trkpt>
      <trkpt lat="48.43932" lon="-4.57949">
        <ele>86</ele>
        <time>2018-05-08T07:35:41.000Z</time>
      </trkpt>
      <trkpt lat="48.4396" lon="-4.57948">
        <ele>86.599998474121</ele>
        <time>2018-05-08T07:35:46.000Z</time>
      </trkpt>
      <trkpt lat="48.44003" lon="-4.57937">
        <ele>87.599998474121</ele>
        <time>2018-05-08T07:35:54.000Z</time>
      </trkpt>
      <trkpt lat="48.44016" lon="-4.57921">
        <ele>88</ele>
        <time>2018-05-08T07:35:58.000Z</time>
      </trkpt>
      <trkpt lat="48.44018" lon="-4.57903">
        <ele>88</ele>
        <time>2018-05-08T07:36:02.000Z</time>
      </trkpt>
      <trkpt lat="48.4402" lon="-4.57896">
        <ele>88</ele>
        <time>2018-05-08T07:36:06.000Z</time>
      </trkpt>
      <trkpt lat="48.4402" lon="-4.57903">
        <ele>88</ele>
        <time>2018-05-08T07:36:09.000Z</time>
      </trkpt>
      <trkpt lat="48.4402" lon="-4.5792">
        <ele>88</ele>
        <time>2018-05-08T07:36:13.000Z</time>
      </trkpt>
      <trkpt lat="48.44016" lon="-4.57924">
        <ele>88</ele>
        <time>2018-05-08T07:36:19.000Z</time>
      </trkpt>
      <trkpt lat="48.44016" lon="-4.57911">
        <ele>88</ele>
        <time>2018-05-08T07:36:22.000Z</time>
      </trkpt>
      <trkpt lat="48.4402" lon="-4.57873">
        <ele>88</ele>
        <time>2018-05-08T07:36:28.000Z</time>
      </trkpt>
      <trkpt lat="48.44021" lon="-4.57866">
        <ele>88</ele>
        <time>2018-05-08T07:36:29.000Z</time>
      </trkpt>
      <trkpt lat="48.44025" lon="-4.57836">
        <ele>88.400001525879</ele>
        <time>2018-05-08T07:36:32.000Z</time>
      </trkpt>
      <trkpt lat="48.44032" lon="-4.57771">
        <ele>89.400001525879</ele>
        <time>2018-05-08T07:36:41.000Z</time>
      </trkpt>
      <trkpt lat="48.44037" lon="-4.57727">
        <ele>90.800003051758</ele>
        <time>2018-05-08T07:36:47.000Z</time>
      </trkpt>
      <trkpt lat="48.44036" lon="-4.57687">
        <ele>91.599998474121</ele>
        <time>2018-05-08T07:36:52.000Z</time>
      </trkpt>
      <trkpt lat="48.44035" lon="-4.57662">
        <ele>91</ele>
        <time>2018-05-08T07:36:55.000Z</time>
      </trkpt>
      <trkpt lat="48.44036" lon="-4.57635">
        <ele>90.400001525879</ele>
        <time>2018-05-08T07:36:58.000Z</time>
      </trkpt>
      <trkpt lat="48.44041" lon="-4.57589">
        <ele>89.400001525879</ele>
        <time>2018-05-08T07:37:03.000Z</time>
      </trkpt>
      <trkpt lat="48.44041" lon="-4.57527">
        <ele>89.400001525879</ele>
        <time>2018-05-08T07:37:09.000Z</time>
      </trkpt>
      <trkpt lat="48.44038" lon="-4.57465">
        <ele>89.199996948242</ele>
        <time>2018-05-08T07:37:15.000Z</time>
      </trkpt>
      <trkpt lat="48.44033" lon="-4.57416">
        <ele>89</ele>
        <time>2018-05-08T07:37:20.000Z</time>
      </trkpt>
      <trkpt lat="48.4403" lon="-4.57398">
        <ele>88.599998474121</ele>
        <time>2018-05-08T07:37:22.000Z</time>
      </trkpt>
      <trkpt lat="48.44026" lon="-4.5738">
        <ele>88.199996948242</ele>
        <time>2018-05-08T07:37:24.000Z</time>
      </trkpt>
      <trkpt lat="48.44004" lon="-4.57323">
        <ele>88.800003051758</ele>
        <time>2018-05-08T07:37:31.000Z</time>
      </trkpt>
      <trkpt lat="48.4399" lon="-4.5728">
        <ele>89.199996948242</ele>
        <time>2018-05-08T07:37:36.000Z</time>
      </trkpt>
      <trkpt lat="48.43979" lon="-4.5725">
        <ele>89</ele>
        <time>2018-05-08T07:37:40.000Z</time>
      </trkpt>
      <trkpt lat="48.43984" lon="-4.5723">
        <ele>88.800003051758</ele>
        <time>2018-05-08T07:37:43.000Z</time>
      </trkpt>
      <trkpt lat="48.4399" lon="-4.57227">
        <ele>88.599998474121</ele>
        <time>2018-05-08T07:37:44.000Z</time>
      </trkpt>
      <trkpt lat="48.44023" lon="-4.57203">
        <ele>88</ele>
        <time>2018-05-08T07:37:50.000Z</time>
      </trkpt>
      <trkpt lat="48.44028" lon="-4.57198">
        <ele>88</ele>
        <time>2018-05-08T07:37:51.000Z</time>
      </trkpt>
      <trkpt lat="48.44049" lon="-4.57169">
        <ele>88</ele>
        <time>2018-05-08T07:37:56.000Z</time>
      </trkpt>
      <trkpt lat="48.44073" lon="-4.57111">
        <ele>88</ele>
        <time>2018-05-08T07:38:04.000Z</time>
      </trkpt>
      <trkpt lat="48.44091" lon="-4.57063">
        <ele>88</ele>
        <time>2018-05-08T07:38:11.000Z</time>
      </trkpt>
      <trkpt lat="48.44095" lon="-4.5705">
        <ele>88</ele>
        <time>2018-05-08T07:38:13.000Z</time>
      </trkpt>
      <trkpt lat="48.44127" lon="-4.56992">
        <ele>89</ele>
        <time>2018-05-08T07:38:22.000Z</time>
      </trkpt>
      <trkpt lat="48.44139" lon="-4.56976">
        <ele>89.400001525879</ele>
        <time>2018-05-08T07:38:25.000Z</time>
      </trkpt>
      <trkpt lat="48.4417" lon="-4.56952">
        <ele>90</ele>
        <time>2018-05-08T07:38:31.000Z</time>
      </trkpt>
      <trkpt lat="48.44197" lon="-4.56931">
        <ele>90</ele>
        <time>2018-05-08T07:38:36.000Z</time>
      </trkpt>
      <trkpt lat="48.44202" lon="-4.56925">
        <ele>90</ele>
        <time>2018-05-08T07:38:37.000Z</time>
      </trkpt>
      <trkpt lat="48.44217" lon="-4.56887">
        <ele>89.599998474121</ele>
        <time>2018-05-08T07:38:42.000Z</time>
      </trkpt>
      <trkpt lat="48.44219" lon="-4.56878">
        <ele>89.599998474121</ele>
        <time>2018-05-08T07:38:43.000Z</time>
      </trkpt>
      <trkpt lat="48.44224" lon="-4.56861">
        <ele>89.599998474121</ele>
        <time>2018-05-08T07:38:45.000Z</time>
      </trkpt>
      <trkpt lat="48.44231" lon="-4.568">
        <ele>89.800003051758</ele>
        <time>2018-05-08T07:38:52.000Z</time>
      </trkpt>
      <trkpt lat="48.44231" lon="-4.56784">
        <ele>90</ele>
        <time>2018-05-08T07:38:54.000Z</time>
      </trkpt>
      <trkpt lat="48.44235" lon="-4.56736">
        <ele>90</ele>
        <time>2018-05-08T07:39:00.000Z</time>
      </trkpt>
      <trkpt lat="48.44242" lon="-4.56704">
        <ele>90.199996948242</ele>
        <time>2018-05-08T07:39:04.000Z</time>
      </trkpt>
      <trkpt lat="48.4426" lon="-4.56665">
        <ele>90</ele>
        <time>2018-05-08T07:39:09.000Z</time>
      </trkpt>
      <trkpt lat="48.44291" lon="-4.56591">
        <ele>89.400001525879</ele>
        <time>2018-05-08T07:39:18.000Z</time>
      </trkpt>
      <trkpt lat="48.44309" lon="-4.56543">
        <ele>89</ele>
        <time>2018-05-08T07:39:24.000Z</time>
      </trkpt>
      <trkpt lat="48.44333" lon="-4.56462">
        <ele>89.199996948242</ele>
        <time>2018-05-08T07:39:34.000Z</time>
      </trkpt>
      <trkpt lat="48.44358" lon="-4.5639">
        <ele>89.199996948242</ele>
        <time>2018-05-08T07:39:43.000Z</time>
      </trkpt>
      <trkpt lat="48.44382" lon="-4.56326">
        <ele>89.199996948242</ele>
        <time>2018-05-08T07:39:51.000Z</time>
      </trkpt>
      <trkpt lat="48.44387" lon="-4.56294">
        <ele>89.800003051758</ele>
        <time>2018-05-08T07:39:55.000Z</time>
      </trkpt>
      <trkpt lat="48.44395" lon="-4.5627">
        <ele>90</ele>
        <time>2018-05-08T07:39:58.000Z</time>
      </trkpt>
      <trkpt lat="48.44411" lon="-4.56246">
        <ele>90</ele>
        <time>2018-05-08T07:40:02.000Z</time>
      </trkpt>
      <trkpt lat="48.44428" lon="-4.56225">
        <ele>89.800003051758</ele>
        <time>2018-05-08T07:40:06.000Z</time>
      </trkpt>
      <trkpt lat="48.44471" lon="-4.56189">
        <ele>89.400001525879</ele>
        <time>2018-05-08T07:40:15.000Z</time>
      </trkpt>
      <trkpt lat="48.44494" lon="-4.56157">
        <ele>89.599998474121</ele>
        <time>2018-05-08T07:40:21.000Z</time>
      </trkpt>
      <trkpt lat="48.44518" lon="-4.56118">
        <ele>90</ele>
        <time>2018-05-08T07:40:27.000Z</time>
      </trkpt>
      <trkpt lat="48.44523" lon="-4.56112">
        <ele>90</ele>
        <time>2018-05-08T07:40:28.000Z</time>
      </trkpt>
      <trkpt lat="48.4453" lon="-4.56097">
        <ele>90</ele>
        <time>2018-05-08T07:40:30.000Z</time>
      </trkpt>
      <trkpt lat="48.44547" lon="-4.56039">
        <ele>89.400001525879</ele>
        <time>2018-05-08T07:40:37.000Z</time>
      </trkpt>
      <trkpt lat="48.44555" lon="-4.56006">
        <ele>90.400001525879</ele>
        <time>2018-05-08T07:40:41.000Z</time>
      </trkpt>
      <trkpt lat="48.44569" lon="-4.55986">
        <ele>91.400001525879</ele>
        <time>2018-05-08T07:40:45.000Z</time>
      </trkpt>
      <trkpt lat="48.44582" lon="-4.55989">
        <ele>91.400001525879</ele>
        <time>2018-05-08T07:40:48.000Z</time>
      </trkpt>
      <trkpt lat="48.44585" lon="-4.55996">
        <ele>91.199996948242</ele>
        <time>2018-05-08T07:40:51.000Z</time>
      </trkpt>
      <trkpt lat="48.44585" lon="-4.55997">
        <ele>91.199996948242</ele>
        <time>2018-05-08T07:40:54.000Z</time>
      </trkpt>
      <trkpt lat="48.44594" lon="-4.55995">
        <ele>91.400001525879</ele>
        <time>2018-05-08T07:44:43.000Z</time>
      </trkpt>
      <trkpt lat="48.44604" lon="-4.55972">
        <ele>92.199996948242</ele>
        <time>2018-05-08T07:45:00.000Z</time>
      </trkpt>
      <trkpt lat="48.44622" lon="-4.55927">
        <ele>92.800003051758</ele>
        <time>2018-05-08T07:45:06.000Z</time>
      </trkpt>
      <trkpt lat="48.44641" lon="-4.55888">
        <ele>92.199996948242</ele>
        <time>2018-05-08T07:45:12.000Z</time>
      </trkpt>
      <trkpt lat="48.44649" lon="-4.55877">
        <ele>92.199996948242</ele>
        <time>2018-05-08T07:45:14.000Z</time>
      </trkpt>
      <trkpt lat="48.44677" lon="-4.5583">
        <ele>91</ele>
        <time>2018-05-08T07:45:21.000Z</time>
      </trkpt>
      <trkpt lat="48.44689" lon="-4.55806">
        <ele>90.599998474121</ele>
        <time>2018-05-08T07:45:24.000Z</time>
      </trkpt>
      <trkpt lat="48.4472" lon="-4.55755">
        <ele>90.800003051758</ele>
        <time>2018-05-08T07:45:31.000Z</time>
      </trkpt>
      <trkpt lat="48.44749" lon="-4.55729">
        <ele>91.400001525879</ele>
        <time>2018-05-08T07:45:36.000Z</time>
      </trkpt>
      <trkpt lat="48.44772" lon="-4.55716">
        <ele>91.800003051758</ele>
        <time>2018-05-08T07:45:40.000Z</time>
      </trkpt>
      <trkpt lat="48.44809" lon="-4.55696">
        <ele>91.599998474121</ele>
        <time>2018-05-08T07:45:46.000Z</time>
      </trkpt>
      <trkpt lat="48.44841" lon="-4.55674">
        <ele>91.400001525879</ele>
        <time>2018-05-08T07:45:51.000Z</time>
      </trkpt>
      <trkpt lat="48.44862" lon="-4.55651">
        <ele>92</ele>
        <time>2018-05-08T07:45:55.000Z</time>
      </trkpt>
      <trkpt lat="48.44882" lon="-4.55626">
        <ele>92.599998474121</ele>
        <time>2018-05-08T07:45:59.000Z</time>
      </trkpt>
      <trkpt lat="48.44897" lon="-4.55598">
        <ele>93</ele>
        <time>2018-05-08T07:46:03.000Z</time>
      </trkpt>
      <trkpt lat="48.44908" lon="-4.55558">
        <ele>92.800003051758</ele>
        <time>2018-05-08T07:46:08.000Z</time>
      </trkpt>
      <trkpt lat="48.44916" lon="-4.55547">
        <ele>92.800003051758</ele>
        <time>2018-05-08T07:46:12.000Z</time>
      </trkpt>
      <trkpt lat="48.44918" lon="-4.55548">
        <ele>92.800003051758</ele>
        <time>2018-05-08T07:46:15.000Z</time>
      </trkpt>
      <trkpt lat="48.44937" lon="-4.55552">
        <ele>93.199996948242</ele>
        <time>2018-05-08T07:46:21.000Z</time>
      </trkpt>
      <trkpt lat="48.44942" lon="-4.55555">
        <ele>93.199996948242</ele>
        <time>2018-05-08T07:46:22.000Z</time>
      </trkpt>
      <trkpt lat="48.44982" lon="-4.55577">
        <ele>93.599998474121</ele>
        <time>2018-05-08T07:46:29.000Z</time>
      </trkpt>
      <trkpt lat="48.45" lon="-4.55584">
        <ele>94</ele>
        <time>2018-05-08T07:46:32.000Z</time>
      </trkpt>
      <trkpt lat="48.45037" lon="-4.55584">
        <ele>93.599998474121</ele>
        <time>2018-05-08T07:46:38.000Z</time>
      </trkpt>
      <trkpt lat="48.45095" lon="-4.55583">
        <ele>92.199996948242</ele>
        <time>2018-05-08T07:46:47.000Z</time>
      </trkpt>
      <trkpt lat="48.45148" lon="-4.55585">
        <ele>92.199996948242</ele>
        <time>2018-05-08T07:46:55.000Z</time>
      </trkpt>
      <trkpt lat="48.45197" lon="-4.55583">
        <ele>91.199996948242</ele>
        <time>2018-05-08T07:47:02.000Z</time>
      </trkpt>
      <trkpt lat="48.45245" lon="-4.5558">
        <ele>91</ele>
        <time>2018-05-08T07:47:09.000Z</time>
      </trkpt>
      <trkpt lat="48.45258" lon="-4.55582">
        <ele>91</ele>
        <time>2018-05-08T07:47:11.000Z</time>
      </trkpt>
      <trkpt lat="48.45273" lon="-4.55573">
        <ele>91.199996948242</ele>
        <time>2018-05-08T07:47:14.000Z</time>
      </trkpt>
      <trkpt lat="48.45285" lon="-4.55567">
        <ele>91.400001525879</ele>
        <time>2018-05-08T07:47:17.000Z</time>
      </trkpt>
      <trkpt lat="48.45312" lon="-4.55569">
        <ele>92.199996948242</ele>
        <time>2018-05-08T07:47:22.000Z</time>
      </trkpt>
      <trkpt lat="48.45334" lon="-4.55572">
        <ele>92.400001525879</ele>
        <time>2018-05-08T07:47:29.000Z</time>
      </trkpt>
      <trkpt lat="48.45356" lon="-4.55576">
        <ele>92.599998474121</ele>
        <time>2018-05-08T07:47:35.000Z</time>
      </trkpt>
      <trkpt lat="48.45378" lon="-4.55578">
        <ele>92.800003051758</ele>
        <time>2018-05-08T07:47:40.000Z</time>
      </trkpt>
      <trkpt lat="48.45411" lon="-4.55585">
        <ele>93.800003051758</ele>
        <time>2018-05-08T07:47:47.000Z</time>
      </trkpt>
      <trkpt lat="48.45444" lon="-4.5559">
        <ele>94.599998474121</ele>
        <time>2018-05-08T07:47:54.000Z</time>
      </trkpt>
      <trkpt lat="48.45481" lon="-4.55591">
        <ele>94.400001525879</ele>
        <time>2018-05-08T07:48:02.000Z</time>
      </trkpt>
      <trkpt lat="48.45519" lon="-4.55594">
        <ele>94</ele>
        <time>2018-05-08T07:48:09.000Z</time>
      </trkpt>
      <trkpt lat="48.45554" lon="-4.55588">
        <ele>93.800003051758</ele>
        <time>2018-05-08T07:48:16.000Z</time>
      </trkpt>
      <trkpt lat="48.45572" lon="-4.55584">
        <ele>93.800003051758</ele>
        <time>2018-05-08T07:48:20.000Z</time>
      </trkpt>
      <trkpt lat="48.45609" lon="-4.55576">
        <ele>93.599998474121</ele>
        <time>2018-05-08T07:48:27.000Z</time>
      </trkpt>
      <trkpt lat="48.45634" lon="-4.55574">
        <ele>94</ele>
        <time>2018-05-08T07:48:32.000Z</time>
      </trkpt>
      <trkpt lat="48.45655" lon="-4.55561">
        <ele>94.400001525879</ele>
        <time>2018-05-08T07:48:37.000Z</time>
      </trkpt>
      <trkpt lat="48.45664" lon="-4.55546">
        <ele>94.599998474121</ele>
        <time>2018-05-08T07:48:39.000Z</time>
      </trkpt>
      <trkpt lat="48.45687" lon="-4.5554">
        <ele>95</ele>
        <time>2018-05-08T07:48:43.000Z</time>
      </trkpt>
      <trkpt lat="48.45711" lon="-4.55539">
        <ele>95</ele>
        <time>2018-05-08T07:48:47.000Z</time>
      </trkpt>
      <trkpt lat="48.45729" lon="-4.55532">
        <ele>95</ele>
        <time>2018-05-08T07:48:50.000Z</time>
      </trkpt>
      <trkpt lat="48.45778" lon="-4.55517">
        <ele>94.400001525879</ele>
        <time>2018-05-08T07:48:58.000Z</time>
      </trkpt>
      <trkpt lat="48.45789" lon="-4.55492">
        <ele>93.800003051758</ele>
        <time>2018-05-08T07:49:02.000Z</time>
      </trkpt>
      <trkpt lat="48.45784" lon="-4.55464">
        <ele>93</ele>
        <time>2018-05-08T07:49:05.000Z</time>
      </trkpt>
      <trkpt lat="48.45778" lon="-4.55435">
        <ele>92.400001525879</ele>
        <time>2018-05-08T07:49:08.000Z</time>
      </trkpt>
      <trkpt lat="48.45761" lon="-4.5541">
        <ele>92</ele>
        <time>2018-05-08T07:49:12.000Z</time>
      </trkpt>
      <trkpt lat="48.45755" lon="-4.55409">
        <ele>92.199996948242</ele>
        <time>2018-05-08T07:49:13.000Z</time>
      </trkpt>
      <trkpt lat="48.45736" lon="-4.55406">
        <ele>92.199996948242</ele>
        <time>2018-05-08T07:49:16.000Z</time>
      </trkpt>
      <trkpt lat="48.45708" lon="-4.55385">
        <ele>92.599998474121</ele>
        <time>2018-05-08T07:49:21.000Z</time>
      </trkpt>
      <trkpt lat="48.45699" lon="-4.55355">
        <ele>92.599998474121</ele>
        <time>2018-05-08T07:49:24.000Z</time>
      </trkpt>
      <trkpt lat="48.45683" lon="-4.55288">
        <ele>92</ele>
        <time>2018-05-08T07:49:30.000Z</time>
      </trkpt>
      <trkpt lat="48.45662" lon="-4.55239">
        <ele>91.400001525879</ele>
        <time>2018-05-08T07:49:35.000Z</time>
      </trkpt>
      <trkpt lat="48.4566" lon="-4.55206">
        <ele>91.199996948242</ele>
        <time>2018-05-08T07:49:39.000Z</time>
      </trkpt>
      <trkpt lat="48.45676" lon="-4.55199">
        <ele>91</ele>
        <time>2018-05-08T07:49:42.000Z</time>
      </trkpt>
      <trkpt lat="48.45695" lon="-4.55199">
        <ele>90.599998474121</ele>
        <time>2018-05-08T07:49:45.000Z</time>
      </trkpt>
      <trkpt lat="48.45717" lon="-4.55185">
        <ele>90.199996948242</ele>
        <time>2018-05-08T07:49:49.000Z</time>
      </trkpt>
      <trkpt lat="48.45731" lon="-4.55153">
        <ele>89.800003051758</ele>
        <time>2018-05-08T07:49:53.000Z</time>
      </trkpt>
      <trkpt lat="48.45755" lon="-4.55132">
        <ele>89.199996948242</ele>
        <time>2018-05-08T07:49:57.000Z</time>
      </trkpt>
      <trkpt lat="48.45775" lon="-4.55135">
        <ele>88.800003051758</ele>
        <time>2018-05-08T07:50:00.000Z</time>
      </trkpt>
      <trkpt lat="48.45818" lon="-4.5516">
        <ele>88</ele>
        <time>2018-05-08T07:50:07.000Z</time>
      </trkpt>
      <trkpt lat="48.45869" lon="-4.55196">
        <ele>88.800003051758</ele>
        <time>2018-05-08T07:50:15.000Z</time>
      </trkpt>
      <trkpt lat="48.4588" lon="-4.55205">
        <ele>89</ele>
        <time>2018-05-08T07:50:17.000Z</time>
      </trkpt>
      <trkpt lat="48.45906" lon="-4.55212">
        <ele>89.199996948242</ele>
        <time>2018-05-08T07:50:21.000Z</time>
      </trkpt>
      <trkpt lat="48.45963" lon="-4.55192">
        <ele>89.199996948242</ele>
        <time>2018-05-08T07:50:30.000Z</time>
      </trkpt>
      <trkpt lat="48.46003" lon="-4.55169">
        <ele>89.400001525879</ele>
        <time>2018-05-08T07:50:37.000Z</time>
      </trkpt>
      <trkpt lat="48.46051" lon="-4.55144">
        <ele>90.199996948242</ele>
        <time>2018-05-08T07:50:45.000Z</time>
      </trkpt>
      <trkpt lat="48.46075" lon="-4.55136">
        <ele>90.599998474121</ele>
        <time>2018-05-08T07:50:49.000Z</time>
      </trkpt>
      <trkpt lat="48.46105" lon="-4.55127">
        <ele>91.199996948242</ele>
        <time>2018-05-08T07:50:54.000Z</time>
      </trkpt>
      <trkpt lat="48.46123" lon="-4.55116">
        <ele>91</ele>
        <time>2018-05-08T07:50:57.000Z</time>
      </trkpt>
      <trkpt lat="48.46166" lon="-4.55091">
        <ele>90.400001525879</ele>
        <time>2018-05-08T07:51:04.000Z</time>
      </trkpt>
      <trkpt lat="48.46207" lon="-4.55066">
        <ele>89.400001525879</ele>
        <time>2018-05-08T07:51:11.000Z</time>
      </trkpt>
      <trkpt lat="48.46242" lon="-4.55045">
        <ele>88.599998474121</ele>
        <time>2018-05-08T07:51:17.000Z</time>
      </trkpt>
      <trkpt lat="48.46263" lon="-4.55028">
        <ele>88</ele>
        <time>2018-05-08T07:51:21.000Z</time>
      </trkpt>
      <trkpt lat="48.46304" lon="-4.55016">
        <ele>87.599998474121</ele>
        <time>2018-05-08T07:51:27.000Z</time>
      </trkpt>
      <trkpt lat="48.46344" lon="-4.55">
        <ele>87</ele>
        <time>2018-05-08T07:51:33.000Z</time>
      </trkpt>
      <trkpt lat="48.46383" lon="-4.55003">
        <ele>88.199996948242</ele>
        <time>2018-05-08T07:51:39.000Z</time>
      </trkpt>
      <trkpt lat="48.464" lon="-4.54994">
        <ele>88.599998474121</ele>
        <time>2018-05-08T07:51:43.000Z</time>
      </trkpt>
      <trkpt lat="48.46404" lon="-4.54971">
        <ele>89</ele>
        <time>2018-05-08T07:51:46.000Z</time>
      </trkpt>
      <trkpt lat="48.4642" lon="-4.54884">
        <ele>90.400001525879</ele>
        <time>2018-05-08T07:51:56.000Z</time>
      </trkpt>
      <trkpt lat="48.46426" lon="-4.54817">
        <ele>90.199996948242</ele>
        <time>2018-05-08T07:52:03.000Z</time>
      </trkpt>
      <trkpt lat="48.46423" lon="-4.54739">
        <ele>89.400001525879</ele>
        <time>2018-05-08T07:52:11.000Z</time>
      </trkpt>
      <trkpt lat="48.46411" lon="-4.54663">
        <ele>88</ele>
        <time>2018-05-08T07:52:18.000Z</time>
      </trkpt>
      <trkpt lat="48.46406" lon="-4.54602">
        <ele>87.599998474121</ele>
        <time>2018-05-08T07:52:23.000Z</time>
      </trkpt>
      <trkpt lat="48.46405" lon="-4.54565">
        <ele>87.599998474121</ele>
        <time>2018-05-08T07:52:26.000Z</time>
      </trkpt>
      <trkpt lat="48.46413" lon="-4.54532">
        <ele>87.800003051758</ele>
        <time>2018-05-08T07:52:29.000Z</time>
      </trkpt>
      <trkpt lat="48.46427" lon="-4.54519">
        <ele>88.199996948242</ele>
        <time>2018-05-08T07:52:31.000Z</time>
      </trkpt>
      <trkpt lat="48.46451" lon="-4.54508">
        <ele>88.599998474121</ele>
        <time>2018-05-08T07:52:36.000Z</time>
      </trkpt>
      <trkpt lat="48.46465" lon="-4.54503">
        <ele>88.800003051758</ele>
        <time>2018-05-08T07:52:40.000Z</time>
      </trkpt>
      <trkpt lat="48.46499" lon="-4.54497">
        <ele>89.199996948242</ele>
        <time>2018-05-08T07:52:47.000Z</time>
      </trkpt>
      <trkpt lat="48.46519" lon="-4.5449">
        <ele>89.599998474121</ele>
        <time>2018-05-08T07:52:51.000Z</time>
      </trkpt>
      <trkpt lat="48.46537" lon="-4.54485">
        <ele>89.800003051758</ele>
        <time>2018-05-08T07:52:55.000Z</time>
      </trkpt>
      <trkpt lat="48.4656" lon="-4.54479">
        <ele>90.199996948242</ele>
        <time>2018-05-08T07:53:00.000Z</time>
      </trkpt>
      <trkpt lat="48.46579" lon="-4.54475">
        <ele>90.400001525879</ele>
        <time>2018-05-08T07:53:04.000Z</time>
      </trkpt>
      <trkpt lat="48.46588" lon="-4.54475">
        <ele>90.599998474121</ele>
        <time>2018-05-08T07:53:06.000Z</time>
      </trkpt>
      <trkpt lat="48.46618" lon="-4.54471">
        <ele>90.800003051758</ele>
        <time>2018-05-08T07:53:12.000Z</time>
      </trkpt>
      <trkpt lat="48.46627" lon="-4.54468">
        <ele>90.800003051758</ele>
        <time>2018-05-08T07:53:14.000Z</time>
      </trkpt>
      <trkpt lat="48.46664" lon="-4.54462">
        <ele>90.800003051758</ele>
        <time>2018-05-08T07:53:22.000Z</time>
      </trkpt>
      <trkpt lat="48.46674" lon="-4.54457">
        <ele>91</ele>
        <time>2018-05-08T07:53:25.000Z</time>
      </trkpt>
      <trkpt lat="48.46687" lon="-4.54444">
        <ele>91.199996948242</ele>
        <time>2018-05-08T07:53:29.000Z</time>
      </trkpt>
      <trkpt lat="48.46701" lon="-4.54421">
        <ele>91.599998474121</ele>
        <time>2018-05-08T07:53:34.000Z</time>
      </trkpt>
      <trkpt lat="48.46727" lon="-4.5442">
        <ele>91.800003051758</ele>
        <time>2018-05-08T07:53:40.000Z</time>
      </trkpt>
      <trkpt lat="48.46748" lon="-4.54421">
        <ele>92.199996948242</ele>
        <time>2018-05-08T07:53:45.000Z</time>
      </trkpt>
      <trkpt lat="48.46778" lon="-4.54421">
        <ele>92.400001525879</ele>
        <time>2018-05-08T07:53:51.000Z</time>
      </trkpt>
      <trkpt lat="48.46789" lon="-4.54423">
        <ele>92.599998474121</ele>
        <time>2018-05-08T07:53:53.000Z</time>
      </trkpt>
      <trkpt lat="48.46834" lon="-4.54417">
        <ele>93.599998474121</ele>
        <time>2018-05-08T07:54:01.000Z</time>
      </trkpt>
      <trkpt lat="48.46874" lon="-4.54412">
        <ele>94</ele>
        <time>2018-05-08T07:54:09.000Z</time>
      </trkpt>
      <trkpt lat="48.46885" lon="-4.54394">
        <ele>94</ele>
        <time>2018-05-08T07:54:13.000Z</time>
      </trkpt>
      <trkpt lat="48.46886" lon="-4.54379">
        <ele>94</ele>
        <time>2018-05-08T07:54:15.000Z</time>
      </trkpt>
      <trkpt lat="48.46877" lon="-4.54337">
        <ele>93.599998474121</ele>
        <time>2018-05-08T07:54:20.000Z</time>
      </trkpt>
      <trkpt lat="48.46859" lon="-4.543">
        <ele>93.199996948242</ele>
        <time>2018-05-08T07:54:25.000Z</time>
      </trkpt>
      <trkpt lat="48.46843" lon="-4.54249">
        <ele>94</ele>
        <time>2018-05-08T07:54:31.000Z</time>
      </trkpt>
      <trkpt lat="48.46827" lon="-4.54189">
        <ele>95.199996948242</ele>
        <time>2018-05-08T07:54:38.000Z</time>
      </trkpt>
      <trkpt lat="48.46807" lon="-4.54142">
        <ele>95.800003051758</ele>
        <time>2018-05-08T07:54:44.000Z</time>
      </trkpt>
      <trkpt lat="48.46803" lon="-4.54135">
        <ele>95.800003051758</ele>
        <time>2018-05-08T07:54:45.000Z</time>
      </trkpt>
      <trkpt lat="48.46804" lon="-4.54107">
        <ele>95.800003051758</ele>
        <time>2018-05-08T07:54:49.000Z</time>
      </trkpt>
      <trkpt lat="48.46807" lon="-4.54101">
        <ele>95.800003051758</ele>
        <time>2018-05-08T07:54:50.000Z</time>
      </trkpt>
      <trkpt lat="48.46825" lon="-4.54073">
        <ele>95.400001525879</ele>
        <time>2018-05-08T07:54:55.000Z</time>
      </trkpt>
      <trkpt lat="48.46842" lon="-4.54034">
        <ele>94.800003051758</ele>
        <time>2018-05-08T07:55:00.000Z</time>
      </trkpt>
      <trkpt lat="48.46844" lon="-4.54026">
        <ele>94.599998474121</ele>
        <time>2018-05-08T07:55:01.000Z</time>
      </trkpt>
      <trkpt lat="48.46861" lon="-4.53977">
        <ele>93.199996948242</ele>
        <time>2018-05-08T07:55:07.000Z</time>
      </trkpt>
      <trkpt lat="48.46871" lon="-4.53931">
        <ele>91.800003051758</ele>
        <time>2018-05-08T07:55:11.000Z</time>
      </trkpt>
      <trkpt lat="48.46877" lon="-4.53914">
        <ele>91.199996948242</ele>
        <time>2018-05-08T07:55:13.000Z</time>
      </trkpt>
      <trkpt lat="48.46899" lon="-4.53856">
        <ele>89</ele>
        <time>2018-05-08T07:55:19.000Z</time>
      </trkpt>
      <trkpt lat="48.4692" lon="-4.53799">
        <ele>87.599998474121</ele>
        <time>2018-05-08T07:55:24.000Z</time>
      </trkpt>
      <trkpt lat="48.46923" lon="-4.53783">
        <ele>87.199996948242</ele>
        <time>2018-05-08T07:55:26.000Z</time>
      </trkpt>
      <trkpt lat="48.46916" lon="-4.53764">
        <ele>86.599998474121</ele>
        <time>2018-05-08T07:55:30.000Z</time>
      </trkpt>
      <trkpt lat="48.4692" lon="-4.53741">
        <ele>85.800003051758</ele>
        <time>2018-05-08T07:55:34.000Z</time>
      </trkpt>
      <trkpt lat="48.46939" lon="-4.53705">
        <ele>83.800003051758</ele>
        <time>2018-05-08T07:55:40.000Z</time>
      </trkpt>
      <trkpt lat="48.46952" lon="-4.5367">
        <ele>82.800003051758</ele>
        <time>2018-05-08T07:55:44.000Z</time>
      </trkpt>
      <trkpt lat="48.46966" lon="-4.53639">
        <ele>81.599998474121</ele>
        <time>2018-05-08T07:55:48.000Z</time>
      </trkpt>
      <trkpt lat="48.46972" lon="-4.53623">
        <ele>81.199996948242</ele>
        <time>2018-05-08T07:55:50.000Z</time>
      </trkpt>
      <trkpt lat="48.46992" lon="-4.53574">
        <ele>79.599998474121</ele>
        <time>2018-05-08T07:55:55.000Z</time>
      </trkpt>
      <trkpt lat="48.47005" lon="-4.53547">
        <ele>78.599998474121</ele>
        <time>2018-05-08T07:56:00.000Z</time>
      </trkpt>
      <trkpt lat="48.47009" lon="-4.53539">
        <ele>78.400001525879</ele>
        <time>2018-05-08T07:56:06.000Z</time>
      </trkpt>
      <trkpt lat="48.47009" lon="-4.53539">
        <ele>78.400001525879</ele>
        <time>2018-05-08T07:56:07.000Z</time>
      </trkpt>
      <trkpt lat="48.47009" lon="-4.53524">
        <ele>78.199996948242</ele>
        <time>2018-05-08T07:56:19.000Z</time>
      </trkpt>
      <trkpt lat="48.47011" lon="-4.53502">
        <ele>78.199996948242</ele>
        <time>2018-05-08T07:56:25.000Z</time>
      </trkpt>
      <trkpt lat="48.47015" lon="-4.53479">
        <ele>78</ele>
        <time>2018-05-08T07:56:29.000Z</time>
      </trkpt>
      <trkpt lat="48.47021" lon="-4.53459">
        <ele>78.199996948242</ele>
        <time>2018-05-08T07:56:33.000Z</time>
      </trkpt>
      <trkpt lat="48.47027" lon="-4.53444">
        <ele>78.400001525879</ele>
        <time>2018-05-08T07:56:38.000Z</time>
      </trkpt>
      <trkpt lat="48.47034" lon="-4.5344">
        <ele>78.599998474121</ele>
        <time>2018-05-08T07:56:43.000Z</time>
      </trkpt>
      <trkpt lat="48.47049" lon="-4.53435">
        <ele>79</ele>
        <time>2018-05-08T07:56:48.000Z</time>
      </trkpt>
      <trkpt lat="48.47059" lon="-4.53426">
        <ele>79.400001525879</ele>
        <time>2018-05-08T07:56:51.000Z</time>
      </trkpt>
      <trkpt lat="48.47061" lon="-4.53395">
        <ele>79.599998474121</ele>
        <time>2018-05-08T07:56:56.000Z</time>
      </trkpt>
      <trkpt lat="48.47058" lon="-4.5337">
        <ele>79.400001525879</ele>
        <time>2018-05-08T07:57:01.000Z</time>
      </trkpt>
      <trkpt lat="48.47059" lon="-4.53351">
        <ele>80.199996948242</ele>
        <time>2018-05-08T07:57:06.000Z</time>
      </trkpt>
      <trkpt lat="48.47066" lon="-4.53327">
        <ele>81.199996948242</ele>
        <time>2018-05-08T07:57:11.000Z</time>
      </trkpt>
      <trkpt lat="48.47071" lon="-4.53306">
        <ele>82</ele>
        <time>2018-05-08T07:57:15.000Z</time>
      </trkpt>
      <trkpt lat="48.47078" lon="-4.53281">
        <ele>83</ele>
        <time>2018-05-08T07:57:20.000Z</time>
      </trkpt>
      <trkpt lat="48.47083" lon="-4.53262">
        <ele>83.400001525879</ele>
        <time>2018-05-08T07:57:24.000Z</time>
      </trkpt>
      <trkpt lat="48.47083" lon="-4.53262">
        <ele>83.400001525879</ele>
        <time>2018-05-08T07:57:24.000Z</time>
      </trkpt>
      <trkpt lat="48.47083" lon="-4.53258">
        <ele>83.599998474121</ele>
        <time>2018-05-08T07:57:25.000Z</time>
      </trkpt>
      <trkpt lat="48.47084" lon="-4.53233">
        <ele>83.800003051758</ele>
        <time>2018-05-08T07:57:29.000Z</time>
      </trkpt>
      <trkpt lat="48.47083" lon="-4.53204">
        <ele>84.400001525879</ele>
        <time>2018-05-08T07:57:34.000Z</time>
      </trkpt>
      <trkpt lat="48.47074" lon="-4.53191">
        <ele>84.199996948242</ele>
        <time>2018-05-08T07:57:38.000Z</time>
      </trkpt>
      <trkpt lat="48.4706" lon="-4.53179">
        <ele>83.599998474121</ele>
        <time>2018-05-08T07:57:43.000Z</time>
      </trkpt>
      <trkpt lat="48.47038" lon="-4.53165">
        <ele>83.400001525879</ele>
        <time>2018-05-08T07:57:49.000Z</time>
      </trkpt>
      <trkpt lat="48.47017" lon="-4.53156">
        <ele>84.599998474121</ele>
        <time>2018-05-08T07:57:54.000Z</time>
      </trkpt>
      <trkpt lat="48.46996" lon="-4.53142">
        <ele>85.400001525879</ele>
        <time>2018-05-08T07:57:59.000Z</time>
      </trkpt>
      <trkpt lat="48.46991" lon="-4.53117">
        <ele>86</ele>
        <time>2018-05-08T07:58:03.000Z</time>
      </trkpt>
      <trkpt lat="48.46988" lon="-4.53082">
        <ele>85.599998474121</ele>
        <time>2018-05-08T07:58:08.000Z</time>
      </trkpt>
      <trkpt lat="48.46976" lon="-4.53051">
        <ele>85.400001525879</ele>
        <time>2018-05-08T07:58:13.000Z</time>
      </trkpt>
      <trkpt lat="48.46971" lon="-4.53048">
        <ele>85.599998474121</ele>
        <time>2018-05-08T07:58:14.000Z</time>
      </trkpt>
      <trkpt lat="48.46934" lon="-4.53029">
        <ele>86</ele>
        <time>2018-05-08T07:58:22.000Z</time>
      </trkpt>
      <trkpt lat="48.46894" lon="-4.53009">
        <ele>88.199996948242</ele>
        <time>2018-05-08T07:58:30.000Z</time>
      </trkpt>
      <trkpt lat="48.46855" lon="-4.52996">
        <ele>90.199996948242</ele>
        <time>2018-05-08T07:58:38.000Z</time>
      </trkpt>
      <trkpt lat="48.46815" lon="-4.52988">
        <ele>91.400001525879</ele>
        <time>2018-05-08T07:58:46.000Z</time>
      </trkpt>
      <trkpt lat="48.46775" lon="-4.52981">
        <ele>91.800003051758</ele>
        <time>2018-05-08T07:58:54.000Z</time>
      </trkpt>
      <trkpt lat="48.46741" lon="-4.52967">
        <ele>92</ele>
        <time>2018-05-08T07:59:01.000Z</time>
      </trkpt>
      <trkpt lat="48.46708" lon="-4.52961">
        <ele>92</ele>
        <time>2018-05-08T07:59:07.000Z</time>
      </trkpt>
      <trkpt lat="48.46662" lon="-4.52956">
        <ele>92.199996948242</ele>
        <time>2018-05-08T07:59:15.000Z</time>
      </trkpt>
      <trkpt lat="48.46648" lon="-4.52954">
        <ele>92</ele>
        <time>2018-05-08T07:59:18.000Z</time>
      </trkpt>
      <trkpt lat="48.46643" lon="-4.52937">
        <ele>91.599998474121</ele>
        <time>2018-05-08T07:59:22.000Z</time>
      </trkpt>
      <trkpt lat="48.46645" lon="-4.52931">
        <ele>91.599998474121</ele>
        <time>2018-05-08T07:59:23.000Z</time>
      </trkpt>
      <trkpt lat="48.46661" lon="-4.52881">
        <ele>90.400001525879</ele>
        <time>2018-05-08T07:59:31.000Z</time>
      </trkpt>
      <trkpt lat="48.46669" lon="-4.52852">
        <ele>90</ele>
        <time>2018-05-08T07:59:35.000Z</time>
      </trkpt>
      <trkpt lat="48.46685" lon="-4.52816">
        <ele>89.400001525879</ele>
        <time>2018-05-08T07:59:40.000Z</time>
      </trkpt>
      <trkpt lat="48.46691" lon="-4.52782">
        <ele>88.800003051758</ele>
        <time>2018-05-08T07:59:45.000Z</time>
      </trkpt>
      <trkpt lat="48.46692" lon="-4.52748">
        <ele>87.800003051758</ele>
        <time>2018-05-08T07:59:49.000Z</time>
      </trkpt>
      <trkpt lat="48.46692" lon="-4.5274">
        <ele>87.400001525879</ele>
        <time>2018-05-08T07:59:50.000Z</time>
      </trkpt>
      <trkpt lat="48.46693" lon="-4.52724">
        <ele>86.800003051758</ele>
        <time>2018-05-08T07:59:52.000Z</time>
      </trkpt>
      <trkpt lat="48.46678" lon="-4.52707">
        <ele>86.400001525879</ele>
        <time>2018-05-08T07:59:56.000Z</time>
      </trkpt>
      <trkpt lat="48.46655" lon="-4.52685">
        <ele>86.199996948242</ele>
        <time>2018-05-08T08:00:01.000Z</time>
      </trkpt>
      <trkpt lat="48.4664" lon="-4.52673">
        <ele>86.199996948242</ele>
        <time>2018-05-08T08:00:04.000Z</time>
      </trkpt>
      <trkpt lat="48.46631" lon="-4.52667">
        <ele>86.199996948242</ele>
        <time>2018-05-08T08:00:06.000Z</time>
      </trkpt>
      <trkpt lat="48.46618" lon="-4.52649">
        <ele>85.800003051758</ele>
        <time>2018-05-08T08:00:10.000Z</time>
      </trkpt>
      <trkpt lat="48.46613" lon="-4.52636">
        <ele>85.400001525879</ele>
        <time>2018-05-08T08:00:12.000Z</time>
      </trkpt>
      <trkpt lat="48.46593" lon="-4.52586">
        <ele>85.400001525879</ele>
        <time>2018-05-08T08:00:19.000Z</time>
      </trkpt>
      <trkpt lat="48.46587" lon="-4.52572">
        <ele>85.800003051758</ele>
        <time>2018-05-08T08:00:21.000Z</time>
      </trkpt>
      <trkpt lat="48.46566" lon="-4.52527">
        <ele>86</ele>
        <time>2018-05-08T08:00:28.000Z</time>
      </trkpt>
      <trkpt lat="48.46564" lon="-4.52521">
        <ele>86</ele>
        <time>2018-05-08T08:00:29.000Z</time>
      </trkpt>
      <trkpt lat="48.46552" lon="-4.52496">
        <ele>85.800003051758</ele>
        <time>2018-05-08T08:00:33.000Z</time>
      </trkpt>
      <trkpt lat="48.46544" lon="-4.52459">
        <ele>86.400001525879</ele>
        <time>2018-05-08T08:00:39.000Z</time>
      </trkpt>
      <trkpt lat="48.46552" lon="-4.52443">
        <ele>85.800003051758</ele>
        <time>2018-05-08T08:00:42.000Z</time>
      </trkpt>
      <trkpt lat="48.46564" lon="-4.52426">
        <ele>85.199996948242</ele>
        <time>2018-05-08T08:00:45.000Z</time>
      </trkpt>
      <trkpt lat="48.46578" lon="-4.5241">
        <ele>84.400001525879</ele>
        <time>2018-05-08T08:00:48.000Z</time>
      </trkpt>
      <trkpt lat="48.46595" lon="-4.5239">
        <ele>83.199996948242</ele>
        <time>2018-05-08T08:00:52.000Z</time>
      </trkpt>
      <trkpt lat="48.46605" lon="-4.52383">
        <ele>83</ele>
        <time>2018-05-08T08:00:57.000Z</time>
      </trkpt>
      <trkpt lat="48.46609" lon="-4.52374">
        <ele>83.199996948242</ele>
        <time>2018-05-08T08:01:02.000Z</time>
      </trkpt>
      <trkpt lat="48.46614" lon="-4.52363">
        <ele>83.199996948242</ele>
        <time>2018-05-08T08:01:06.000Z</time>
      </trkpt>
      <trkpt lat="48.46615" lon="-4.52355">
        <ele>83.400001525879</ele>
        <time>2018-05-08T08:01:08.000Z</time>
      </trkpt>
      <trkpt lat="48.46617" lon="-4.52332">
        <ele>83.400001525879</ele>
        <time>2018-05-08T08:01:14.000Z</time>
      </trkpt>
      <trkpt lat="48.4662" lon="-4.52297">
        <ele>83.400001525879</ele>
        <time>2018-05-08T08:01:20.000Z</time>
      </trkpt>
      <trkpt lat="48.4662" lon="-4.52269">
        <ele>83.599998474121</ele>
        <time>2018-05-08T08:01:25.000Z</time>
      </trkpt>
      <trkpt lat="48.46629" lon="-4.52259">
        <ele>84</ele>
        <time>2018-05-08T08:01:29.000Z</time>
      </trkpt>
      <trkpt lat="48.46635" lon="-4.52254">
        <ele>84.199996948242</ele>
        <time>2018-05-08T08:01:31.000Z</time>
      </trkpt>
      <trkpt lat="48.46631" lon="-4.52232">
        <ele>83.800003051758</ele>
        <time>2018-05-08T08:01:36.000Z</time>
      </trkpt>
      <trkpt lat="48.46621" lon="-4.52217">
        <ele>83.199996948242</ele>
        <time>2018-05-08T08:01:40.000Z</time>
      </trkpt>
      <trkpt lat="48.46614" lon="-4.52192">
        <ele>83</ele>
        <time>2018-05-08T08:01:45.000Z</time>
      </trkpt>
      <trkpt lat="48.46612" lon="-4.52183">
        <ele>83</ele>
        <time>2018-05-08T08:01:47.000Z</time>
      </trkpt>
      <trkpt lat="48.46616" lon="-4.52168">
        <ele>83.400001525879</ele>
        <time>2018-05-08T08:01:52.000Z</time>
      </trkpt>
      <trkpt lat="48.4662" lon="-4.52146">
        <ele>84</ele>
        <time>2018-05-08T08:01:57.000Z</time>
      </trkpt>
      <trkpt lat="48.46627" lon="-4.52117">
        <ele>84.599998474121</ele>
        <time>2018-05-08T08:02:04.000Z</time>
      </trkpt>
      <trkpt lat="48.46634" lon="-4.52083">
        <ele>85.400001525879</ele>
        <time>2018-05-08T08:02:11.000Z</time>
      </trkpt>
      <trkpt lat="48.46637" lon="-4.52056">
        <ele>86.199996948242</ele>
        <time>2018-05-08T08:02:17.000Z</time>
      </trkpt>
      <trkpt lat="48.46638" lon="-4.5203">
        <ele>87</ele>
        <time>2018-05-08T08:02:23.000Z</time>
      </trkpt>
      <trkpt lat="48.46649" lon="-4.5199">
        <ele>89</ele>
        <time>2018-05-08T08:02:32.000Z</time>
      </trkpt>
      <trkpt lat="48.46651" lon="-4.51968">
        <ele>89.599998474121</ele>
        <time>2018-05-08T08:02:37.000Z</time>
      </trkpt>
      <trkpt lat="48.4665" lon="-4.51938">
        <ele>90</ele>
        <time>2018-05-08T08:02:43.000Z</time>
      </trkpt>
      <trkpt lat="48.46643" lon="-4.51912">
        <ele>89.599998474121</ele>
        <time>2018-05-08T08:02:48.000Z</time>
      </trkpt>
      <trkpt lat="48.46638" lon="-4.51892">
        <ele>89.800003051758</ele>
        <time>2018-05-08T08:02:51.000Z</time>
      </trkpt>
      <trkpt lat="48.46618" lon="-4.51836">
        <ele>89.800003051758</ele>
        <time>2018-05-08T08:02:59.000Z</time>
      </trkpt>
      <trkpt lat="48.46608" lon="-4.51808">
        <ele>90</ele>
        <time>2018-05-08T08:03:03.000Z</time>
      </trkpt>
      <trkpt lat="48.46604" lon="-4.51795">
        <ele>90</ele>
        <time>2018-05-08T08:03:05.000Z</time>
      </trkpt>
      <trkpt lat="48.46594" lon="-4.51751">
        <ele>89.400001525879</ele>
        <time>2018-05-08T08:03:11.000Z</time>
      </trkpt>
      <trkpt lat="48.46599" lon="-4.51716">
        <ele>89.199996948242</ele>
        <time>2018-05-08T08:03:16.000Z</time>
      </trkpt>
      <trkpt lat="48.46612" lon="-4.51683">
        <ele>89.199996948242</ele>
        <time>2018-05-08T08:03:23.000Z</time>
      </trkpt>
      <trkpt lat="48.46613" lon="-4.51676">
        <ele>89.400001525879</ele>
        <time>2018-05-08T08:03:27.000Z</time>
      </trkpt>
      <trkpt lat="48.46615" lon="-4.51654">
        <ele>90</ele>
        <time>2018-05-08T08:03:31.000Z</time>
      </trkpt>
      <trkpt lat="48.46624" lon="-4.51617">
        <ele>90.800003051758</ele>
        <time>2018-05-08T08:03:36.000Z</time>
      </trkpt>
      <trkpt lat="48.46624" lon="-4.51608">
        <ele>90.800003051758</ele>
        <time>2018-05-08T08:03:37.000Z</time>
      </trkpt>
      <trkpt lat="48.46621" lon="-4.51578">
        <ele>90.599998474121</ele>
        <time>2018-05-08T08:03:41.000Z</time>
      </trkpt>
      <trkpt lat="48.46604" lon="-4.51566">
        <ele>90.400001525879</ele>
        <time>2018-05-08T08:03:45.000Z</time>
      </trkpt>
      <trkpt lat="48.46596" lon="-4.51543">
        <ele>90</ele>
        <time>2018-05-08T08:03:48.000Z</time>
      </trkpt>
      <trkpt lat="48.46595" lon="-4.51534">
        <ele>89.800003051758</ele>
        <time>2018-05-08T08:03:49.000Z</time>
      </trkpt>
      <trkpt lat="48.46588" lon="-4.51487">
        <ele>88.400001525879</ele>
        <time>2018-05-08T08:03:55.000Z</time>
      </trkpt>
      <trkpt lat="48.46582" lon="-4.51451">
        <ele>87.599998474121</ele>
        <time>2018-05-08T08:03:59.000Z</time>
      </trkpt>
      <trkpt lat="48.46573" lon="-4.51389">
        <ele>87.400001525879</ele>
        <time>2018-05-08T08:04:05.000Z</time>
      </trkpt>
      <trkpt lat="48.46568" lon="-4.51358">
        <ele>87.199996948242</ele>
        <time>2018-05-08T08:04:08.000Z</time>
      </trkpt>
      <trkpt lat="48.46554" lon="-4.51299">
        <ele>88</ele>
        <time>2018-05-08T08:04:14.000Z</time>
      </trkpt>
      <trkpt lat="48.46552" lon="-4.5129">
        <ele>88.400001525879</ele>
        <time>2018-05-08T08:04:15.000Z</time>
      </trkpt>
      <trkpt lat="48.46543" lon="-4.51265">
        <ele>89</ele>
        <time>2018-05-08T08:04:18.000Z</time>
      </trkpt>
      <trkpt lat="48.46538" lon="-4.51231">
        <ele>89.800003051758</ele>
        <time>2018-05-08T08:04:22.000Z</time>
      </trkpt>
      <trkpt lat="48.46545" lon="-4.51204">
        <ele>90.199996948242</ele>
        <time>2018-05-08T08:04:25.000Z</time>
      </trkpt>
      <trkpt lat="48.46552" lon="-4.51189">
        <ele>90.199996948242</ele>
        <time>2018-05-08T08:04:27.000Z</time>
      </trkpt>
      <trkpt lat="48.46558" lon="-4.51145">
        <ele>90.199996948242</ele>
        <time>2018-05-08T08:04:32.000Z</time>
      </trkpt>
      <trkpt lat="48.46557" lon="-4.51135">
        <ele>90.400001525879</ele>
        <time>2018-05-08T08:04:33.000Z</time>
      </trkpt>
      <trkpt lat="48.46553" lon="-4.51053">
        <ele>91.800003051758</ele>
        <time>2018-05-08T08:04:42.000Z</time>
      </trkpt>
      <trkpt lat="48.46551" lon="-4.51027">
        <ele>92.400001525879</ele>
        <time>2018-05-08T08:04:45.000Z</time>
      </trkpt>
      <trkpt lat="48.46539" lon="-4.51003">
        <ele>92.800003051758</ele>
        <time>2018-05-08T08:04:49.000Z</time>
      </trkpt>
      <trkpt lat="48.46528" lon="-4.50998">
        <ele>93.400001525879</ele>
        <time>2018-05-08T08:04:51.000Z</time>
      </trkpt>
      <trkpt lat="48.46491" lon="-4.50981">
        <ele>94</ele>
        <time>2018-05-08T08:04:58.000Z</time>
      </trkpt>
      <trkpt lat="48.46459" lon="-4.50964">
        <ele>93.400001525879</ele>
        <time>2018-05-08T08:05:05.000Z</time>
      </trkpt>
      <trkpt lat="48.46449" lon="-4.5094">
        <ele>93</ele>
        <time>2018-05-08T08:05:09.000Z</time>
      </trkpt>
      <trkpt lat="48.46443" lon="-4.50886">
        <ele>92.199996948242</ele>
        <time>2018-05-08T08:05:16.000Z</time>
      </trkpt>
      <trkpt lat="48.46433" lon="-4.50865">
        <ele>92</ele>
        <time>2018-05-08T08:05:20.000Z</time>
      </trkpt>
      <trkpt lat="48.46429" lon="-4.50865">
        <ele>92</ele>
        <time>2018-05-08T08:05:21.000Z</time>
      </trkpt>
      <trkpt lat="48.46375" lon="-4.50861">
        <ele>92.599998474121</ele>
        <time>2018-05-08T08:05:31.000Z</time>
      </trkpt>
      <trkpt lat="48.46321" lon="-4.50857">
        <ele>92.400001525879</ele>
        <time>2018-05-08T08:05:40.000Z</time>
      </trkpt>
      <trkpt lat="48.46285" lon="-4.50852">
        <ele>91.599998474121</ele>
        <time>2018-05-08T08:05:46.000Z</time>
      </trkpt>
      <trkpt lat="48.46254" lon="-4.5085">
        <ele>91.400001525879</ele>
        <time>2018-05-08T08:05:51.000Z</time>
      </trkpt>
      <trkpt lat="48.46216" lon="-4.50847">
        <ele>90</ele>
        <time>2018-05-08T08:05:57.000Z</time>
      </trkpt>
      <trkpt lat="48.46197" lon="-4.50845">
        <ele>89.199996948242</ele>
        <time>2018-05-08T08:06:00.000Z</time>
      </trkpt>
      <trkpt lat="48.46181" lon="-4.5086">
        <ele>88.800003051758</ele>
        <time>2018-05-08T08:06:04.000Z</time>
      </trkpt>
      <trkpt lat="48.46179" lon="-4.50877">
        <ele>89.199996948242</ele>
        <time>2018-05-08T08:06:07.000Z</time>
      </trkpt>
      <trkpt lat="48.46178" lon="-4.50899">
        <ele>89.599998474121</ele>
        <time>2018-05-08T08:06:10.000Z</time>
      </trkpt>
      <trkpt lat="48.46177" lon="-4.50944">
        <ele>90.800003051758</ele>
        <time>2018-05-08T08:06:15.000Z</time>
      </trkpt>
      <trkpt lat="48.46169" lon="-4.50948">
        <ele>90.599998474121</ele>
        <time>2018-05-08T08:06:17.000Z</time>
      </trkpt>
      <trkpt lat="48.46147" lon="-4.50943">
        <ele>90</ele>
        <time>2018-05-08T08:06:21.000Z</time>
      </trkpt>
      <trkpt lat="48.46141" lon="-4.50945">
        <ele>89.800003051758</ele>
        <time>2018-05-08T08:06:22.000Z</time>
      </trkpt>
      <trkpt lat="48.46096" lon="-4.50977">
        <ele>89.400001525879</ele>
        <time>2018-05-08T08:06:30.000Z</time>
      </trkpt>
      <trkpt lat="48.4609" lon="-4.5098">
        <ele>89.400001525879</ele>
        <time>2018-05-08T08:06:31.000Z</time>
      </trkpt>
      <trkpt lat="48.46077" lon="-4.50997">
        <ele>89.599998474121</ele>
        <time>2018-05-08T08:06:35.000Z</time>
      </trkpt>
      <trkpt lat="48.46059" lon="-4.51055">
        <ele>90.199996948242</ele>
        <time>2018-05-08T08:06:44.000Z</time>
      </trkpt>
      <trkpt lat="48.46048" lon="-4.51091">
        <ele>90.599998474121</ele>
        <time>2018-05-08T08:06:49.000Z</time>
      </trkpt>
      <trkpt lat="48.46031" lon="-4.51114">
        <ele>90.800003051758</ele>
        <time>2018-05-08T08:06:54.000Z</time>
      </trkpt>
      <trkpt lat="48.46027" lon="-4.51111">
        <ele>90.800003051758</ele>
        <time>2018-05-08T08:06:55.000Z</time>
      </trkpt>
      <trkpt lat="48.46001" lon="-4.51094">
        <ele>90.800003051758</ele>
        <time>2018-05-08T08:07:00.000Z</time>
      </trkpt>
      <trkpt lat="48.45994" lon="-4.51087">
        <ele>90.599998474121</ele>
        <time>2018-05-08T08:07:02.000Z</time>
      </trkpt>
      <trkpt lat="48.45973" lon="-4.51078">
        <ele>90.599998474121</ele>
        <time>2018-05-08T08:07:06.000Z</time>
      </trkpt>
      <trkpt lat="48.45958" lon="-4.51075">
        <ele>90.400001525879</ele>
        <time>2018-05-08T08:07:09.000Z</time>
      </trkpt>
      <trkpt lat="48.45936" lon="-4.51064">
        <ele>90.400001525879</ele>
        <time>2018-05-08T08:07:14.000Z</time>
      </trkpt>
      <trkpt lat="48.45921" lon="-4.51059">
        <ele>90.400001525879</ele>
        <time>2018-05-08T08:07:17.000Z</time>
      </trkpt>
      <trkpt lat="48.45912" lon="-4.51057">
        <ele>90.599998474121</ele>
        <time>2018-05-08T08:07:19.000Z</time>
      </trkpt>
      <trkpt lat="48.45892" lon="-4.51053">
        <ele>91.199996948242</ele>
        <time>2018-05-08T08:07:23.000Z</time>
      </trkpt>
      <trkpt lat="48.45864" lon="-4.5104">
        <ele>92.400001525879</ele>
        <time>2018-05-08T08:07:29.000Z</time>
      </trkpt>
      <trkpt lat="48.4584" lon="-4.51031">
        <ele>93</ele>
        <time>2018-05-08T08:07:34.000Z</time>
      </trkpt>
      <trkpt lat="48.4582" lon="-4.51026">
        <ele>93.199996948242</ele>
        <time>2018-05-08T08:07:38.000Z</time>
      </trkpt>
      <trkpt lat="48.458" lon="-4.51">
        <ele>92.800003051758</ele>
        <time>2018-05-08T08:07:44.000Z</time>
      </trkpt>
      <trkpt lat="48.45798" lon="-4.50993">
        <ele>92.800003051758</ele>
        <time>2018-05-08T08:07:45.000Z</time>
      </trkpt>
      <trkpt lat="48.45792" lon="-4.50966">
        <ele>93</ele>
        <time>2018-05-08T08:07:49.000Z</time>
      </trkpt>
      <trkpt lat="48.45789" lon="-4.50953">
        <ele>93.199996948242</ele>
        <time>2018-05-08T08:07:51.000Z</time>
      </trkpt>
      <trkpt lat="48.4578" lon="-4.50928">
        <ele>93.599998474121</ele>
        <time>2018-05-08T08:07:55.000Z</time>
      </trkpt>
      <trkpt lat="48.45767" lon="-4.50895">
        <ele>94</ele>
        <time>2018-05-08T08:08:00.000Z</time>
      </trkpt>
      <trkpt lat="48.45747" lon="-4.50859">
        <ele>94</ele>
        <time>2018-05-08T08:08:06.000Z</time>
      </trkpt>
      <trkpt lat="48.45724" lon="-4.50823">
        <ele>93.400001525879</ele>
        <time>2018-05-08T08:08:12.000Z</time>
      </trkpt>
      <trkpt lat="48.45698" lon="-4.50783">
        <ele>93</ele>
        <time>2018-05-08T08:08:19.000Z</time>
      </trkpt>
      <trkpt lat="48.4567" lon="-4.50736">
        <ele>92.400001525879</ele>
        <time>2018-05-08T08:08:26.000Z</time>
      </trkpt>
      <trkpt lat="48.45661" lon="-4.50718">
        <ele>92.199996948242</ele>
        <time>2018-05-08T08:08:28.000Z</time>
      </trkpt>
      <trkpt lat="48.45619" lon="-4.50658">
        <ele>91</ele>
        <time>2018-05-08T08:08:35.000Z</time>
      </trkpt>
      <trkpt lat="48.45568" lon="-4.50601">
        <ele>89.599998474121</ele>
        <time>2018-05-08T08:08:43.000Z</time>
      </trkpt>
      <trkpt lat="48.45551" lon="-4.5058">
        <ele>89.199996948242</ele>
        <time>2018-05-08T08:08:46.000Z</time>
      </trkpt>
      <trkpt lat="48.45519" lon="-4.50537">
        <ele>89</ele>
        <time>2018-05-08T08:08:52.000Z</time>
      </trkpt>
      <trkpt lat="48.45489" lon="-4.50497">
        <ele>88.800003051758</ele>
        <time>2018-05-08T08:08:58.000Z</time>
      </trkpt>
      <trkpt lat="48.4547" lon="-4.50463">
        <ele>88</ele>
        <time>2018-05-08T08:09:04.000Z</time>
      </trkpt>
      <trkpt lat="48.45464" lon="-4.50453">
        <ele>87.800003051758</ele>
        <time>2018-05-08T08:09:06.000Z</time>
      </trkpt>
      <trkpt lat="48.45456" lon="-4.50442">
        <ele>87.599998474121</ele>
        <time>2018-05-08T08:09:10.000Z</time>
      </trkpt>
      <trkpt lat="48.45454" lon="-4.50438">
        <ele>87.599998474121</ele>
        <time>2018-05-08T08:09:12.000Z</time>
      </trkpt>
      <trkpt lat="48.45447" lon="-4.50428">
        <ele>87.599998474121</ele>
        <time>2018-05-08T08:09:19.000Z</time>
      </trkpt>
      <trkpt lat="48.45444" lon="-4.50416">
        <ele>87.400001525879</ele>
        <time>2018-05-08T08:09:41.000Z</time>
      </trkpt>
      <trkpt lat="48.45428" lon="-4.50379">
        <ele>87.400001525879</ele>
        <time>2018-05-08T08:09:48.000Z</time>
      </trkpt>
      <trkpt lat="48.45422" lon="-4.50367">
        <ele>87.400001525879</ele>
        <time>2018-05-08T08:09:50.000Z</time>
      </trkpt>
      <trkpt lat="48.45398" lon="-4.5031">
        <ele>87.800003051758</ele>
        <time>2018-05-08T08:09:58.000Z</time>
      </trkpt>
      <trkpt lat="48.45367" lon="-4.50236">
        <ele>88.400001525879</ele>
        <time>2018-05-08T08:10:07.000Z</time>
      </trkpt>
      <trkpt lat="48.45354" lon="-4.50185">
        <ele>89</ele>
        <time>2018-05-08T08:10:13.000Z</time>
      </trkpt>
      <trkpt lat="48.4535" lon="-4.50169">
        <ele>89.400001525879</ele>
        <time>2018-05-08T08:10:15.000Z</time>
      </trkpt>
      <trkpt lat="48.45336" lon="-4.50143">
        <ele>90.400001525879</ele>
        <time>2018-05-08T08:10:19.000Z</time>
      </trkpt>
      <trkpt lat="48.45306" lon="-4.50106">
        <ele>91.599998474121</ele>
        <time>2018-05-08T08:10:26.000Z</time>
      </trkpt>
      <trkpt lat="48.45292" lon="-4.50064">
        <ele>92</ele>
        <time>2018-05-08T08:10:32.000Z</time>
      </trkpt>
      <trkpt lat="48.45291" lon="-4.50056">
        <ele>92</ele>
        <time>2018-05-08T08:10:33.000Z</time>
      </trkpt>
      <trkpt lat="48.4528" lon="-4.49963">
        <ele>93.599998474121</ele>
        <time>2018-05-08T08:10:44.000Z</time>
      </trkpt>
      <trkpt lat="48.45279" lon="-4.49955">
        <ele>93.800003051758</ele>
        <time>2018-05-08T08:10:45.000Z</time>
      </trkpt>
      <trkpt lat="48.45271" lon="-4.49892">
        <ele>94.599998474121</ele>
        <time>2018-05-08T08:10:53.000Z</time>
      </trkpt>
      <trkpt lat="48.45264" lon="-4.49861">
        <ele>95</ele>
        <time>2018-05-08T08:10:57.000Z</time>
      </trkpt>
      <trkpt lat="48.45259" lon="-4.4982">
        <ele>95.599998474121</ele>
        <time>2018-05-08T08:11:02.000Z</time>
      </trkpt>
      <trkpt lat="48.45259" lon="-4.49796">
        <ele>95.800003051758</ele>
        <time>2018-05-08T08:11:05.000Z</time>
      </trkpt>
      <trkpt lat="48.4527" lon="-4.49759">
        <ele>95.800003051758</ele>
        <time>2018-05-08T08:11:10.000Z</time>
      </trkpt>
      <trkpt lat="48.45296" lon="-4.49721">
        <ele>96</ele>
        <time>2018-05-08T08:11:17.000Z</time>
      </trkpt>
      <trkpt lat="48.45307" lon="-4.49695">
        <ele>96</ele>
        <time>2018-05-08T08:11:21.000Z</time>
      </trkpt>
      <trkpt lat="48.45316" lon="-4.49652">
        <ele>96.800003051758</ele>
        <time>2018-05-08T08:11:27.000Z</time>
      </trkpt>
      <trkpt lat="48.45317" lon="-4.49644">
        <ele>97</ele>
        <time>2018-05-08T08:11:28.000Z</time>
      </trkpt>
      <trkpt lat="48.4533" lon="-4.4961">
        <ele>97.599998474121</ele>
        <time>2018-05-08T08:11:33.000Z</time>
      </trkpt>
      <trkpt lat="48.45341" lon="-4.49596">
        <ele>97.800003051758</ele>
        <time>2018-05-08T08:11:36.000Z</time>
      </trkpt>
      <trkpt lat="48.45371" lon="-4.49571">
        <ele>97.800003051758</ele>
        <time>2018-05-08T08:11:42.000Z</time>
      </trkpt>
      <trkpt lat="48.45381" lon="-4.49563">
        <ele>97.599998474121</ele>
        <time>2018-05-08T08:11:44.000Z</time>
      </trkpt>
      <trkpt lat="48.45398" lon="-4.49527">
        <ele>97.400001525879</ele>
        <time>2018-05-08T08:11:49.000Z</time>
      </trkpt>
      <trkpt lat="48.45401" lon="-4.4952">
        <ele>97.599998474121</ele>
        <time>2018-05-08T08:11:50.000Z</time>
      </trkpt>
      <trkpt lat="48.45414" lon="-4.49472">
        <ele>98</ele>
        <time>2018-05-08T08:11:56.000Z</time>
      </trkpt>
      <trkpt lat="48.45418" lon="-4.49437">
        <ele>98.400001525879</ele>
        <time>2018-05-08T08:12:00.000Z</time>
      </trkpt>
      <trkpt lat="48.4542" lon="-4.49366">
        <ele>99</ele>
        <time>2018-05-08T08:12:08.000Z</time>
      </trkpt>
      <trkpt lat="48.45417" lon="-4.49348">
        <ele>99.199996948242</ele>
        <time>2018-05-08T08:12:10.000Z</time>
      </trkpt>
      <trkpt lat="48.45411" lon="-4.49325">
        <ele>99.400001525879</ele>
        <time>2018-05-08T08:12:13.000Z</time>
      </trkpt>
      <trkpt lat="48.45407" lon="-4.49311">
        <ele>99.599998474121</ele>
        <time>2018-05-08T08:12:15.000Z</time>
      </trkpt>
      <trkpt lat="48.454" lon="-4.49276">
        <ele>100</ele>
        <time>2018-05-08T08:12:19.000Z</time>
      </trkpt>
      <trkpt lat="48.45385" lon="-4.49256">
        <ele>99.199996948242</ele>
        <time>2018-05-08T08:12:23.000Z</time>
      </trkpt>
      <trkpt lat="48.45358" lon="-4.49249">
        <ele>99.199996948242</ele>
        <time>2018-05-08T08:12:29.000Z</time>
      </trkpt>
      <trkpt lat="48.45324" lon="-4.4924">
        <ele>98.199996948242</ele>
        <time>2018-05-08T08:12:36.000Z</time>
      </trkpt>
      <trkpt lat="48.45289" lon="-4.49235">
        <ele>97.800003051758</ele>
        <time>2018-05-08T08:12:42.000Z</time>
      </trkpt>
      <trkpt lat="48.4526" lon="-4.49239">
        <ele>97.800003051758</ele>
        <time>2018-05-08T08:12:47.000Z</time>
      </trkpt>
      <trkpt lat="48.45229" lon="-4.49245">
        <ele>96.800003051758</ele>
        <time>2018-05-08T08:12:52.000Z</time>
      </trkpt>
      <trkpt lat="48.45217" lon="-4.49248">
        <ele>96.400001525879</ele>
        <time>2018-05-08T08:12:54.000Z</time>
      </trkpt>
      <trkpt lat="48.45197" lon="-4.49236">
        <ele>95.800003051758</ele>
        <time>2018-05-08T08:12:58.000Z</time>
      </trkpt>
      <trkpt lat="48.45195" lon="-4.4922">
        <ele>95.599998474121</ele>
        <time>2018-05-08T08:13:00.000Z</time>
      </trkpt>
      <trkpt lat="48.45192" lon="-4.49149">
        <ele>94.400001525879</ele>
        <time>2018-05-08T08:13:07.000Z</time>
      </trkpt>
      <trkpt lat="48.45194" lon="-4.49083">
        <ele>93.800003051758</ele>
        <time>2018-05-08T08:13:13.000Z</time>
      </trkpt>
      <trkpt lat="48.45193" lon="-4.48979">
        <ele>92</ele>
        <time>2018-05-08T08:13:22.000Z</time>
      </trkpt>
      <trkpt lat="48.45192" lon="-4.48967">
        <ele>91.800003051758</ele>
        <time>2018-05-08T08:13:23.000Z</time>
      </trkpt>
      <trkpt lat="48.45177" lon="-4.48912">
        <ele>90.199996948242</ele>
        <time>2018-05-08T08:13:28.000Z</time>
      </trkpt>
      <trkpt lat="48.4515" lon="-4.48826">
        <ele>88.800003051758</ele>
        <time>2018-05-08T08:13:36.000Z</time>
      </trkpt>
      <trkpt lat="48.45136" lon="-4.48759">
        <ele>88.199996948242</ele>
        <time>2018-05-08T08:13:42.000Z</time>
      </trkpt>
      <trkpt lat="48.45116" lon="-4.48686">
        <ele>89</ele>
        <time>2018-05-08T08:13:49.000Z</time>
      </trkpt>
      <trkpt lat="48.45094" lon="-4.48613">
        <ele>90</ele>
        <time>2018-05-08T08:13:56.000Z</time>
      </trkpt>
      <trkpt lat="48.45082" lon="-4.48551">
        <ele>90.199996948242</ele>
        <time>2018-05-08T08:14:02.000Z</time>
      </trkpt>
      <trkpt lat="48.45078" lon="-4.48474">
        <ele>90.199996948242</ele>
        <time>2018-05-08T08:14:09.000Z</time>
      </trkpt>
      <trkpt lat="48.4507" lon="-4.48393">
        <ele>88</ele>
        <time>2018-05-08T08:14:16.000Z</time>
      </trkpt>
      <trkpt lat="48.45065" lon="-4.48338">
        <ele>86.800003051758</ele>
        <time>2018-05-08T08:14:21.000Z</time>
      </trkpt>
      <trkpt lat="48.45059" lon="-4.48257">
        <ele>85.199996948242</ele>
        <time>2018-05-08T08:14:27.000Z</time>
      </trkpt>
      <trkpt lat="48.45056" lon="-4.48213">
        <ele>84.199996948242</ele>
        <time>2018-05-08T08:14:31.000Z</time>
      </trkpt>
      <trkpt lat="48.45051" lon="-4.48186">
        <ele>83.400001525879</ele>
        <time>2018-05-08T08:14:35.000Z</time>
      </trkpt>
      <trkpt lat="48.45049" lon="-4.4817">
        <ele>82.800003051758</ele>
        <time>2018-05-08T08:14:37.000Z</time>
      </trkpt>
      <trkpt lat="48.45048" lon="-4.48102">
        <ele>81.199996948242</ele>
        <time>2018-05-08T08:14:43.000Z</time>
      </trkpt>
      <trkpt lat="48.45047" lon="-4.4808">
        <ele>80.599998474121</ele>
        <time>2018-05-08T08:14:45.000Z</time>
      </trkpt>
      <trkpt lat="48.45048" lon="-4.48049">
        <ele>80.400001525879</ele>
        <time>2018-05-08T08:14:48.000Z</time>
      </trkpt>
      <trkpt lat="48.45051" lon="-4.47984">
        <ele>78.599998474121</ele>
        <time>2018-05-08T08:14:54.000Z</time>
      </trkpt>
      <trkpt lat="48.45056" lon="-4.47949">
        <ele>78</ele>
        <time>2018-05-08T08:14:58.000Z</time>
      </trkpt>
      <trkpt lat="48.45059" lon="-4.47933">
        <ele>77.800003051758</ele>
        <time>2018-05-08T08:15:00.000Z</time>
      </trkpt>
      <trkpt lat="48.45064" lon="-4.47909">
        <ele>77.599998474121</ele>
        <time>2018-05-08T08:15:03.000Z</time>
      </trkpt>
      <trkpt lat="48.45059" lon="-4.47866">
        <ele>77</ele>
        <time>2018-05-08T08:15:08.000Z</time>
      </trkpt>
      <trkpt lat="48.45045" lon="-4.47835">
        <ele>77</ele>
        <time>2018-05-08T08:15:12.000Z</time>
      </trkpt>
      <trkpt lat="48.45024" lon="-4.47814">
        <ele>76.800003051758</ele>
        <time>2018-05-08T08:15:16.000Z</time>
      </trkpt>
      <trkpt lat="48.45012" lon="-4.47792">
        <ele>76.599998474121</ele>
        <time>2018-05-08T08:15:20.000Z</time>
      </trkpt>
      <trkpt lat="48.45008" lon="-4.47769">
        <ele>77.400001525879</ele>
        <time>2018-05-08T08:15:24.000Z</time>
      </trkpt>
      <trkpt lat="48.45009" lon="-4.47764">
        <ele>77.599998474121</ele>
        <time>2018-05-08T08:15:25.000Z</time>
      </trkpt>
      <trkpt lat="48.45011" lon="-4.47751">
        <ele>78.400001525879</ele>
        <time>2018-05-08T08:15:27.000Z</time>
      </trkpt>
      <trkpt lat="48.45013" lon="-4.47709">
        <ele>80.400001525879</ele>
        <time>2018-05-08T08:15:33.000Z</time>
      </trkpt>
      <trkpt lat="48.45012" lon="-4.47702">
        <ele>80.800003051758</ele>
        <time>2018-05-08T08:15:34.000Z</time>
      </trkpt>
      <trkpt lat="48.45017" lon="-4.4767">
        <ele>82</ele>
        <time>2018-05-08T08:15:39.000Z</time>
      </trkpt>
      <trkpt lat="48.45014" lon="-4.47652">
        <ele>82.599998474121</ele>
        <time>2018-05-08T08:15:43.000Z</time>
      </trkpt>
      <trkpt lat="48.44984" lon="-4.47644">
        <ele>82.199996948242</ele>
        <time>2018-05-08T08:15:50.000Z</time>
      </trkpt>
      <trkpt lat="48.44951" lon="-4.47638">
        <ele>80.599998474121</ele>
        <time>2018-05-08T08:15:56.000Z</time>
      </trkpt>
      <trkpt lat="48.44945" lon="-4.47637">
        <ele>80.400001525879</ele>
        <time>2018-05-08T08:15:57.000Z</time>
      </trkpt>
      <trkpt lat="48.44934" lon="-4.4764">
        <ele>79.800003051758</ele>
        <time>2018-05-08T08:15:59.000Z</time>
      </trkpt>
      <trkpt lat="48.44923" lon="-4.47654">
        <ele>79.400001525879</ele>
        <time>2018-05-08T08:16:03.000Z</time>
      </trkpt>
      <trkpt lat="48.44922" lon="-4.47661">
        <ele>79.199996948242</ele>
        <time>2018-05-08T08:16:04.000Z</time>
      </trkpt>
      <trkpt lat="48.44909" lon="-4.47709">
        <ele>78</ele>
        <time>2018-05-08T08:16:10.000Z</time>
      </trkpt>
      <trkpt lat="48.44898" lon="-4.4777">
        <ele>74.800003051758</ele>
        <time>2018-05-08T08:16:16.000Z</time>
      </trkpt>
      <trkpt lat="48.44887" lon="-4.47797">
        <ele>73.599998474121</ele>
        <time>2018-05-08T08:16:19.000Z</time>
      </trkpt>
      <trkpt lat="48.4488" lon="-4.47847">
        <ele>72.400001525879</ele>
        <time>2018-05-08T08:16:24.000Z</time>
      </trkpt>
      <trkpt lat="48.44885" lon="-4.47884">
        <ele>71.800003051758</ele>
        <time>2018-05-08T08:16:28.000Z</time>
      </trkpt>
      <trkpt lat="48.4488" lon="-4.47903">
        <ele>71.599998474121</ele>
        <time>2018-05-08T08:16:31.000Z</time>
      </trkpt>
      <trkpt lat="48.44867" lon="-4.47913">
        <ele>71.400001525879</ele>
        <time>2018-05-08T08:16:33.000Z</time>
      </trkpt>
      <trkpt lat="48.44838" lon="-4.47949">
        <ele>70.599998474121</ele>
        <time>2018-05-08T08:16:38.000Z</time>
      </trkpt>
      <trkpt lat="48.44831" lon="-4.47967">
        <ele>70.199996948242</ele>
        <time>2018-05-08T08:16:40.000Z</time>
      </trkpt>
      <trkpt lat="48.44818" lon="-4.48005">
        <ele>69.400001525879</ele>
        <time>2018-05-08T08:16:45.000Z</time>
      </trkpt>
      <trkpt lat="48.44799" lon="-4.48065">
        <ele>69.400001525879</ele>
        <time>2018-05-08T08:16:52.000Z</time>
      </trkpt>
      <trkpt lat="48.44791" lon="-4.4809">
        <ele>69.599998474121</ele>
        <time>2018-05-08T08:16:55.000Z</time>
      </trkpt>
      <trkpt lat="48.4478" lon="-4.48125">
        <ele>69.400001525879</ele>
        <time>2018-05-08T08:16:59.000Z</time>
      </trkpt>
      <trkpt lat="48.44768" lon="-4.4816">
        <ele>70.599998474121</ele>
        <time>2018-05-08T08:17:04.000Z</time>
      </trkpt>
      <trkpt lat="48.44764" lon="-4.48172">
        <ele>71</ele>
        <time>2018-05-08T08:17:06.000Z</time>
      </trkpt>
      <trkpt lat="48.44747" lon="-4.48191">
        <ele>71.400001525879</ele>
        <time>2018-05-08T08:17:11.000Z</time>
      </trkpt>
      <trkpt lat="48.44735" lon="-4.48193">
        <ele>71.400001525879</ele>
        <time>2018-05-08T08:17:13.000Z</time>
      </trkpt>
      <trkpt lat="48.44705" lon="-4.4819">
        <ele>71</ele>
        <time>2018-05-08T08:17:19.000Z</time>
      </trkpt>
      <trkpt lat="48.4469" lon="-4.48187">
        <ele>70.599998474121</ele>
        <time>2018-05-08T08:17:22.000Z</time>
      </trkpt>
      <trkpt lat="48.44659" lon="-4.48198">
        <ele>70.199996948242</ele>
        <time>2018-05-08T08:17:28.000Z</time>
      </trkpt>
      <trkpt lat="48.4464" lon="-4.48209">
        <ele>70.199996948242</ele>
        <time>2018-05-08T08:17:32.000Z</time>
      </trkpt>
      <trkpt lat="48.44616" lon="-4.48228">
        <ele>70.599998474121</ele>
        <time>2018-05-08T08:17:38.000Z</time>
      </trkpt>
      <trkpt lat="48.44605" lon="-4.48239">
        <ele>71</ele>
        <time>2018-05-08T08:17:41.000Z</time>
      </trkpt>
      <trkpt lat="48.44582" lon="-4.48263">
        <ele>71</ele>
        <time>2018-05-08T08:17:46.000Z</time>
      </trkpt>
      <trkpt lat="48.44572" lon="-4.48273">
        <ele>70.599998474121</ele>
        <time>2018-05-08T08:17:48.000Z</time>
      </trkpt>
      <trkpt lat="48.44547" lon="-4.48302">
        <ele>69.199996948242</ele>
        <time>2018-05-08T08:17:53.000Z</time>
      </trkpt>
      <trkpt lat="48.4453" lon="-4.48351">
        <ele>68.199996948242</ele>
        <time>2018-05-08T08:17:58.000Z</time>
      </trkpt>
      <trkpt lat="48.44529" lon="-4.48358">
        <ele>68</ele>
        <time>2018-05-08T08:17:59.000Z</time>
      </trkpt>
      <trkpt lat="48.44527" lon="-4.48376">
        <ele>67.400001525879</ele>
        <time>2018-05-08T08:18:02.000Z</time>
      </trkpt>
      <trkpt lat="48.44527" lon="-4.48419">
        <ele>66.400001525879</ele>
        <time>2018-05-08T08:18:08.000Z</time>
      </trkpt>
      <trkpt lat="48.44526" lon="-4.48426">
        <ele>66.199996948242</ele>
        <time>2018-05-08T08:18:09.000Z</time>
      </trkpt>
      <trkpt lat="48.44526" lon="-4.4844">
        <ele>65.800003051758</ele>
        <time>2018-05-08T08:18:11.000Z</time>
      </trkpt>
      <trkpt lat="48.44526" lon="-4.48452">
        <ele>65.400001525879</ele>
        <time>2018-05-08T08:18:13.000Z</time>
      </trkpt>
      <trkpt lat="48.44528" lon="-4.48471">
        <ele>66</ele>
        <time>2018-05-08T08:18:16.000Z</time>
      </trkpt>
      <trkpt lat="48.44529" lon="-4.48502">
        <ele>66.800003051758</ele>
        <time>2018-05-08T08:18:21.000Z</time>
      </trkpt>
      <trkpt lat="48.44528" lon="-4.48534">
        <ele>67.400001525879</ele>
        <time>2018-05-08T08:18:26.000Z</time>
      </trkpt>
      <trkpt lat="48.44528" lon="-4.48541">
        <ele>67.599998474121</ele>
        <time>2018-05-08T08:18:27.000Z</time>
      </trkpt>
      <trkpt lat="48.44533" lon="-4.48603">
        <ele>70</ele>
        <time>2018-05-08T08:18:36.000Z</time>
      </trkpt>
      <trkpt lat="48.44538" lon="-4.48654">
        <ele>71</ele>
        <time>2018-05-08T08:18:43.000Z</time>
      </trkpt>
      <trkpt lat="48.44544" lon="-4.48701">
        <ele>71.599998474121</ele>
        <time>2018-05-08T08:18:50.000Z</time>
      </trkpt>
      <trkpt lat="48.44537" lon="-4.48716">
        <ele>71.800003051758</ele>
        <time>2018-05-08T08:18:54.000Z</time>
      </trkpt>
      <trkpt lat="48.44533" lon="-4.48717">
        <ele>71.599998474121</ele>
        <time>2018-05-08T08:18:55.000Z</time>
      </trkpt>
      <trkpt lat="48.44503" lon="-4.4872">
        <ele>71</ele>
        <time>2018-05-08T08:19:01.000Z</time>
      </trkpt>
      <trkpt lat="48.4446" lon="-4.48725">
        <ele>70.599998474121</ele>
        <time>2018-05-08T08:19:08.000Z</time>
      </trkpt>
      <trkpt lat="48.44432" lon="-4.48729">
        <ele>70.400001525879</ele>
        <time>2018-05-08T08:19:12.000Z</time>
      </trkpt>
      <trkpt lat="48.44389" lon="-4.48734">
        <ele>68.800003051758</ele>
        <time>2018-05-08T08:19:18.000Z</time>
      </trkpt>
      <trkpt lat="48.44353" lon="-4.48739">
        <ele>67.599998474121</ele>
        <time>2018-05-08T08:19:23.000Z</time>
      </trkpt>
      <trkpt lat="48.44302" lon="-4.48749">
        <ele>68.199996948242</ele>
        <time>2018-05-08T08:19:30.000Z</time>
      </trkpt>
      <trkpt lat="48.44265" lon="-4.48766">
        <ele>68.800003051758</ele>
        <time>2018-05-08T08:19:35.000Z</time>
      </trkpt>
      <trkpt lat="48.44228" lon="-4.48783">
        <ele>69.400001525879</ele>
        <time>2018-05-08T08:19:40.000Z</time>
      </trkpt>
      <trkpt lat="48.44183" lon="-4.48794">
        <ele>69.599998474121</ele>
        <time>2018-05-08T08:19:46.000Z</time>
      </trkpt>
      <trkpt lat="48.44129" lon="-4.48794">
        <ele>68.800003051758</ele>
        <time>2018-05-08T08:19:53.000Z</time>
      </trkpt>
      <trkpt lat="48.44097" lon="-4.48794">
        <ele>68</ele>
        <time>2018-05-08T08:19:58.000Z</time>
      </trkpt>
      <trkpt lat="48.44077" lon="-4.48794">
        <ele>66.599998474121</ele>
        <time>2018-05-08T08:20:02.000Z</time>
      </trkpt>
      <trkpt lat="48.44067" lon="-4.48811">
        <ele>66.599998474121</ele>
        <time>2018-05-08T08:20:06.000Z</time>
      </trkpt>
      <trkpt lat="48.44067" lon="-4.48817">
        <ele>66.800003051758</ele>
        <time>2018-05-08T08:20:07.000Z</time>
      </trkpt>
      <trkpt lat="48.44066" lon="-4.48843">
        <ele>67.199996948242</ele>
        <time>2018-05-08T08:20:11.000Z</time>
      </trkpt>
      <trkpt lat="48.44066" lon="-4.48864">
        <ele>67.400001525879</ele>
        <time>2018-05-08T08:20:14.000Z</time>
      </trkpt>
      <trkpt lat="48.44065" lon="-4.48886">
        <ele>68</ele>
        <time>2018-05-08T08:20:17.000Z</time>
      </trkpt>
      <trkpt lat="48.44057" lon="-4.4892">
        <ele>68.400001525879</ele>
        <time>2018-05-08T08:20:22.000Z</time>
      </trkpt>
      <trkpt lat="48.44052" lon="-4.48932">
        <ele>68.400001525879</ele>
        <time>2018-05-08T08:20:24.000Z</time>
      </trkpt>
      <trkpt lat="48.44032" lon="-4.48972">
        <ele>69.199996948242</ele>
        <time>2018-05-08T08:20:31.000Z</time>
      </trkpt>
      <trkpt lat="48.44026" lon="-4.48981">
        <ele>69.599998474121</ele>
        <time>2018-05-08T08:20:33.000Z</time>
      </trkpt>
      <trkpt lat="48.4402" lon="-4.49016">
        <ele>71.199996948242</ele>
        <time>2018-05-08T08:20:39.000Z</time>
      </trkpt>
      <trkpt lat="48.44018" lon="-4.49049">
        <ele>72.800003051758</ele>
        <time>2018-05-08T08:20:44.000Z</time>
      </trkpt>
      <trkpt lat="48.44003" lon="-4.49103">
        <ele>74.800003051758</ele>
        <time>2018-05-08T08:20:52.000Z</time>
      </trkpt>
      <trkpt lat="48.4399" lon="-4.49145">
        <ele>75</ele>
        <time>2018-05-08T08:20:58.000Z</time>
      </trkpt>
      <trkpt lat="48.4398" lon="-4.49203">
        <ele>74.800003051758</ele>
        <time>2018-05-08T08:21:06.000Z</time>
      </trkpt>
      <trkpt lat="48.43978" lon="-4.49212">
        <ele>74.800003051758</ele>
        <time>2018-05-08T08:21:07.000Z</time>
      </trkpt>
      <trkpt lat="48.43962" lon="-4.49265">
        <ele>74.800003051758</ele>
        <time>2018-05-08T08:21:14.000Z</time>
      </trkpt>
      <trkpt lat="48.43946" lon="-4.4929">
        <ele>74.199996948242</ele>
        <time>2018-05-08T08:21:18.000Z</time>
      </trkpt>
      <trkpt lat="48.43917" lon="-4.49323">
        <ele>72.599998474121</ele>
        <time>2018-05-08T08:21:24.000Z</time>
      </trkpt>
      <trkpt lat="48.43897" lon="-4.49349">
        <ele>71.599998474121</ele>
        <time>2018-05-08T08:21:29.000Z</time>
      </trkpt>
      <trkpt lat="48.43887" lon="-4.49341">
        <ele>71.599998474121</ele>
        <time>2018-05-08T08:21:31.000Z</time>
      </trkpt>
      <trkpt lat="48.43854" lon="-4.49303">
        <ele>68.800003051758</ele>
        <time>2018-05-08T08:21:37.000Z</time>
      </trkpt>
      <trkpt lat="48.43848" lon="-4.49296">
        <ele>68.199996948242</ele>
        <time>2018-05-08T08:21:38.000Z</time>
      </trkpt>
      <trkpt lat="48.43836" lon="-4.49261">
        <ele>66.800003051758</ele>
        <time>2018-05-08T08:21:42.000Z</time>
      </trkpt>
      <trkpt lat="48.43844" lon="-4.49217">
        <ele>66.800003051758</ele>
        <time>2018-05-08T08:21:48.000Z</time>
      </trkpt>
      <trkpt lat="48.43848" lon="-4.49203">
        <ele>67</ele>
        <time>2018-05-08T08:21:50.000Z</time>
      </trkpt>
      <trkpt lat="48.43838" lon="-4.492">
        <ele>66.400001525879</ele>
        <time>2018-05-08T08:21:54.000Z</time>
      </trkpt>
      <trkpt lat="48.43831" lon="-4.49206">
        <ele>66</ele>
        <time>2018-05-08T08:21:55.000Z</time>
      </trkpt>
      <trkpt lat="48.43818" lon="-4.49222">
        <ele>65.199996948242</ele>
        <time>2018-05-08T08:21:57.000Z</time>
      </trkpt>
      <trkpt lat="48.43807" lon="-4.49232">
        <ele>64.400001525879</ele>
        <time>2018-05-08T08:21:59.000Z</time>
      </trkpt>
      <trkpt lat="48.43783" lon="-4.49272">
        <ele>63</ele>
        <time>2018-05-08T08:22:04.000Z</time>
      </trkpt>
      <trkpt lat="48.43766" lon="-4.49302">
        <ele>62</ele>
        <time>2018-05-08T08:22:07.000Z</time>
      </trkpt>
      <trkpt lat="48.43743" lon="-4.49364">
        <ele>63.200000762939</ele>
        <time>2018-05-08T08:22:13.000Z</time>
      </trkpt>
      <trkpt lat="48.43731" lon="-4.49434">
        <ele>61.599998474121</ele>
        <time>2018-05-08T08:22:19.000Z</time>
      </trkpt>
      <trkpt lat="48.43729" lon="-4.49495">
        <ele>61.799999237061</ele>
        <time>2018-05-08T08:22:24.000Z</time>
      </trkpt>
      <trkpt lat="48.4373" lon="-4.49507">
        <ele>61.599998474121</ele>
        <time>2018-05-08T08:22:25.000Z</time>
      </trkpt>
      <trkpt lat="48.43741" lon="-4.49608">
        <ele>60.599998474121</ele>
        <time>2018-05-08T08:22:34.000Z</time>
      </trkpt>
      <trkpt lat="48.43739" lon="-4.49671">
        <ele>61.200000762939</ele>
        <time>2018-05-08T08:22:40.000Z</time>
      </trkpt>
      <trkpt lat="48.43735" lon="-4.49693">
        <ele>61.799999237061</ele>
        <time>2018-05-08T08:22:42.000Z</time>
      </trkpt>
      <trkpt lat="48.43716" lon="-4.49754">
        <ele>63.200000762939</ele>
        <time>2018-05-08T08:22:48.000Z</time>
      </trkpt>
      <trkpt lat="48.43693" lon="-4.49793">
        <ele>64.599998474121</ele>
        <time>2018-05-08T08:22:53.000Z</time>
      </trkpt>
      <trkpt lat="48.43663" lon="-4.49833">
        <ele>63.799999237061</ele>
        <time>2018-05-08T08:22:59.000Z</time>
      </trkpt>
      <trkpt lat="48.43649" lon="-4.49854">
        <ele>63.599998474121</ele>
        <time>2018-05-08T08:23:03.000Z</time>
      </trkpt>
      <trkpt lat="48.43646" lon="-4.49858">
        <ele>63.599998474121</ele>
        <time>2018-05-08T08:23:04.000Z</time>
      </trkpt>
      <trkpt lat="48.43628" lon="-4.49867">
        <ele>64</ele>
        <time>2018-05-08T08:23:09.000Z</time>
      </trkpt>
      <trkpt lat="48.43621" lon="-4.49878">
        <ele>63</ele>
        <time>2018-05-08T08:23:12.000Z</time>
      </trkpt>
      <trkpt lat="48.43611" lon="-4.49888">
        <ele>62.599998474121</ele>
        <time>2018-05-08T08:23:15.000Z</time>
      </trkpt>
      <trkpt lat="48.43595" lon="-4.49877">
        <ele>64.199996948242</ele>
        <time>2018-05-08T08:23:19.000Z</time>
      </trkpt>
      <trkpt lat="48.43592" lon="-4.49872">
        <ele>64.599998474121</ele>
        <time>2018-05-08T08:23:20.000Z</time>
      </trkpt>
      <trkpt lat="48.43582" lon="-4.49847">
        <ele>66</ele>
        <time>2018-05-08T08:23:27.000Z</time>
      </trkpt>
      <trkpt lat="48.43576" lon="-4.49834">
        <ele>66.400001525879</ele>
        <time>2018-05-08T08:23:31.000Z</time>
      </trkpt>
      <trkpt lat="48.43569" lon="-4.4983">
        <ele>66.599998474121</ele>
        <time>2018-05-08T08:23:35.000Z</time>
      </trkpt>
      <trkpt lat="48.43561" lon="-4.49828">
        <ele>66.800003051758</ele>
        <time>2018-05-08T08:23:39.000Z</time>
      </trkpt>
      <trkpt lat="48.43549" lon="-4.49828">
        <ele>67</ele>
        <time>2018-05-08T08:23:46.000Z</time>
      </trkpt>
      <trkpt lat="48.43541" lon="-4.49825">
        <ele>67.400001525879</ele>
        <time>2018-05-08T08:23:51.000Z</time>
      </trkpt>
      <trkpt lat="48.43531" lon="-4.49819">
        <ele>68</ele>
        <time>2018-05-08T08:23:58.000Z</time>
      </trkpt>
      <trkpt lat="48.43524" lon="-4.49813">
        <ele>68.400001525879</ele>
        <time>2018-05-08T08:24:02.000Z</time>
      </trkpt>
      <trkpt lat="48.43513" lon="-4.49796">
        <ele>69.400001525879</ele>
        <time>2018-05-08T08:24:09.000Z</time>
      </trkpt>
      <trkpt lat="48.43509" lon="-4.49777">
        <ele>69.599998474121</ele>
        <time>2018-05-08T08:24:15.000Z</time>
      </trkpt>
      <trkpt lat="48.43508" lon="-4.49762">
        <ele>69.400001525879</ele>
        <time>2018-05-08T08:24:19.000Z</time>
      </trkpt>
      <trkpt lat="48.43507" lon="-4.49756">
        <ele>69.400001525879</ele>
        <time>2018-05-08T08:24:20.000Z</time>
      </trkpt>
      <trkpt lat="48.43504" lon="-4.49727">
        <ele>68.800003051758</ele>
        <time>2018-05-08T08:24:26.000Z</time>
      </trkpt>
      <trkpt lat="48.43499" lon="-4.4969">
        <ele>69.199996948242</ele>
        <time>2018-05-08T08:24:33.000Z</time>
      </trkpt>
      <trkpt lat="48.43488" lon="-4.49677">
        <ele>69.599998474121</ele>
        <time>2018-05-08T08:24:37.000Z</time>
      </trkpt>
      <trkpt lat="48.43458" lon="-4.49669">
        <ele>69.599998474121</ele>
        <time>2018-05-08T08:24:45.000Z</time>
      </trkpt>
      <trkpt lat="48.43425" lon="-4.49663">
        <ele>69.400001525879</ele>
        <time>2018-05-08T08:24:53.000Z</time>
      </trkpt>
      <trkpt lat="48.4338" lon="-4.49656">
        <ele>69.599998474121</ele>
        <time>2018-05-08T08:25:03.000Z</time>
      </trkpt>
      <trkpt lat="48.43338" lon="-4.49658">
        <ele>69.599998474121</ele>
        <time>2018-05-08T08:25:11.000Z</time>
      </trkpt>
      <trkpt lat="48.43324" lon="-4.4966">
        <ele>69.800003051758</ele>
        <time>2018-05-08T08:25:14.000Z</time>
      </trkpt>
      <trkpt lat="48.4331" lon="-4.49648">
        <ele>70.199996948242</ele>
        <time>2018-05-08T08:25:18.000Z</time>
      </trkpt>
      <trkpt lat="48.43308" lon="-4.49644">
        <ele>70.400001525879</ele>
        <time>2018-05-08T08:25:19.000Z</time>
      </trkpt>
      <trkpt lat="48.43301" lon="-4.49625">
        <ele>71</ele>
        <time>2018-05-08T08:25:22.000Z</time>
      </trkpt>
      <trkpt lat="48.43282" lon="-4.49611">
        <ele>71.599998474121</ele>
        <time>2018-05-08T08:25:26.000Z</time>
      </trkpt>
      <trkpt lat="48.43249" lon="-4.49605">
        <ele>72</ele>
        <time>2018-05-08T08:25:32.000Z</time>
      </trkpt>
      <trkpt lat="48.43208" lon="-4.4959">
        <ele>72</ele>
        <time>2018-05-08T08:25:40.000Z</time>
      </trkpt>
      <trkpt lat="48.432" lon="-4.49585">
        <ele>72</ele>
        <time>2018-05-08T08:25:42.000Z</time>
      </trkpt>
      <trkpt lat="48.43171" lon="-4.49555">
        <ele>70.599998474121</ele>
        <time>2018-05-08T08:25:49.000Z</time>
      </trkpt>
      <trkpt lat="48.43161" lon="-4.49546">
        <ele>69.800003051758</ele>
        <time>2018-05-08T08:25:51.000Z</time>
      </trkpt>
      <trkpt lat="48.43141" lon="-4.49523">
        <ele>68.400001525879</ele>
        <time>2018-05-08T08:25:55.000Z</time>
      </trkpt>
      <trkpt lat="48.43133" lon="-4.49515">
        <ele>67.599998474121</ele>
        <time>2018-05-08T08:25:57.000Z</time>
      </trkpt>
      <trkpt lat="48.4313" lon="-4.4949">
        <ele>67</ele>
        <time>2018-05-08T08:26:01.000Z</time>
      </trkpt>
      <trkpt lat="48.43129" lon="-4.4947">
        <ele>66.800003051758</ele>
        <time>2018-05-08T08:26:04.000Z</time>
      </trkpt>
      <trkpt lat="48.43121" lon="-4.49467">
        <ele>66.199996948242</ele>
        <time>2018-05-08T08:26:07.000Z</time>
      </trkpt>
      <trkpt lat="48.43115" lon="-4.4947">
        <ele>66</ele>
        <time>2018-05-08T08:26:09.000Z</time>
      </trkpt>
      <trkpt lat="48.43086" lon="-4.49491">
        <ele>64.400001525879</ele>
        <time>2018-05-08T08:26:14.000Z</time>
      </trkpt>
      <trkpt lat="48.43045" lon="-4.49501">
        <ele>61.200000762939</ele>
        <time>2018-05-08T08:26:19.000Z</time>
      </trkpt>
      <trkpt lat="48.43037" lon="-4.49502">
        <ele>60.599998474121</ele>
        <time>2018-05-08T08:26:20.000Z</time>
      </trkpt>
      <trkpt lat="48.43037" lon="-4.49502">
        <ele>60.599998474121</ele>
        <time>2018-05-08T08:26:20.000Z</time>
      </trkpt>
      <trkpt lat="48.43016" lon="-4.49514">
        <ele>59.200000762939</ele>
        <time>2018-05-08T08:26:24.000Z</time>
      </trkpt>
      <trkpt lat="48.43007" lon="-4.49524">
        <ele>59</ele>
        <time>2018-05-08T08:26:26.000Z</time>
      </trkpt>
      <trkpt lat="48.42992" lon="-4.49546">
        <ele>58.599998474121</ele>
        <time>2018-05-08T08:26:30.000Z</time>
      </trkpt>
      <trkpt lat="48.4298" lon="-4.49557">
        <ele>58.400001525879</ele>
        <time>2018-05-08T08:26:33.000Z</time>
      </trkpt>
      <trkpt lat="48.42966" lon="-4.49564">
        <ele>58.200000762939</ele>
        <time>2018-05-08T08:26:36.000Z</time>
      </trkpt>
      <trkpt lat="48.42939" lon="-4.49582">
        <ele>57.799999237061</ele>
        <time>2018-05-08T08:26:42.000Z</time>
      </trkpt>
      <trkpt lat="48.42918" lon="-4.49596">
        <ele>57.400001525879</ele>
        <time>2018-05-08T08:26:46.000Z</time>
      </trkpt>
      <trkpt lat="48.429" lon="-4.49618">
        <ele>57.200000762939</ele>
        <time>2018-05-08T08:26:50.000Z</time>
      </trkpt>
      <trkpt lat="48.4288" lon="-4.49622">
        <ele>56.799999237061</ele>
        <time>2018-05-08T08:26:54.000Z</time>
      </trkpt>
      <trkpt lat="48.42875" lon="-4.49622">
        <ele>56.599998474121</ele>
        <time>2018-05-08T08:26:55.000Z</time>
      </trkpt>
      <trkpt lat="48.42847" lon="-4.49619">
        <ele>56</ele>
        <time>2018-05-08T08:26:59.000Z</time>
      </trkpt>
      <trkpt lat="48.42837" lon="-4.49621">
        <ele>56.599998474121</ele>
        <time>2018-05-08T08:27:01.000Z</time>
      </trkpt>
      <trkpt lat="48.42812" lon="-4.49631">
        <ele>57.799999237061</ele>
        <time>2018-05-08T08:27:06.000Z</time>
      </trkpt>
      <trkpt lat="48.42807" lon="-4.49631">
        <ele>58</ele>
        <time>2018-05-08T08:27:07.000Z</time>
      </trkpt>
      <trkpt lat="48.42788" lon="-4.49626">
        <ele>59</ele>
        <time>2018-05-08T08:27:11.000Z</time>
      </trkpt>
      <trkpt lat="48.4276" lon="-4.49615">
        <ele>60.400001525879</ele>
        <time>2018-05-08T08:27:17.000Z</time>
      </trkpt>
      <trkpt lat="48.42755" lon="-4.49612">
        <ele>60.799999237061</ele>
        <time>2018-05-08T08:27:18.000Z</time>
      </trkpt>
      <trkpt lat="48.42746" lon="-4.49606">
        <ele>61.599998474121</ele>
        <time>2018-05-08T08:27:20.000Z</time>
      </trkpt>
      <trkpt lat="48.42717" lon="-4.49586">
        <ele>64.400001525879</ele>
        <time>2018-05-08T08:27:27.000Z</time>
      </trkpt>
      <trkpt lat="48.42699" lon="-4.49573">
        <ele>65</ele>
        <time>2018-05-08T08:27:32.000Z</time>
      </trkpt>
      <trkpt lat="48.42685" lon="-4.49561">
        <ele>65.400001525879</ele>
        <time>2018-05-08T08:27:37.000Z</time>
      </trkpt>
      <trkpt lat="48.42674" lon="-4.4955">
        <ele>65.599998474121</ele>
        <time>2018-05-08T08:27:42.000Z</time>
      </trkpt>
      <trkpt lat="48.42657" lon="-4.49546">
        <ele>66</ele>
        <time>2018-05-08T08:27:47.000Z</time>
      </trkpt>
      <trkpt lat="48.42642" lon="-4.49539">
        <ele>66.599998474121</ele>
        <time>2018-05-08T08:27:51.000Z</time>
      </trkpt>
      <trkpt lat="48.42624" lon="-4.49515">
        <ele>68</ele>
        <time>2018-05-08T08:27:57.000Z</time>
      </trkpt>
      <trkpt lat="48.42609" lon="-4.49504">
        <ele>69.199996948242</ele>
        <time>2018-05-08T08:28:02.000Z</time>
      </trkpt>
      <trkpt lat="48.42586" lon="-4.49494">
        <ele>71</ele>
        <time>2018-05-08T08:28:09.000Z</time>
      </trkpt>
      <trkpt lat="48.42565" lon="-4.49484">
        <ele>72.599998474121</ele>
        <time>2018-05-08T08:28:16.000Z</time>
      </trkpt>
      <trkpt lat="48.42553" lon="-4.49467">
        <ele>74.199996948242</ele>
        <time>2018-05-08T08:28:22.000Z</time>
      </trkpt>
      <trkpt lat="48.42554" lon="-4.49464">
        <ele>74.400001525879</ele>
        <time>2018-05-08T08:28:26.000Z</time>
      </trkpt>
      <trkpt lat="48.42565" lon="-4.49458">
        <ele>74.199996948242</ele>
        <time>2018-05-08T08:28:31.000Z</time>
      </trkpt>
      <trkpt lat="48.42584" lon="-4.49449">
        <ele>73.800003051758</ele>
        <time>2018-05-08T08:28:36.000Z</time>
      </trkpt>
      <trkpt lat="48.4261" lon="-4.49437">
        <ele>72.599998474121</ele>
        <time>2018-05-08T08:28:42.000Z</time>
      </trkpt>
      <trkpt lat="48.42635" lon="-4.49428">
        <ele>71.599998474121</ele>
        <time>2018-05-08T08:28:47.000Z</time>
      </trkpt>
      <trkpt lat="48.4267" lon="-4.49405">
        <ele>70.199996948242</ele>
        <time>2018-05-08T08:28:54.000Z</time>
      </trkpt>
      <trkpt lat="48.42704" lon="-4.49374">
        <ele>68.800003051758</ele>
        <time>2018-05-08T08:29:00.000Z</time>
      </trkpt>
      <trkpt lat="48.4271" lon="-4.49368">
        <ele>68.599998474121</ele>
        <time>2018-05-08T08:29:01.000Z</time>
      </trkpt>
      <trkpt lat="48.42722" lon="-4.49332">
        <ele>69.400001525879</ele>
        <time>2018-05-08T08:29:05.000Z</time>
      </trkpt>
      <trkpt lat="48.42721" lon="-4.49322">
        <ele>69.800003051758</ele>
        <time>2018-05-08T08:29:06.000Z</time>
      </trkpt>
      <trkpt lat="48.42711" lon="-4.49262">
        <ele>72.400001525879</ele>
        <time>2018-05-08T08:29:13.000Z</time>
      </trkpt>
      <trkpt lat="48.42697" lon="-4.49201">
        <ele>74.400001525879</ele>
        <time>2018-05-08T08:29:21.000Z</time>
      </trkpt>
      <trkpt lat="48.42682" lon="-4.49154">
        <ele>75.599998474121</ele>
        <time>2018-05-08T08:29:28.000Z</time>
      </trkpt>
      <trkpt lat="48.42664" lon="-4.49119">
        <ele>76.599998474121</ele>
        <time>2018-05-08T08:29:34.000Z</time>
      </trkpt>
      <trkpt lat="48.42638" lon="-4.49072">
        <ele>77.599998474121</ele>
        <time>2018-05-08T08:29:42.000Z</time>
      </trkpt>
      <trkpt lat="48.42618" lon="-4.49036">
        <ele>78.199996948242</ele>
        <time>2018-05-08T08:29:48.000Z</time>
      </trkpt>
      <trkpt lat="48.42604" lon="-4.48992">
        <ele>78.800003051758</ele>
        <time>2018-05-08T08:29:54.000Z</time>
      </trkpt>
      <trkpt lat="48.42599" lon="-4.48943">
        <ele>79.199996948242</ele>
        <time>2018-05-08T08:30:00.000Z</time>
      </trkpt>
      <trkpt lat="48.42599" lon="-4.48877">
        <ele>80.800003051758</ele>
        <time>2018-05-08T08:30:08.000Z</time>
      </trkpt>
      <trkpt lat="48.42601" lon="-4.48792">
        <ele>81.800003051758</ele>
        <time>2018-05-08T08:30:18.000Z</time>
      </trkpt>
      <trkpt lat="48.42603" lon="-4.48736">
        <ele>82</ele>
        <time>2018-05-08T08:30:25.000Z</time>
      </trkpt>
      <trkpt lat="48.42604" lon="-4.4868">
        <ele>81.800003051758</ele>
        <time>2018-05-08T08:30:33.000Z</time>
      </trkpt>
      <trkpt lat="48.42605" lon="-4.48651">
        <ele>81.800003051758</ele>
        <time>2018-05-08T08:30:37.000Z</time>
      </trkpt>
      <trkpt lat="48.42604" lon="-4.48612">
        <ele>81.800003051758</ele>
        <time>2018-05-08T08:30:42.000Z</time>
      </trkpt>
      <trkpt lat="48.42601" lon="-4.48583">
        <ele>82.400001525879</ele>
        <time>2018-05-08T08:30:46.000Z</time>
      </trkpt>
      <trkpt lat="48.42586" lon="-4.48532">
        <ele>83.199996948242</ele>
        <time>2018-05-08T08:30:53.000Z</time>
      </trkpt>
      <trkpt lat="48.42563" lon="-4.48486">
        <ele>83.400001525879</ele>
        <time>2018-05-08T08:31:00.000Z</time>
      </trkpt>
      <trkpt lat="48.42536" lon="-4.48453">
        <ele>83.599998474121</ele>
        <time>2018-05-08T08:31:06.000Z</time>
      </trkpt>
      <trkpt lat="48.42496" lon="-4.48428">
        <ele>84.800003051758</ele>
        <time>2018-05-08T08:31:14.000Z</time>
      </trkpt>
      <trkpt lat="48.42463" lon="-4.48415">
        <ele>86</ele>
        <time>2018-05-08T08:31:21.000Z</time>
      </trkpt>
      <trkpt lat="48.42459" lon="-4.48414">
        <ele>86.199996948242</ele>
        <time>2018-05-08T08:31:22.000Z</time>
      </trkpt>
      <trkpt lat="48.42452" lon="-4.48397">
        <ele>86.599998474121</ele>
        <time>2018-05-08T08:31:27.000Z</time>
      </trkpt>
      <trkpt lat="48.42457" lon="-4.48375">
        <ele>86.800003051758</ele>
        <time>2018-05-08T08:31:30.000Z</time>
      </trkpt>
      <trkpt lat="48.42458" lon="-4.48367">
        <ele>86.800003051758</ele>
        <time>2018-05-08T08:31:31.000Z</time>
      </trkpt>
      <trkpt lat="48.42477" lon="-4.48297">
        <ele>86</ele>
        <time>2018-05-08T08:31:39.000Z</time>
      </trkpt>
      <trkpt lat="48.42485" lon="-4.4825">
        <ele>85.800003051758</ele>
        <time>2018-05-08T08:31:44.000Z</time>
      </trkpt>
      <trkpt lat="48.42494" lon="-4.48223">
        <ele>85.599998474121</ele>
        <time>2018-05-08T08:31:47.000Z</time>
      </trkpt>
      <trkpt lat="48.42508" lon="-4.48156">
        <ele>85.199996948242</ele>
        <time>2018-05-08T08:31:54.000Z</time>
      </trkpt>
      <trkpt lat="48.42519" lon="-4.4811">
        <ele>84.800003051758</ele>
        <time>2018-05-08T08:31:59.000Z</time>
      </trkpt>
      <trkpt lat="48.42516" lon="-4.48084">
        <ele>84.599998474121</ele>
        <time>2018-05-08T08:32:02.000Z</time>
      </trkpt>
      <trkpt lat="48.42501" lon="-4.48073">
        <ele>85</ele>
        <time>2018-05-08T08:32:05.000Z</time>
      </trkpt>
      <trkpt lat="48.42469" lon="-4.48049">
        <ele>86.199996948242</ele>
        <time>2018-05-08T08:32:12.000Z</time>
      </trkpt>
      <trkpt lat="48.42463" lon="-4.48048">
        <ele>86.599998474121</ele>
        <time>2018-05-08T08:32:16.000Z</time>
      </trkpt>
      <trkpt lat="48.42463" lon="-4.48048">
        <ele>86.599998474121</ele>
        <time>2018-05-08T08:32:17.000Z</time>
      </trkpt>
      <trkpt lat="48.42457" lon="-4.48047">
        <ele>86.800003051758</ele>
        <time>2018-05-08T08:32:56.000Z</time>
      </trkpt>
      <trkpt lat="48.42448" lon="-4.48054">
        <ele>87.199996948242</ele>
        <time>2018-05-08T08:33:00.000Z</time>
      </trkpt>
      <trkpt lat="48.42443" lon="-4.48058">
        <ele>87.400001525879</ele>
        <time>2018-05-08T08:33:05.000Z</time>
      </trkpt>
      <trkpt lat="48.42443" lon="-4.48052">
        <ele>87.400001525879</ele>
        <time>2018-05-08T08:33:08.000Z</time>
      </trkpt>
      <trkpt lat="48.42442" lon="-4.48053">
        <ele>87.599998474121</ele>
        <time>2018-05-08T08:33:11.000Z</time>
      </trkpt>
      <trkpt lat="48.42425" lon="-4.48061">
        <ele>88.199996948242</ele>
        <time>2018-05-08T08:33:25.000Z</time>
      </trkpt>
      <trkpt lat="48.42412" lon="-4.48065">
        <ele>88.400001525879</ele>
        <time>2018-05-08T08:33:31.000Z</time>
      </trkpt>
      <trkpt lat="48.42405" lon="-4.48078">
        <ele>88.599998474121</ele>
        <time>2018-05-08T08:33:36.000Z</time>
      </trkpt>
      <trkpt lat="48.42404" lon="-4.48083">
        <ele>88.599998474121</ele>
        <time>2018-05-08T08:33:39.000Z</time>
      </trkpt>
      <trkpt lat="48.42402" lon="-4.48095">
        <ele>88.800003051758</ele>
        <time>2018-05-08T08:33:45.000Z</time>
      </trkpt>
      <trkpt lat="48.42402" lon="-4.48103">
        <ele>88.800003051758</ele>
        <time>2018-05-08T08:33:48.000Z</time>
      </trkpt>
      <trkpt lat="48.42402" lon="-4.48104">
        <ele>88.800003051758</ele>
        <time>2018-05-08T08:33:54.000Z</time>
      </trkpt>
      <trkpt lat="48.42401" lon="-4.48104">
        <ele>88.800003051758</ele>
        <time>2018-05-08T08:33:56.000Z</time>
      </trkpt>
      <trkpt lat="48.42404" lon="-4.48109">
        <ele>88.599998474121</ele>
        <time>2018-05-08T08:34:05.000Z</time>
      </trkpt>
      <trkpt lat="48.42407" lon="-4.48085">
        <ele>88.599998474121</ele>
        <time>2018-05-08T08:35:11.000Z</time>
      </trkpt>
      <trkpt lat="48.42414" lon="-4.48063">
        <ele>88.400001525879</ele>
        <time>2018-05-08T08:35:16.000Z</time>
      </trkpt>
      <trkpt lat="48.42429" lon="-4.48061">
        <ele>88</ele>
        <time>2018-05-08T08:35:20.000Z</time>
      </trkpt>
      <trkpt lat="48.42442" lon="-4.48052">
        <ele>87.599998474121</ele>
        <time>2018-05-08T08:35:24.000Z</time>
      </trkpt>
      <trkpt lat="48.42447" lon="-4.48033">
        <ele>87.400001525879</ele>
        <time>2018-05-08T08:35:28.000Z</time>
      </trkpt>
      <trkpt lat="48.42434" lon="-4.48016">
        <ele>88.199996948242</ele>
        <time>2018-05-08T08:35:32.000Z</time>
      </trkpt>
      <trkpt lat="48.42423" lon="-4.48013">
        <ele>88.400001525879</ele>
        <time>2018-05-08T08:35:34.000Z</time>
      </trkpt>
      <trkpt lat="48.42386" lon="-4.48007">
        <ele>88.800003051758</ele>
        <time>2018-05-08T08:35:41.000Z</time>
      </trkpt>
      <trkpt lat="48.42381" lon="-4.48006">
        <ele>89</ele>
        <time>2018-05-08T08:35:42.000Z</time>
      </trkpt>
      <trkpt lat="48.42365" lon="-4.47995">
        <ele>88.199996948242</ele>
        <time>2018-05-08T08:35:46.000Z</time>
      </trkpt>
      <trkpt lat="48.42357" lon="-4.47979">
        <ele>87.400001525879</ele>
        <time>2018-05-08T08:35:51.000Z</time>
      </trkpt>
      <trkpt lat="48.4235" lon="-4.47978">
        <ele>87</ele>
        <time>2018-05-08T08:35:56.000Z</time>
      </trkpt>
      <trkpt lat="48.42345" lon="-4.47986">
        <ele>87.199996948242</ele>
        <time>2018-05-08T08:36:01.000Z</time>
      </trkpt>
      <trkpt lat="48.42346" lon="-4.47989">
        <ele>87.400001525879</ele>
        <time>2018-05-08T08:36:03.000Z</time>
      </trkpt>
      <trkpt lat="48.42347" lon="-4.47989">
        <ele>87.400001525879</ele>
        <time>2018-05-08T08:36:06.000Z</time>
      </trkpt>
    </trkseg>
  </trk>
</gpx>